[[{"header":{"parameterUnit":"m.s-1","parameterCategory":1,"la1":30.6,"la2":28.766,"lo1":-90.7593,"lo2":-88.6598,"dy":0.0162,"dx":0.0183,"nx":116,"ny":114,"refTime":"2023-04-09T00:00:00:Z","depth":0,"parameterNumber":2,"parameterNumberName":"U-component_of_WINDS"},"data":[0.0,0.0,0.0,0.0,0.0,0.0,0.0,0.0,0.0,0.0,0.0,0.0,0.0,0.0,0.0,0.0,0.0,0.0,0.0,0.0,0.0,0.0,0.0,0.0,0.0,0.0,0.0,0.0,0.0,0.0,0.0,0.0,0.0,0.0,0.0,0.0,0.0,0.0,0.0,0.0,0.0,0.0,0.0,0.0,0.0,0.0,0.0,0.0,0.0,0.0,0.0,0.0,0.0,0.0,0.0,0.0,0.0,0.0,0.0,0.0,0.0,0.0,0.0,0.0,0.0,0.0,0.0,0.0,0.0,0.0,0.0,0.0,0.0,0.0,0.0,0.0,0.0,0.0,0.0,0.0,0.0,0.0,0.0,0.0,0.0,0.0,0.0,0.0,0.0,0.0,0.0,0.0,0.0,0.0,0.0,0.0,0.0,0.0,0.0,0.0,0.0,0.0,0.0,0.0,0.0,0.0,0.0,0.0,0.0,0.0,0.0,0.0,0.0,0.0,0.0,0.0,0.0,0.0,0.0,0.0,0.0,0.0,0.0,0.0,0.0,0.0,0.0,0.0,0.0,0.0,0.0,0.0,0.0,0.0,0.0,0.0,0.0,0.0,0.0,0.0,0.0,0.0,0.0,0.0,0.0,0.0,0.0,0.0,0.0,0.0,0.0,0.0,0.0,0.0,0.0,0.0,0.0,0.0,0.0,0.0,0.0,0.0,0.0,0.0,0.0,0.0,0.0,0.0,0.0,0.0,0.0,0.0,0.0,0.0,0.0,0.0,0.0,0.0,0.0,0.0,0.0,0.0,0.0,0.0,0.0,0.0,0.0,0.0,0.0,0.0,0.0,0.0,0.0,0.0,0.0,0.0,0.0,0.0,0.0,0.0,0.0,0.0,0.0,0.0,0.0,0.0,0.0,0.0,0.0,0.0,0.0,0.0,0.0,0.0,0.0,0.0,0.0,0.0,0.0,0.0,0.0,0.0,0.0,0.0,0.0,0.0,0.0,0.0,0.0,0.0,0.0,0.0,0.0,0.0,0.0,0.0,0.0,0.0,0.0,0.0,0.0,0.0,0.0,0.0,0.0,0.0,0.0,0.0,0.0,0.0,0.0,0.0,0.0,0.0,0.0,0.0,0.0,0.0,0.0,0.0,0.0,0.0,0.0,0.0,0.0,0.0,0.0,0.0,0.0,0.0,0.0,0.0,0.0,0.0,0.0,0.0,0.0,0.0,0.0,0.0,0.0,0.0,0.0,0.0,0.0,0.0,0.0,0.0,0.0,0.0,0.0,0.0,0.0,0.0,0.0,0.0,0.0,0.0,0.0,0.0,0.0,0.0,0.0,0.0,0.0,0.0,0.0,0.0,0.0,0.0,0.0,0.0,0.0,0.0,0.0,0.0,0.0,0.0,0.0,0.0,0.0,0.0,0.0,0.0,0.0,0.0,0.0,0.0,0.0,0.0,0.0,0.0,0.0,0.0,0.0,0.0,0.0,0.0,0.0,0.0,0.0,0.0,0.0,0.0,0.0,0.0,0.0,0.0,0.0,0.0,0.0,0.0,0.0,0.0,0.0,0.0,0.0,0.0,0.0,0.0,0.0,0.0,0.0,0.0,0.0,0.0,0.0,0.0,0.0,0.0,0.0,0.0,0.0,0.0,0.0,0.0,0.0,0.0,0.0,0.0,0.0,0.0,0.0,0.0,0.0,0.0,0.0,0.0,0.0,0.0,0.0,0.0,0.0,0.0,0.0,0.0,0.0,0.0,0.0,0.0,0.0,0.0,0.0,0.0,0.0,0.0,0.0,0.0,0.0,0.0,0.0,0.0,0.0,0.0,0.0,0.0,0.0,0.0,0.0,0.0,0.0,0.0,0.0,0.0,0.0,0.0,0.0,0.0,0.0,0.0,0.0,0.0,0.0,0.0,0.0,0.0,0.0,0.0,0.0,0.0,0.0,0.0,0.0,0.0,0.0,0.0,0.0,0.0,0.0,0.0,0.0,0.0,0.0,0.0,0.0,0.0,0.0,0.0,0.0,0.0,0.0,0.0,0.0,0.0,0.0,0.0,0.0,0.0,0.0,0.0,0.0,0.0,0.0,0.0,0.0,0.0,0.0,0.0,0.0,0.0,0.0,0.0,0.0,0.0,0.0,0.0,0.0,0.0,0.0,0.0,0.0,0.0,0.0,0.0,0.0,0.0,0.0,0.0,0.0,0.0,0.0,0.0,0.0,0.0,0.0,0.0,0.0,0.0,0.0,0.0,0.0,0.0,0.0,0.0,0.0,0.0,0.0,0.0,0.0,0.0,0.0,0.0,0.0,0.0,0.0,0.0,0.0,0.0,0.0,0.0,0.0,0.0,0.0,0.0,0.0,0.0,0.0,0.0,0.0,0.0,0.0,0.0,0.0,0.0,0.0,0.0,0.0,0.0,0.0,0.0,0.0,0.0,0.0,0.0,0.0,0.0,0.0,0.0,0.0,0.0,0.0,0.0,0.0,0.0,0.0,0.0,0.0,0.0,0.0,0.0,0.0,0.0,0.0,0.0,0.0,0.0,0.0,0.0,0.0,0.0,0.0,0.0,0.0,0.0,0.0,0.0,0.0,0.0,0.0,0.0,0.0,0.0,0.0,0.0,0.0,0.0,0.0,0.0,0.0,0.0,0.0,0.0,0.0,0.0,0.0,0.0,0.0,0.0,0.0,0.0,0.0,0.0,0.0,0.0,0.0,0.0,0.0,0.0,0.0,0.0,0.0,0.0,0.0,0.0,0.0,0.0,0.0,0.0,0.0,0.0,0.0,0.0,0.0,0.0,0.0,0.0,0.0,0.0,0.0,0.0,0.0,0.0,0.0,0.0,0.0,0.0,0.0,0.0,0.0,0.0,0.0,0.0,0.0,0.0,0.0,0.0,0.0,0.0,0.0,0.0,0.0,0.0,0.0,0.0,0.0,0.0,0.0,0.0,0.0,0.0,0.0,0.0,0.0,0.0,0.0,0.0,0.0,0.0,0.0,0.0,0.0,0.0,0.0,0.0,0.0,0.0,0.0,0.0,0.0,0.0,0.0,0.0,0.0,0.0,0.0,0.0,0.0,0.0,0.0,0.0,0.0,0.0,0.0,0.0,0.0,0.0,0.0,0.0,0.0,0.0,0.0,0.0,0.0,0.0,0.0,0.0,0.0,0.0,0.0,0.0,0.0,0.0,0.0,0.0,0.0,0.0,0.0,0.0,0.0,0.0,0.0,0.0,0.0,0.0,0.0,0.0,0.0,0.0,0.0,0.0,0.0,0.0,0.0,0.0,0.0,0.0,0.0,0.0,0.0,0.0,0.0,0.0,0.0,0.0,0.0,0.0,0.0,0.0,0.0,0.0,0.0,0.0,0.0,0.0,0.0,0.0,0.0,0.0,0.0,0.0,0.0,0.0,0.0,0.0,0.0,0.0,0.0,0.0,0.0,0.0,0.0,0.0,0.0,0.0,0.0,0.0,0.0,0.0,0.0,0.0,0.0,0.0,0.0,0.0,0.0,0.0,0.0,0.0,0.0,0.0,0.0,0.0,0.0,0.0,0.0,0.0,0.0,0.0,0.0,0.0,0.0,0.0,0.0,0.0,0.0,0.0,0.0,0.0,0.0,0.0,0.0,0.0,0.0,0.0,0.0,0.0,0.0,0.0,0.0,0.0,0.0,0.0,0.0,0.0,0.0,0.0,0.0,0.0,0.0,0.0,0.0,0.0,0.0,0.0,0.0,0.0,0.0,0.0,0.0,0.0,0.0,0.0,0.0,0.0,0.0,0.0,0.0,0.0,0.0,0.0,0.0,0.0,0.0,0.0,0.0,0.0,0.0,0.0,0.0,0.0,0.0,0.0,0.0,0.0,0.0,0.0,0.0,0.0,0.0,0.0,0.0,0.0,0.0,0.0,0.0,0.0,0.0,0.0,0.0,0.0,0.0,0.0,0.0,0.0,0.0,0.0,0.0,0.0,0.0,0.0,0.0,0.0,0.0,0.0,0.0,0.0,0.0,0.0,0.0,0.0,0.0,0.0,0.0,0.0,0.0,0.0,0.0,0.0,0.0,0.0,0.0,0.0,0.0,0.0,0.0,0.0,0.0,0.0,0.0,0.0,0.0,0.0,0.0,0.0,0.0,0.0,0.0,0.0,0.0,0.0,0.0,0.0,0.0,0.0,0.0,0.0,0.0,0.0,0.0,0.0,0.0,0.0,0.0,0.0,0.0,0.0,0.0,0.0,0.0,0.0,0.0,0.0,0.0,0.0,0.0,0.0,0.0,0.0,0.0,0.0,0.0,0.0,0.0,0.0,0.0,0.0,0.0,0.0,0.0,0.0,0.0,0.0,0.0,0.0,0.0,0.0,0.0,0.0,0.0,0.0,0.0,0.0,0.0,0.0,0.0,0.0,0.0,0.0,0.0,0.0,0.0,0.0,0.0,0.0,0.0,0.0,0.0,0.0,0.0,0.0,0.0,0.0,0.0,0.0,0.0,0.0,0.0,0.0,0.0,0.0,0.0,0.0,0.0,0.0,0.0,0.0,0.0,0.0,0.0,0.0,0.0,0.0,0.0,0.0,0.0,0.0,0.0,0.0,0.0,0.0,0.0,0.0,0.0,0.0,0.0,0.0,0.0,0.0,0.0,0.0,0.0,0.0,0.0,0.0,0.0,0.0,0.0,0.0,0.0,0.0,0.0,0.0,0.0,0.0,0.0,0.0,0.0,0.0,0.0,0.0,0.0,0.0,0.0,0.0,0.0,0.0,0.0,0.0,0.0,0.0,0.0,0.0,0.0,0.0,0.0,0.0,0.0,0.0,0.0,0.0,0.0,0.0,0.0,0.0,0.0,0.0,0.0,0.0,0.0,0.0,0.0,0.0,0.0,0.0,0.0,0.0,0.0,0.0,0.0,0.0,0.0,0.0,0.0,0.0,0.0,0.0,0.0,0.0,0.0,0.0,0.0,0.0,0.0,0.0,0.0,0.0,0.0,0.0,0.0,0.0,0.0,0.0,0.0,0.0,0.0,0.0,0.0,0.0,0.0,0.0,0.0,0.0,0.0,0.0,0.0,0.0,0.0,0.0,0.0,0.0,0.0,0.0,0.0,0.0,0.0,0.0,0.0,0.0,0.0,0.0,0.0,0.0,0.0,0.0,0.0,0.0,0.0,0.0,0.0,0.0,0.0,0.0,0.0,0.0,0.0,0.0,0.0,0.0,0.0,0.0,0.0,0.0,0.0,0.0,0.0,0.0,0.0,0.0,0.0,0.0,0.0,0.0,0.0,0.0,0.0,0.0,0.0,0.0,0.0,0.0,0.0,0.0,0.0,0.0,0.0,0.0,0.0,0.0,0.0,0.0,0.0,0.0,0.0,0.0,0.0,0.0,0.0,0.0,0.0,0.0,0.0,0.0,0.0,0.0,0.0,0.0,0.0,0.0,0.0,0.0,0.0,0.0,0.0,0.0,0.0,0.0,0.0,0.0,0.0,0.0,0.0,0.0,0.0,0.0,0.0,0.0,0.0,0.0,0.0,0.0,0.0,0.0,0.0,0.0,0.0,0.0,0.0,0.0,0.0,0.0,0.0,0.0,0.0,0.0,0.0,0.0,0.0,0.0,0.0,0.0,0.0,0.0,0.0,0.0,0.0,0.0,0.0,0.0,0.0,0.0,0.0,0.0,0.0,0.0,0.0,0.0,0.0,0.0,0.0,0.0,0.0,0.0,0.0,0.0,0.0,0.0,0.0,0.0,0.0,0.0,0.0,0.0,0.0,0.0,0.0,0.0,0.0,0.0,0.0,0.0,0.0,0.0,0.0,0.0,0.0,0.0,0.0,0.0,0.0,0.0,0.0,0.0,0.0,0.0,0.0,0.0,0.0,0.0,0.0,0.0,0.0,0.0,0.0,0.0,0.0,0.0,0.0,0.0,0.0,0.0,0.0,0.0,0.0,0.0,0.0,0.0,0.0,0.0,0.0,0.0,0.0,0.0,0.0,0.0,0.0,0.0,0.0,0.0,0.0,0.0,0.0,0.0,0.0,0.0,0.0,0.0,0.0,0.0,0.0,0.0,0.0,0.0,0.0,0.0,0.0,0.0,0.0,0.0,0.0,0.0,3.2627,0.0,0.0,0.0,0.0,0.0,0.0,0.0,0.0,0.0,0.0,0.0,0.0,0.0,0.0,0.0,0.0,0.0,0.0,0.0,0.0,0.0,0.0,0.0,0.0,0.0,0.0,0.0,0.0,0.0,0.0,0.0,0.0,0.0,0.0,0.0,0.0,0.0,0.0,3.0107,3.0371,3.0756,3.124,3.1216,3.0807,3.0107,0.0,0.0,0.0,0.0,0.0,0.0,0.0,0.0,0.0,0.0,0.0,0.0,0.0,0.0,0.0,0.0,0.0,0.0,0.0,0.0,0.0,0.0,0.0,0.0,0.0,0.0,0.0,0.0,0.0,0.0,0.0,0.0,0.0,0.0,0.0,0.0,0.0,0.0,0.0,0.0,0.0,0.0,0.0,0.0,0.0,0.0,0.0,0.0,0.0,0.0,0.0,0.0,0.0,0.0,0.0,0.0,0.0,0.0,0.0,0.0,0.0,0.0,0.0,0.0,0.0,0.0,0.0,0.0,0.0,0.0,0.0,3.3464,0.0,0.0,0.0,0.0,0.0,0.0,0.0,0.0,0.0,0.0,0.0,0.0,0.0,0.0,0.0,0.0,0.0,0.0,0.0,0.0,0.0,0.0,0.0,2.8262,2.8643,2.8643,2.8739,2.8979,0.0,0.0,0.0,0.0,0.0,0.0,3.0124,3.0305,3.0329,3.0223,3.1146,3.2152,3.3188,3.3813,3.3187,3.1454,3.0879,0.0,0.0,0.0,0.0,0.0,0.0,0.0,0.0,0.0,0.0,0.0,0.0,0.0,0.0,0.0,0.0,0.0,0.0,0.0,0.0,0.0,0.0,0.0,0.0,0.0,0.0,0.0,0.0,0.0,0.0,0.0,0.0,0.0,0.0,0.0,0.0,0.0,0.0,0.0,0.0,0.0,0.0,0.0,0.0,0.0,0.0,0.0,0.0,0.0,0.0,0.0,0.0,0.0,0.0,0.0,0.0,0.0,0.0,0.0,0.0,0.0,0.0,0.0,3.7508,3.8229,3.9402,3.9351,3.8846,3.7936,3.5871,3.4211,3.296,0.0,0.0,0.0,0.0,0.0,0.0,0.0,0.0,0.0,0.0,0.0,0.0,0.0,0.0,0.0,0.0,0.0,0.0,0.0,0.0,0.0,2.7661,2.8575,2.9196,2.9196,2.9605,2.9938,3.001,0.0,0.0,0.0,0.0,0.0,3.0201,3.1043,3.1258,3.0793,3.3147,3.4823,3.5905,3.6892,3.723,3.6845,3.4102,3.3116,3.3405,0.0,0.0,0.0,0.0,0.0,0.0,0.0,0.0,0.0,0.0,0.0,0.0,0.0,0.0,0.0,0.0,0.0,0.0,0.0,0.0,0.0,0.0,0.0,0.0,0.0,0.0,0.0,0.0,0.0,0.0,0.0,0.0,0.0,0.0,0.0,0.0,0.0,0.0,0.0,0.0,0.0,3.1174,3.0774,0.0,0.0,0.0,0.0,0.0,0.0,0.0,0.0,0.0,0.0,0.0,0.0,0.0,3.8171,3.9422,3.8758,3.8759,3.9344,3.8327,3.8157,3.8707,3.8331,3.8461,3.9006,3.8678,0.0,3.4423,3.437,0.0,0.0,0.0,0.0,0.0,0.0,0.0,0.0,0.0,0.0,0.0,0.0,0.0,0.0,0.0,0.0,0.0,0.0,0.0,0.0,0.0,2.922,3.0196,3.0183,3.2044,3.2569,3.1083,3.1273,0.0,0.0,0.0,2.9579,2.9579,3.0685,3.2008,3.3553,3.6499,3.8334,3.9104,4.019,4.0551,4.019,3.8818,3.6964,3.4847,3.3861,0.0,0.0,0.0,0.0,0.0,0.0,0.0,0.0,0.0,0.0,0.0,0.0,0.0,0.0,0.0,0.0,0.0,0.0,0.0,0.0,0.0,0.0,0.0,0.0,0.0,0.0,0.0,0.0,0.0,0.0,0.0,0.0,0.0,0.0,0.0,0.0,0.0,0.0,0.0,3.2601,3.2683,3.2049,3.2377,3.2306,0.0,0.0,0.0,0.0,0.0,0.0,0.0,0.0,0.0,3.7473,3.8146,3.9077,4.037,4.0288,4.0729,4.1607,4.1326,4.1523,4.2187,4.1952,4.2089,4.248,4.248,4.1308,3.9256,3.7198,3.5152,3.3305,0.0,0.0,0.0,0.0,3.3184,3.3223,0.0,0.0,0.0,0.0,0.0,0.0,0.0,0.0,0.0,0.0,0.0,0.0,2.8503,3.0553,3.1931,3.1996,3.4309,3.4882,3.2742,3.2509,3.1563,2.9562,2.9089,2.8888,2.8888,3.0694,3.326,3.6562,3.9619,4.1574,4.2423,4.3511,4.3728,4.3223,4.3223,4.0812,3.6795,3.5953,3.4799,3.3452,0.0,0.0,0.0,0.0,0.0,0.0,0.0,0.0,0.0,0.0,0.0,0.0,0.0,0.0,0.0,0.0,0.0,0.0,0.0,0.0,0.0,0.0,0.0,0.0,0.0,0.0,0.0,0.0,0.0,0.0,0.0,0.0,0.0,0.0,0.0,0.0,0.0,3.3508,3.3742,3.2444,3.3021,3.2989,0.0,0.0,0.0,0.0,0.0,0.0,3.5223,3.6465,3.7777,3.9199,3.9883,4.084,4.2109,4.2598,4.334,4.4394,4.4707,4.5254,4.5996,4.5879,4.584,4.5796,4.5723,4.5,4.3633,4.0176,3.7598,3.5781,3.5156,3.4707,3.4512,3.5254,3.5586,3.5898,0.0,0.0,0.0,0.0,0.0,0.0,0.0,0.0,0.0,0.0,0.0,2.9002,3.0406,3.2982,3.4688,3.4948,3.5756,3.5934,3.5154,3.2535,3.0842,3.0444,2.9088,2.8332,2.8332,3.1816,3.548,3.9212,4.1784,4.3939,4.5686,4.6776,4.6992,4.6463,4.6463,4.413,4.0042,3.8506,3.7204,3.6026,3.4054,0.0,0.0,0.0,0.0,0.0,0.0,0.0,0.0,0.0,0.0,0.0,0.0,0.0,0.0,0.0,0.0,0.0,0.0,0.0,0.0,0.0,0.0,0.0,0.0,0.0,0.0,0.0,0.0,0.0,0.0,0.0,0.0,0.0,0.0,0.0,0.0,0.0,0.0,3.0666,3.2878,0.0,0.0,0.0,0.0,3.517,3.6397,3.7492,3.8337,3.959,4.1074,4.2773,4.4043,4.527,4.6557,4.7031,4.75,4.7949,4.7969,4.8223,4.8698,4.8242,4.8047,4.8027,4.7617,4.6953,4.5879,4.2422,4.0215,3.8848,3.7617,3.7129,3.7168,3.7598,3.8027,3.8493,0.0,0.0,0.0,0.0,0.0,0.0,0.0,0.0,2.5665,2.7394,2.8549,2.9977,3.1961,3.4827,3.6994,3.801,3.9641,3.9646,3.7379,3.452,3.2062,3.0198,2.7968,2.7864,3.0248,3.3183,3.6187,3.9191,4.1856,4.3773,4.5022,4.5985,4.6926,4.7714,4.7644,4.6614,4.4804,4.2188,3.9685,3.73,3.5857,3.4559,0.0,0.0,0.0,0.0,0.0,0.0,0.0,0.0,0.0,0.0,0.0,0.0,0.0,0.0,0.0,0.0,0.0,0.0,0.0,0.0,0.0,0.0,0.0,0.0,0.0,0.0,0.0,0.0,0.0,0.0,0.0,0.0,0.0,0.0,0.0,0.0,0.0,3.5986,3.7421,0.0,3.646,3.709,3.7676,3.7832,3.9551,4.0976,4.1836,4.3379,4.4902,4.6328,4.7109,4.7988,4.9004,4.918,4.9336,4.9473,4.9746,4.9824,4.9754,4.9824,4.9726,4.9473,4.9316,4.8926,4.8262,4.6738,4.4417,4.1621,4.0879,4.0273,3.9922,4.0879,4.1328,4.1699,0.0,0.0,0.0,0.0,0.0,0.0,0.0,0.0,2.5931,2.7489,2.9347,3.1401,3.3722,3.6782,3.9386,4.1195,4.1595,4.08,3.8653,3.4904,3.1717,2.9379,2.7766,2.842,3.1618,3.4641,3.7488,4.0271,4.2371,4.4034,4.5196,4.5646,4.6608,4.7843,4.767,4.78,4.7994,4.5613,4.2661,3.9492,3.8046,3.6964,3.588,0.0,0.0,0.0,0.0,0.0,0.0,0.0,0.0,0.0,0.0,0.0,0.0,0.0,0.0,0.0,0.0,0.0,0.0,0.0,0.0,0.0,0.0,0.0,0.0,0.0,0.0,0.0,0.0,0.0,0.0,0.0,0.0,0.0,0.0,0.0,3.9036,3.9131,4.0569,4.1035,3.9627,4.0199,4.0725,4.088,4.2695,4.4195,4.5063,4.6722,4.808,4.8911,4.9557,5.0059,5.0504,5.0504,5.0601,5.0794,5.1037,5.1114,5.1035,5.1328,5.1289,5.1016,5.0723,5.0351,4.9922,4.9492,4.7662,4.5003,4.4219,4.3594,4.3223,4.4062,4.4375,4.457,0.0,0.0,0.0,0.0,0.0,0.0,2.5939,2.6548,2.7076,2.7307,3.026,3.3271,3.5686,3.8894,4.1838,4.4343,4.1313,3.9116,3.891,3.348,2.9592,2.8091,2.8607,3.0073,3.2399,3.6096,3.9481,4.2481,4.3515,4.4847,4.6372,4.6007,4.6198,4.695,4.6668,4.7578,4.9387,4.8546,4.6201,4.2886,4.0667,4.0018,3.9946,0.0,0.0,0.0,0.0,0.0,0.0,0.0,0.0,0.0,0.0,0.0,0.0,0.0,0.0,0.0,0.0,0.0,0.0,0.0,0.0,0.0,0.0,0.0,0.0,0.0,0.0,0.0,0.0,0.0,0.0,0.0,0.0,0.0,3.4511,3.8583,4.1191,3.9624,4.205,4.3201,4.1562,4.2848,4.394,4.4343,4.5851,4.711,4.796,4.9595,5.0464,5.0427,5.129,5.1517,5.1132,5.1132,5.1403,5.1904,5.1904,5.2155,5.2704,5.2704,5.2704,5.2645,5.1757,5.1221,5.0811,5.043,4.9746,4.8894,4.7519,4.6967,4.6948,4.6967,4.6967,4.7045,0.0,0.0,0.0,0.0,0.0,0.0,2.5781,2.5469,2.5832,2.7591,3.1158,3.4326,3.6404,3.9982,4.2661,4.3736,4.12,3.9303,3.865,3.3253,2.9554,2.835,2.9573,3.2065,3.5904,3.7297,3.9288,4.1925,4.2235,4.2754,4.3446,4.3639,4.4681,4.6352,4.6496,4.7911,5.0201,5.0315,4.9873,4.8772,4.5092,4.2327,4.0186,0.0,0.0,0.0,0.0,0.0,0.0,0.0,0.0,0.0,0.0,0.0,0.0,0.0,0.0,0.0,0.0,0.0,0.0,0.0,0.0,0.0,0.0,0.0,0.0,0.0,0.0,0.0,0.0,0.0,0.0,0.0,0.0,3.8164,3.8672,4.0957,4.3213,4.4928,4.6095,4.669,4.6519,4.7208,4.7684,4.7732,4.902,4.9999,5.0528,5.1334,5.1801,5.1801,5.2028,5.1952,5.1536,5.182,5.1922,5.1739,5.2024,5.2278,5.2431,5.2431,5.2431,5.2393,5.1878,5.1773,5.2019,5.1614,5.1531,5.1465,4.9551,4.8613,4.8405,4.8691,4.9004,4.9297,0.0,0.0,0.0,0.0,0.0,0.0,2.5815,2.5754,2.6165,2.7567,3.1421,3.4781,3.6679,3.985,4.222,4.3294,4.0066,3.7598,3.666,3.2192,2.9525,2.9409,3.1928,3.4734,3.7831,3.9153,4.0675,4.2436,4.2271,4.2474,4.3068,4.3142,4.4082,4.5812,4.564,4.7002,4.953,5.0393,5.086,5.0939,4.9375,4.6992,4.4106,4.1701,4.0667,4.0258,3.8214,3.7853,3.8094,3.6529,0.0,0.0,0.0,0.0,0.0,0.0,0.0,0.0,0.0,0.0,0.0,0.0,0.0,0.0,0.0,0.0,0.0,0.0,0.0,0.0,0.0,0.0,0.0,0.0,3.9002,4.0996,4.3065,4.3851,4.5185,4.7823,4.8604,4.9123,4.9489,4.9926,5.009,4.9853,5.0795,5.1421,5.1477,5.2036,5.2279,5.2111,5.2279,5.2167,5.1775,5.1999,5.2155,5.2171,5.2416,5.2633,5.2822,5.2822,5.2822,0.0,5.2217,5.2011,5.2107,5.1737,5.1601,0.0,0.0,0.0,0.0,0.0,4.9869,5.0449,0.0,0.0,0.0,0.0,0.0,0.0,2.5947,2.655,2.7151,2.7385,3.1262,3.4646,3.6256,3.8679,4.0841,4.2402,3.8139,3.4915,3.3785,3.0958,2.9965,3.1414,3.5064,3.7739,3.9186,4.1427,4.2931,4.3701,4.3415,4.3617,4.4288,4.3921,4.4383,4.5471,4.4778,4.5821,4.822,4.9491,5.0254,5.0776,5.2973,5.2303,4.9576,4.5694,4.4676,4.5037,4.2615,4.086,3.9654,3.9389,0.0,0.0,0.0,0.0,0.0,0.0,0.0,0.0,0.0,0.0,0.0,0.0,0.0,0.0,0.0,0.0,0.0,0.0,0.0,0.0,0.0,0.0,0.0,0.0,4.1383,4.4222,4.7139,4.698,4.7253,4.9244,5.0108,5.0717,5.1131,5.1472,5.1549,5.1266,5.1796,5.1937,5.166,0.0,0.0,0.0,0.0,5.2395,5.1955,5.1992,5.2259,5.2788,5.2788,5.3019,5.3534,5.3477,5.3477,5.3477,5.2652,5.2157,5.185,5.141,5.0975,5.0727,5.1644,5.1472,5.0655,4.9858,5.0108,5.0823,0.0,0.0,0.0,0.0,0.0,0.0,2.5862,2.5727,2.6064,2.7303,3.1073,3.3606,3.3507,3.681,3.8879,3.8533,3.585,3.3497,3.1986,3.1612,3.2698,3.5504,3.7611,4.0107,4.2968,4.3793,4.4453,4.4948,4.5187,4.5388,4.5535,4.5462,4.573,4.6306,4.6494,4.7515,4.9057,4.9413,5.016,5.1337,5.333,5.2682,5.0407,4.9167,4.7978,4.6872,4.5469,4.5061,4.4924,4.3162,4.2658,4.2393,4.0186,3.8888,0.0,0.0,0.0,0.0,0.0,0.0,0.0,0.0,0.0,0.0,0.0,0.0,0.0,0.0,0.0,0.0,0.0,0.0,0.0,4.1518,4.4108,4.6579,4.8846,4.9521,5.0105,5.0973,5.1374,5.1777,5.2164,5.2536,5.2869,5.3126,5.3274,5.3476,5.3696,5.3842,0.0,5.3366,5.3421,5.3109,5.2358,5.2724,5.2778,5.2573,0.0,0.0,5.3196,5.2882,5.29,5.3177,5.2697,5.2706,5.3001,5.2219,5.1969,5.1946,5.1447,5.1193,5.0998,5.0827,5.0877,5.0996,0.0,0.0,0.0,0.0,0.0,0.0,2.54,2.5401,2.5631,2.6282,2.9366,3.1407,3.1157,3.3853,3.5238,3.4182,3.2258,3.1102,3.1116,3.2423,3.4733,3.8142,4.0473,4.2692,4.493,4.5572,4.5993,4.6195,4.6195,4.6177,4.6177,4.6177,4.6287,4.6536,4.6977,4.7448,4.7984,4.917,5.0362,5.1696,5.4271,5.5058,5.4536,5.2867,5.1586,5.0527,4.9469,4.8579,4.7738,4.6655,4.579,4.4796,4.2922,4.1461,4.0138,0.0,0.0,0.0,0.0,0.0,0.0,0.0,0.0,0.0,0.0,0.0,0.0,0.0,0.0,3.6047,0.0,0.0,4.1961,4.429,4.6714,4.8804,5.0258,5.1304,5.195,5.1959,5.2316,5.276,5.3311,5.3751,5.4026,5.4026,5.4172,5.4282,5.4282,5.4282,5.4117,5.3696,5.3897,5.3696,5.3091,5.3476,5.3586,5.3366,5.3219,5.3219,5.3366,5.2999,5.2925,5.3091,5.2687,5.2684,5.2897,5.2252,5.2041,5.2115,5.1462,5.1285,5.1347,5.0886,5.0862,5.1075,0.0,0.0,0.0,0.0,0.0,0.0,0.0,2.5229,2.5345,2.5006,2.7321,2.8993,2.891,3.0712,3.1433,3.0327,2.9452,2.969,3.1377,3.3835,3.6842,4.0492,4.3004,4.4856,4.5975,4.6654,4.6947,4.6874,4.6599,4.6525,4.6599,4.6599,4.6727,4.6965,4.7314,4.7314,4.7202,4.8966,5.025,5.1346,5.4308,5.6373,5.7513,5.5715,5.4935,5.4592,5.3461,5.1465,4.9397,4.9397,4.7978,4.6046,4.5205,4.4082,4.2693,4.0787,3.9441,0.0,0.0,0.0,0.0,0.0,0.0,0.0,0.0,0.0,3.5288,3.6352,3.727,3.8438,4.011,4.2673,4.5114,4.6903,4.9111,5.0853,5.155,5.2705,5.3329,5.3017,5.3274,5.3751,5.4428,5.4924,5.5071,5.4814,5.5034,5.5034,5.4704,5.4594,5.4337,5.3952,5.4227,5.4209,5.3805,5.4117,5.4282,5.4282,5.3952,5.3806,5.3677,5.3421,5.3274,5.3109,5.287,5.2706,5.267,5.2285,5.2065,5.1955,5.1587,5.1559,5.165,5.0684,5.065,5.0986,0.0,0.0,0.0,0.0,0.0,0.0,0.0,0.0,2.4791,2.4202,2.5951,2.7047,2.6461,2.8197,2.9078,2.8215,2.9929,3.1909,3.3872,3.6585,3.9754,4.3444,4.46,4.5553,4.6397,4.6507,4.6379,4.603,4.6324,4.6672,4.7039,4.7039,4.7607,4.8634,4.8689,4.8873,4.9148,4.9081,4.9095,4.9399,5.1558,5.3093,5.4343,5.6087,5.7313,5.7862,5.6347,5.351,5.0527,5.0527,4.9109,4.7305,4.7185,4.7016,4.6295,4.3319,4.1682,4.0431,3.8457,3.6667,3.5313,3.5244,3.4299,3.4141,0.0,0.0,3.6836,3.8477,3.9741,4.1101,4.2769,4.5086,4.7417,4.9386,5.1094,5.2412,5.2852,5.3971,5.4704,5.4649,5.4648,5.485,5.5326,5.5768,5.6153,5.6483,5.6208,5.6064,5.6009,5.5603,5.5179,5.4758,5.4814,5.4649,5.4227,5.4263,5.4282,5.4282,5.4227,5.4062,5.3696,5.4007,5.3806,5.3127,5.3421,5.3586,5.3531,5.3146,5.2779,5.2358,5.1973,5.186,5.1801,5.0976,5.0682,5.0678,0.0,0.0,0.0,0.0,0.0,0.0,0.0,0.0,2.4129,2.3715,2.4665,2.5168,2.4599,2.5554,2.6068,2.5719,2.8142,3.0809,3.3541,3.6768,4.0432,4.4618,4.5333,4.6122,4.7167,4.6965,4.6764,4.6599,4.6764,4.6929,4.7112,4.7571,4.8066,4.8561,4.9038,4.9349,4.9496,4.9331,4.9794,5.071,5.2148,5.3403,5.45,5.5208,5.5419,5.521,5.4068,5.2151,0.0,4.8968,4.7885,4.7103,4.8112,4.7154,4.5165,4.2645,4.0456,3.8435,3.668,3.5496,3.4854,3.5174,3.5238,3.5754,3.7802,3.8683,3.9531,4.1022,4.304,4.4985,4.636,4.8634,5.0615,0.0,5.3017,5.3971,5.4117,5.4594,5.4814,5.4594,5.4538,5.4924,5.5823,5.6101,5.6376,5.6761,5.6431,5.6211,5.6211,5.5768,5.5346,5.4924,5.5125,5.5071,5.4649,5.4868,5.5016,5.5016,5.4758,5.4538,5.4373,5.4318,5.4117,5.3787,5.3952,5.4062,5.4007,5.3641,5.3384,5.3164,5.2468,5.1387,5.0238,5.0821,5.1055,5.0791,0.0,0.0,0.0,0.0,0.0,0.0,0.0,0.0,0.0,0.0,2.3505,2.362,2.3499,2.3914,2.4202,2.4202,2.6673,2.9599,3.2811,3.642,4.0377,4.4783,4.5553,4.636,4.7332,4.7075,4.6874,4.6782,4.6874,4.7057,4.7277,4.7956,4.8469,4.8818,4.9404,4.9735,4.9845,4.9845,5.0489,5.1568,5.2286,5.3044,5.3724,5.3126,5.2122,5.1019,5.0478,4.9102,4.7325,4.5588,4.4561,4.434,4.6022,4.5046,4.2926,4.0977,3.8459,3.6026,3.4977,3.4698,3.4956,3.6057,3.6947,3.8025,3.9934,4.137,4.2697,4.4223,4.6342,4.8304,4.9514,5.1275,5.267,5.3329,5.4283,5.4905,5.5071,5.5089,5.4814,5.4062,5.3842,5.4228,5.5256,5.5731,5.6263,5.6908,5.6486,5.6266,5.6376,5.5823,5.5401,5.5089,5.5344,5.5344,5.5089,5.5344,5.5491,5.5491,5.5179,5.5034,5.4924,5.4503,5.4448,5.4593,5.4483,5.4503,5.4354,5.3304,5.281,5.2574,5.1217,4.9622,4.8202,4.9256,4.9531,4.9089,0.0,0.0,0.0,0.0,0.0,0.0,0.0,0.0,0.0,0.0,0.0,0.0,0.0,2.3914,2.4202,2.4202,2.6425,2.9188,3.2404,3.6017,3.985,4.394,4.526,4.6085,4.6555,4.6507,4.6305,4.592,4.6305,4.691,4.7681,4.8084,4.8928,5.0032,5.005,5.0321,5.0688,5.0688,5.0688,5.074,5.0792,5.0784,5.061,4.9473,4.7915,4.6311,4.6206,4.4483,4.1955,4.0079,3.8746,3.813,3.9605,4.0356,4.0366,3.8699,3.6303,3.418,3.4125,3.4489,3.5547,3.831,3.94,4.0713,4.4294,4.5455,4.6287,4.8322,4.9423,5.0361,5.157,5.2157,5.2907,5.4062,5.4593,5.5015,5.5436,5.5491,5.4924,5.3329,5.2815,5.2742,0.0,5.4593,5.6022,5.7272,5.663,5.6376,5.6761,5.5988,5.5491,5.5491,5.5491,5.5491,5.5491,5.5491,5.5491,5.5491,5.5491,5.5271,5.4924,5.4503,5.4703,5.5436,5.5071,5.4868,5.4644,5.194,5.0582,4.9941,4.7169,4.6053,4.5949,4.5599,4.5058,4.4484,0.0,0.0,0.0,0.0,0.0,0.0,0.0,0.0,0.0,0.0,0.0,0.0,0.0,0.0,0.0,0.0,2.5921,2.8132,3.0827,3.466,3.8144,4.1176,4.3463,4.4875,4.5325,4.5553,4.5883,4.6287,4.669,4.7167,4.7717,4.8377,4.9056,4.9735,5.001,5.0306,5.0725,5.0725,5.0578,5.0285,4.9735,4.9007,4.8062,4.6059,4.3722,4.1102,0.0,3.7523,3.7285,3.5493,3.4893,3.5232,3.7179,3.7374,3.6403,3.4075,3.3215,3.3153,3.3757,3.5762,3.8254,4.0637,4.2536,4.4462,4.6771,4.8017,4.8964,4.9918,4.99,4.9918,5.0563,5.1003,5.1589,5.2541,5.4154,5.5344,5.5491,5.5988,5.5456,5.3017,5.2614,0.0,0.0,0.0,0.0,5.6486,5.6043,5.5933,5.6376,5.5823,5.5491,5.5491,5.5491,5.5491,5.5491,5.5823,5.5823,5.5491,5.5491,5.5436,5.5289,5.5181,5.5234,5.5416,5.3636,5.2737,5.2268,4.9598,4.8211,4.7576,4.6597,4.5021,4.3252,4.3105,4.1635,3.9959,0.0,0.0,0.0,0.0,0.0,0.0,0.0,0.0,0.0,0.0,0.0,0.0,0.0,0.0,0.0,0.0,0.0,2.6903,2.9177,3.2166,3.5081,3.7816,3.9795,4.117,4.1849,4.1996,4.2582,4.3683,4.4086,4.4875,4.5993,4.68,4.7552,4.8231,4.8634,4.9056,4.9423,4.9258,4.8726,4.7901,4.7075,4.559,4.3609,4.1335,3.8669,0.0,3.2615,3.1808,3.2057,3.1229,3.1171,3.1751,3.3455,3.3568,3.2833,3.1707,3.2225,3.3576,3.5466,3.8282,4.1239,4.3617,4.57,4.7571,4.9038,5.0101,5.0673,5.049,4.9863,4.9203,4.8891,4.8689,4.9111,5.0798,5.2431,5.4007,5.5326,5.5511,5.4778,5.2944,5.2229,5.1733,0.0,0.0,0.0,5.5346,5.5236,5.5346,5.5933,5.5656,5.5491,5.5491,5.5491,5.5546,5.5768,5.5878,5.5823,5.5491,5.5491,5.5016,5.4197,5.4197,5.3663,5.2707,5.1145,5.0213,4.9731,4.7072,4.5654,4.5072,4.4034,4.2493,4.086,4.0803,3.9595,3.8184,0.0,0.0,0.0,0.0,0.0,0.0,0.0,0.0,0.0,0.0,0.0,0.0,0.0,0.0,0.0,0.0,0.0,0.0,2.7536,2.884,3.0932,3.3982,3.466,3.5467,3.6621,3.6347,3.6915,3.8508,3.8893,4.0308,4.2681,4.3389,4.4398,4.5572,4.592,4.6324,4.6709,4.6305,4.5223,4.3738,4.2957,4.0694,3.7686,3.5669,3.323,3.0589,2.9012,2.7673,2.6756,2.7518,2.783,2.805,2.8858,2.9427,3.0106,3.1689,3.3376,3.5485,3.9101,4.191,4.4453,4.7204,4.8781,4.9955,5.1128,5.1589,5.1479,5.027,4.9313,4.8139,0.0,0.0,4.5645,4.8836,4.9863,5.1495,5.5015,5.4283,5.3274,0.0,0.0,0.0,0.0,0.0,0.0,5.4172,0.0,5.4648,5.5491,5.5546,5.5546,5.5546,5.5546,5.5768,5.6229,5.5768,5.5546,5.5546,5.5395,5.41,5.18,5.1643,5.0297,4.7998,4.7849,4.7541,4.7019,4.4294,4.2978,4.2353,3.974,3.8846,3.902,3.8798,3.8806,3.8873,0.0,0.0,0.0,0.0,0.0,0.0,0.0,0.0,0.0,0.0,0.0,0.0,0.0,0.0,0.0,0.0,0.0,0.0,2.5921,2.772,2.9195,3.0314,3.2771,3.424,3.4568,3.5357,3.6237,3.7263,3.7354,3.8032,3.9245,3.9153,3.9758,4.0914,4.0688,4.0982,4.1666,4.1555,4.095,3.9919,3.9135,3.7778,3.6072,3.4625,3.2735,3.0662,2.9666,2.8528,2.7481,2.7389,2.8362,2.9672,3.0167,3.1231,3.2551,3.3837,3.6476,3.9505,4.1904,4.5205,4.8359,4.9973,5.1073,5.1917,5.2522,5.1807,5.0688,4.9478,4.691,4.438,4.2791,4.3232,0.0,4.6874,5.012,0.0,5.5676,5.6153,0.0,5.4594,0.0,5.3329,5.3091,5.2834,0.0,0.0,5.4503,5.4814,5.5933,5.6321,5.6318,5.6064,5.63,5.6541,5.6651,5.6208,5.5988,5.5988,5.3805,5.2436,5.1725,4.983,4.8628,4.7865,4.5747,4.468,4.4221,4.1655,4.025,3.971,3.9205,3.878,3.8477,3.8397,3.829,3.8076,0.0,0.0,0.0,0.0,0.0,0.0,0.0,0.0,0.0,0.0,0.0,0.0,0.0,0.0,0.0,0.0,0.0,0.0,0.0,2.5611,2.6609,2.7389,2.8792,2.9819,3.0382,3.0699,3.1689,3.3395,3.3028,3.3725,3.5375,3.5155,3.5559,3.6566,3.6695,3.7098,3.7666,3.7521,3.6787,0.0,0.0,3.3688,3.2349,3.1488,3.0461,2.9427,2.8968,2.8711,2.8656,2.9122,3.0167,3.1451,3.2551,3.3908,3.5486,3.7796,4.029,4.2957,4.5663,4.8689,5.1293,5.2155,5.267,5.2688,5.155,5.0431,4.8799,4.5828,4.3298,4.0969,3.8805,4.0033,4.2142,4.4508,0.0,0.0,5.5456,5.6153,5.6153,0.0,5.5179,0.0,5.4483,5.4282,5.4594,0.0,5.5034,5.5034,5.6156,5.6431,5.6541,5.6486,5.6688,5.6706,5.6541,5.5348,5.4627,5.4249,5.1479,4.9555,4.8441,4.6953,4.5753,4.4639,0.0,4.215,4.181,4.0233,3.9287,3.8905,3.8886,3.8838,3.8651,3.8504,3.8357,3.8143,0.0,0.0,0.0,0.0,0.0,0.0,0.0,0.0,0.0,0.0,0.0,0.0,0.0,0.0,0.0,0.0,0.0,0.0,0.0,0.0,2.4017,2.5186,2.4617,2.4771,2.5837,2.5205,2.6086,2.8528,2.783,2.8803,3.1286,3.1231,3.1671,3.2533,3.3156,3.367,3.4002,3.367,3.268,3.1304,3.0644,2.9525,2.8205,0.0,2.7885,2.7885,2.794,2.8601,2.9758,3.1726,3.2735,3.3505,3.554,3.7154,3.8988,4.2417,4.4407,4.614,4.9533,5.1917,5.3494,5.3696,5.3641,5.2706,4.9624,4.8176,4.6085,4.1152,3.9318,3.7776,3.5229,3.6823,3.9498,4.2589,4.6727,5.1,5.5015,5.5401,5.5676,5.6908,5.6355,5.5912,5.5967,5.5912,5.6245,5.696,5.5954,5.5511,5.6266,5.6376,5.6596,5.6963,5.6963,5.6587,5.5819,5.3935,5.2435,5.1345,4.8751,4.6331,4.4176,4.3832,4.2541,4.0481,0.0,0.0,3.99,3.9666,3.9313,3.902,3.8766,3.8865,3.902,3.8766,3.8718,3.8593,0.0,0.0,0.0,0.0,0.0,0.0,0.0,0.0,0.0,0.0,2.2455,2.2136,0.0,0.0,0.0,0.0,0.0,0.0,0.0,0.0,0.0,2.4385,2.4581,2.4801,2.5003,2.5205,2.5535,2.6031,2.5884,2.6416,2.7526,2.7206,2.7646,2.8729,2.8546,2.8674,2.9042,2.8968,2.8601,2.8069,2.8252,2.7958,2.7481,2.8058,0.0,0.0,2.8674,2.8729,2.9195,3.3141,3.5174,3.642,3.8514,4.0901,4.3389,4.57,4.7699,4.9606,5.1534,5.3531,5.4905,5.4318,5.3421,5.2064,4.9496,4.6012,4.2399,3.9116,3.6732,3.4899,3.3709,3.6017,3.9392,4.3243,4.7332,5.144,5.5531,5.6575,5.7272,0.0,5.817,5.8207,5.8537,0.0,0.0,0.0,0.0,5.6908,5.6706,5.733,5.7694,5.7808,5.7808,5.6523,5.3927,5.3329,5.1636,4.8944,4.6202,4.4639,4.4102,4.2073,4.0879,4.0468,4.0214,0.0,3.964,3.9346,3.8993,3.874,3.87,3.8758,3.874,3.87,3.8718,3.8593,0.0,0.0,0.0,0.0,0.0,0.0,0.0,2.3949,2.404,2.4305,2.3846,2.3465,2.3327,2.2706,2.234,0.0,0.0,0.0,0.0,0.0,0.0,2.3822,2.425,2.4489,2.4489,2.4698,2.4966,2.5388,0.0,2.5499,2.6288,2.6086,2.6315,2.6857,2.6894,2.7004,2.7187,2.7389,2.7371,2.7243,2.7628,2.7812,2.7885,2.8242,0.0,0.0,2.8682,2.9085,3.0039,3.2588,3.5486,3.8545,4.1488,4.4205,4.6635,4.8451,5.012,5.168,5.3329,5.4758,5.5713,5.507,5.3219,5.056,4.6654,4.2986,3.9153,3.4844,3.3358,3.2514,3.1506,3.466,3.827,4.1097,4.4783,4.8928,5.3604,5.4448,5.5456,5.7969,5.828,5.856,0.0,5.8647,0.0,0.0,0.0,5.7441,5.7441,5.7808,5.7355,5.5986,5.5926,5.4412,5.1182,4.9743,4.8074,4.619,4.3545,4.224,4.224,4.1027,4.0481,4.0468,4.0147,0.0,3.9559,3.9265,3.8913,3.8718,3.8718,3.8718,3.8718,3.8718,3.8611,3.8397,0.0,0.0,0.0,0.0,0.0,0.0,0.0,2.4899,2.5229,2.5438,2.5312,2.4951,2.4447,2.356,2.3013,0.0,0.0,0.0,0.0,0.0,0.0,0.0,0.0,0.0,2.4202,0.0,0.0,0.0,2.4819,0.0,0.0,0.0,0.0,0.0,2.6472,2.6591,2.6609,2.6949,2.7077,0.0,0.0,2.7922,0.0,0.0,0.0,0.0,0.0,2.914,3.0382,3.1689,3.4825,3.8765,4.2289,4.5627,4.8561,5.0028,5.1568,5.3036,5.4483,5.5566,5.6098,5.5346,5.2615,4.8891,4.3884,4.007,3.6163,3.1231,3.0626,3.0767,2.9904,3.3248,3.6786,3.8747,4.2014,4.6085,5.1275,5.2285,5.3916,5.7606,5.828,0.0,5.9399,5.8702,0.0,0.0,0.0,0.0,5.7013,5.6899,5.5767,5.3222,5.3178,5.1589,4.8389,4.6328,4.4681,4.3439,4.1464,4.0481,4.0481,4.0481,4.0481,4.0468,4.0147,0.0,0.0,3.9265,3.8913,3.8718,3.8718,3.8718,3.8718,3.8718,3.8504,3.8281,0.0,0.0,0.0,0.0,0.0,0.0,0.0,2.5515,2.5811,2.6325,2.6355,2.6316,2.6257,2.4744,2.3714,0.0,0.0,0.0,0.0,0.0,0.0,0.0,0.0,0.0,0.0,0.0,0.0,0.0,0.0,0.0,0.0,0.0,0.0,0.0,0.0,0.0,2.6591,2.6628,0.0,0.0,0.0,0.0,0.0,0.0,0.0,0.0,0.0,2.8271,2.8528,3.1524,3.356,3.5357,3.8234,4.3371,4.8451,4.9349,5.1513,5.3806,5.4648,5.5786,5.6263,5.4337,5.1183,4.7424,4.3324,3.8144,3.3486,3.0772,2.9947,2.9849,3.0094,3.2313,3.5064,3.816,4.1134,4.4746,4.9661,5.278,5.5456,5.7753,0.0,0.0,6.0298,5.9546,0.0,0.0,0.0,0.0,5.3853,5.3484,5.2394,5.0508,5.0447,4.9063,4.601,4.5546,4.3911,4.1209,4.0723,4.0481,4.0481,4.0481,4.0481,4.0468,4.0147,0.0,0.0,3.9265,3.8913,3.8718,3.8718,3.8718,3.8718,3.8718,3.8504,3.8281,0.0,0.0,0.0,0.0,0.0,0.0,2.5878,2.6245,2.6534,2.6875,2.7151,2.7126,2.6569,2.6112,2.5484,2.4551,0.0,0.0,0.0,0.0,0.0,0.0,0.0,0.0,0.0,0.0,0.0,2.4202,0.0,0.0,0.0,0.0,0.0,0.0,0.0,0.0,0.0,2.6912,0.0,0.0,0.0,0.0,0.0,0.0,0.0,0.0,0.0,0.0,2.8656,2.9445,3.1469,3.3762,3.413,3.7888,4.2784,4.6305,4.9001,5.1385,5.3842,5.5234,5.5713,5.4373,5.0615,4.614,4.2149,3.6989,3.2258,2.9372,2.9023,2.9195,2.9122,3.0901,3.3232,3.598,3.7007,3.9465,4.5315,4.724,4.9881,5.4814,5.663,0.0,0.0,0.0,0.0,0.0,0.0,0.0,5.104,5.097,4.9951,4.7815,4.7571,4.6022,4.3095,4.2804,4.201,4.0655,4.0548,4.0481,4.0481,4.0481,4.0481,4.0441,3.996,0.0,0.0,3.9092,3.878,3.8718,3.8718,3.8718,3.8718,3.8718,3.8504,3.8281,0.0,0.0,0.0,0.0,0.0,2.5577,2.6349,2.6728,2.7047,2.7512,2.778,2.7658,2.7003,2.7083,2.6775,2.5674,2.5105,0.0,0.0,0.0,0.0,0.0,0.0,0.0,0.0,0.0,2.475,2.4529,2.523,0.0,0.0,0.0,0.0,0.0,0.0,0.0,0.0,0.0,0.0,0.0,0.0,0.0,0.0,0.0,0.0,0.0,0.0,0.0,0.0,0.0,0.0,3.1836,3.1102,3.3175,3.6952,4.2472,4.6122,4.9074,5.2175,5.4062,5.4924,5.3842,4.9845,4.5077,4.1024,3.6017,3.1414,2.8564,2.8528,2.8895,2.8462,3.0149,3.2151,3.3983,3.4496,3.6677,4.2344,4.3756,4.6269,5.1772,0.0,5.5546,0.0,0.0,0.0,0.0,0.0,0.0,4.8369,4.762,4.647,4.4929,4.4567,4.3376,4.1203,4.0909,4.0695,4.0481,4.0481,4.0481,4.0481,4.0481,4.0441,4.0321,0.0,0.0,0.0,3.8886,3.8718,3.8718,3.8718,3.8651,3.8584,3.8584,3.833,3.8026,0.0,0.0,0.0,0.0,0.0,0.0,2.6729,2.6898,2.7282,2.8358,2.8143,2.7901,2.7881,2.7493,2.7205,2.7185,2.7165,0.0,0.0,0.0,0.0,0.0,0.0,0.0,0.0,0.0,2.6095,2.5294,2.5687,2.621,2.689,0.0,0.0,0.0,0.0,0.0,0.0,0.0,0.0,0.0,0.0,0.0,2.7623,0.0,0.0,0.0,0.0,0.0,0.0,0.0,0.0,0.0,0.0,3.0198,3.2056,3.8108,4.3316,4.7571,4.9574,5.2157,5.3897,5.2303,4.8616,4.4251,4.0139,3.5174,3.0859,2.881,2.87,2.8895,2.8462,3.0369,3.2129,3.2551,3.4972,3.805,4.1776,4.4361,4.6782,4.9258,0.0,5.2706,5.4759,0.0,0.0,0.0,0.0,0.0,4.5731,4.2958,4.1559,4.1853,4.1497,4.1203,4.0909,4.0615,4.0481,4.0481,4.0481,4.0481,4.0481,4.0481,4.0321,0.0,0.0,0.0,0.0,3.8838,3.8718,3.8718,3.8718,3.8544,3.8321,3.8321,3.7889,3.7382,0.0,0.0,0.0,0.0,0.0,0.0,0.0,2.6898,2.7301,2.8358,2.8403,2.8203,2.7921,2.7998,2.7857,2.7246,2.7205,0.0,0.0,0.0,0.0,0.0,0.0,0.0,0.0,0.0,2.7345,2.7084,2.7847,2.833,2.857,2.9505,2.9745,0.0,0.0,0.0,0.0,0.0,0.0,0.0,0.0,2.7467,2.7477,0.0,0.0,0.0,0.0,0.0,0.0,0.0,0.0,0.0,0.0,0.0,0.0,3.3248,3.7503,4.1843,4.4471,4.6415,4.7351,4.5737,4.3023,3.9864,3.6659,3.3156,3.0075,2.8362,2.8326,2.8535,2.8407,2.9452,3.1194,3.3835,3.477,3.6549,4.0492,4.3609,4.5892,4.6991,5.005,5.2355,0.0,0.0,0.0,0.0,0.0,0.0,4.5623,4.2702,4.1163,4.1421,4.1203,4.0909,4.0615,4.0107,4.008,4.0481,4.0254,4.0294,4.0481,4.0481,0.0,0.0,0.0,0.0,0.0,3.8838,3.8718,3.8718,3.8718,3.8544,3.8321,3.8321,3.7996,3.7676,0.0,0.0,0.0,0.0,0.0,0.0,0.0,2.6772,2.721,2.807,2.8358,2.8403,2.8143,2.8363,2.8279,2.7733,2.7693,0.0,0.0,0.0,0.0,0.0,0.0,0.0,0.0,2.8494,2.8524,2.8638,2.9589,3.0113,3.0237,3.1287,3.1344,3.0593,3.1535,0.0,0.0,0.0,0.0,0.0,2.758,2.7584,2.7568,0.0,0.0,0.0,0.0,0.0,0.0,0.0,0.0,0.0,0.0,0.0,0.0,0.0,3.3303,3.6621,4.0107,4.2142,4.3103,4.2112,3.9978,3.7409,3.4605,3.1891,2.9544,2.8105,2.8124,2.848,2.8792,2.9647,3.1024,3.3285,3.433,3.5685,3.8114,4.1293,4.3761,4.4861,0.0,0.0,0.0,0.0,0.0,0.0,0.0,0.0,0.0,4.1957,4.0949,4.1016,4.0722,4.0508,4.0321,3.9853,3.9746,3.996,3.9893,3.9853,3.9813,4.004,0.0,0.0,0.0,0.0,0.0,3.8798,3.8718,3.8718,3.8718,3.8464,3.8133,3.8133,3.7889,3.7635,0.0,0.0,0.0,0.0,0.0,0.0,0.0,2.6556,2.709,2.7637,2.8166,2.8502,2.8502,2.8502,2.8502,2.8502,0.0,0.0,0.0,0.0,0.0,0.0,0.0,0.0,2.9009,2.9323,2.967,3.0041,3.102,3.1632,3.1946,3.2667,3.2574,3.1804,3.2829,3.2311,0.0,0.0,0.0,0.0,2.7827,2.7895,0.0,0.0,0.0,0.0,0.0,0.0,0.0,0.0,0.0,0.0,0.0,0.0,0.0,0.0,0.0,0.0,0.0,3.8878,4.0442,4.035,3.8585,3.6182,3.3507,3.1157,0.0,2.8069,2.8142,2.8663,2.9574,3.0584,3.1373,3.1703,3.3908,3.553,3.5282,3.8029,0.0,0.0,4.5248,0.0,0.0,0.0,0.0,0.0,0.0,0.0,0.0,4.0909,4.0762,4.0542,4.0147,3.996,3.996,3.9666,3.9353,3.906,3.9386,3.9239,3.87,3.9279,0.0,0.0,0.0,0.0,0.0,3.8718,3.8718,3.8718,3.8691,3.833,3.7809,3.7782,3.7635,3.7422,0.0,0.0,0.0,0.0,0.0,0.0,0.0,0.0,0.0,0.0,2.8166,2.8502,2.8502,2.8502,2.8502,0.0,0.0,0.0,0.0,0.0,0.0,0.0,0.0,0.0,2.9213,3.0105,3.0798,3.1259,3.2677,3.3597,3.4072,3.4661,3.4401,3.3457,3.3696,3.2481,0.0,0.0,0.0,0.0,2.7584,2.776,0.0,0.0,0.0,0.0,2.6989,2.7022,0.0,0.0,0.0,0.0,0.0,0.0,0.0,0.0,2.9415,2.9855,3.1226,0.0,3.3908,3.2991,3.2331,3.1561,0.0,2.9544,2.8957,2.837,2.8333,2.892,3.0675,3.0455,3.1134,3.4513,3.5375,3.5856,3.6545,3.8448,0.0,4.4031,4.4306,0.0,0.0,0.0,0.0,0.0,0.0,4.1537,0.0,4.0909,4.0762,4.0542,3.9746,3.9313,3.9313,3.9033,3.8846,3.8766,3.8651,3.8624,3.8718,3.8865,0.0,0.0,0.0,0.0,3.8718,3.8718,3.8718,3.8691,3.8477,3.8143,3.7782,3.7569,3.7595,3.7702,0.0,0.0,0.0,0.0,0.0,0.0,0.0,0.0,0.0,0.0,0.0,2.8502,2.8502,2.8502,0.0,0.0,0.0,0.0,0.0,0.0,0.0,0.0,0.0,2.8807,2.9292,3.0107,3.1045,3.208,3.3357,3.4414,3.5183,3.5448,3.5015,3.3958,3.2794,3.146,0.0,0.0,0.0,2.7392,2.7393,0.0,0.0,0.0,0.0,0.0,2.7098,2.6975,0.0,2.7389,2.7665,2.7948,0.0,0.0,0.0,0.0,2.9005,2.906,2.928,3.0106,3.0827,3.0552,3.0185,2.98,2.9372,2.9005,2.8645,2.8443,2.8388,2.8902,3.0534,2.9892,3.0041,3.2879,3.3463,3.4368,3.6672,0.0,3.9657,4.2972,4.308,0.0,0.0,0.0,0.0,0.0,0.0,0.0,0.0,4.0508,4.026,3.9893,3.9265,3.8945,3.8945,3.8651,3.837,3.8103,3.8223,3.8143,3.7859,3.8464,3.8504,0.0,0.0,0.0,3.8259,3.8259,3.8397,3.8477,3.8183,3.7956,3.7782,3.7489,3.7489,3.7635,0.0,0.0,0.0,0.0,0.0,0.0,0.0,0.0,0.0,0.0,0.0,0.0,0.0,0.0,0.0,0.0,0.0,0.0,0.0,0.0,0.0,0.0,2.8502,2.8763,2.9292,2.9821,3.0853,3.237,3.3621,3.4727,3.5592,3.5928,3.5376,3.403,3.1621,3.0329,0.0,0.0,0.0,2.7521,2.7091,0.0,0.0,0.0,0.0,0.0,0.0,0.0,0.0,2.7077,2.7243,2.7426,2.815,0.0,0.0,0.0,0.0,0.0,2.9214,2.9537,2.9904,3.0387,3.0033,2.9519,2.9519,2.8975,2.848,2.848,2.8535,2.8916,3.0002,2.9669,2.9454,3.02,3.0975,3.281,3.6781,3.7206,3.8259,4.131,4.2031,0.0,0.0,0.0,0.0,0.0,0.0,0.0,0.0,3.9967,3.9687,3.906,3.8798,3.8584,3.8406,3.8281,3.7823,3.7195,3.7742,3.7595,3.6901,3.7956,3.8063,0.0,0.0,0.0,3.7809,3.7809,3.7969,3.82,3.7849,3.7742,3.7702,3.7422,3.7342,3.7478,0.0,0.0,0.0,0.0,0.0,0.0,0.0,0.0,0.0,0.0,0.0,0.0,0.0,0.0,0.0,0.0,0.0,0.0,0.0,0.0,0.0,2.8502,2.8502,2.8763,2.9292,2.9821,3.066,3.1815,3.4198,3.5424,3.564,3.7443,3.701,3.4607,3.2906,3.095,2.8912,0.0,0.0,2.6054,2.6383,0.0,0.0,0.0,0.0,0.0,0.0,0.0,0.0,2.7077,2.7426,2.7793,2.8242,0.0,0.0,0.0,0.0,0.0,3.0272,3.0552,3.0387,2.9519,2.9188,2.9097,2.9097,2.9005,2.8931,2.8931,2.9188,2.9578,3.0174,3.1494,3.2333,3.1922,3.258,3.457,0.0,0.0,3.9092,4.0842,0.0,0.0,0.0,0.0,0.0,0.0,0.0,0.0,0.0,3.9967,3.9607,3.8766,3.8477,3.7969,3.7166,3.7422,3.7088,3.6273,3.662,3.6687,3.658,3.7008,3.7275,0.0,0.0,3.7635,3.7809,3.7809,3.7849,3.7849,3.7569,3.7448,3.7422,3.7128,3.7155,3.7462,0.0,0.0,0.0,0.0,0.0,0.0,0.0,0.0,0.0,0.0,0.0,0.0,0.0,0.0,0.0,0.0,0.0,0.0,0.0,0.0,2.8643,2.8931,2.8931,2.9051,2.9292,3.0395,3.1623,3.2947,3.5304,3.6771,3.7322,3.7154,3.6097,3.4294,3.2203,3.0604,2.9441,2.8355,2.7366,2.6476,0.0,0.0,0.0,0.0,0.0,0.0,0.0,0.0,0.0,0.0,2.7151,2.7555,2.7958,0.0,0.0,0.0,0.0,0.0,2.9629,2.9519,2.9317,2.9849,3.0143,2.9963,2.8791,2.85,2.8654,2.9079,2.9132,2.9459,3.0583,3.1372,3.1896,3.2134,0.0,3.5313,3.7797,3.8617,0.0,0.0,0.0,0.0,0.0,0.0,0.0,0.0,0.0,0.0,0.0,0.0,3.91,3.825,3.8103,3.7529,3.6473,3.662,3.6473,3.6072,3.6366,3.6433,3.6286,3.6727,3.6885,3.6914,0.0,3.7179,3.7286,3.7286,3.7392,3.7555,3.7261,3.7235,3.7382,3.7235,3.7382,3.7676,0.0,0.0,0.0,0.0,0.0,0.0,0.0,0.0,0.0,0.0,0.0,0.0,0.0,0.0,0.0,0.0,0.0,0.0,0.0,0.0,2.8671,2.91,2.9244,2.9484,2.9845,3.131,3.2827,3.4366,3.6651,3.819,3.8933,3.6649,3.5015,3.391,3.1713,3.0398,2.9738,2.8215,2.7295,2.6771,0.0,0.0,0.0,0.0,0.0,0.0,0.0,0.0,0.0,0.0,0.0,0.0,0.0,0.0,0.0,2.8865,2.87,2.8535,2.9243,2.884,2.8619,3.0241,3.062,3.023,2.9047,2.8556,2.8563,2.9278,2.926,2.9407,3.0372,3.0654,3.1298,3.3078,3.4765,3.6273,3.7539,0.0,0.0,0.0,0.0,0.0,0.0,0.0,0.0,0.0,0.0,0.0,0.0,0.0,3.8553,3.7793,3.7676,3.7128,3.6086,3.6006,3.5939,3.5872,3.6166,3.6219,3.614,3.6607,3.6754,3.662,3.6834,3.6885,3.6885,3.6885,3.7032,3.7275,3.7008,3.7088,3.7275,3.7275,3.7448,3.7702,0.0,0.0,0.0,0.0,0.0,0.0,0.0,0.0,0.0,0.0,0.0,0.0,0.0,0.0,0.0,0.0,0.0,0.0,0.0,0.0,2.8522,2.857,2.9027,3.001,3.1478,3.2634,3.3933,3.5472,3.8142,3.9465,3.9489,3.6818,3.5015,3.3934,3.2831,3.1019,2.8796,2.8657,2.7508,2.5795,2.5742,0.0,0.0,0.0,0.0,0.0,0.0,0.0,0.0,0.0,0.0,0.0,0.0,0.0,2.8462,2.8865,2.87,2.8718,3.0241,3.0088,2.9592,3.0112,2.9122,2.8528,3.0361,2.9866,2.9186,2.9717,3.0133,3.0023,2.8797,2.9774,3.22,3.6442,3.7384,3.8223,0.0,0.0,0.0,0.0,0.0,0.0,0.0,0.0,0.0,0.0,0.0,0.0,0.0,0.0,0.0,3.7809,3.7246,3.6687,3.614,3.5805,3.5525,3.5257,3.5551,3.5819,3.6086,3.6393,3.6632,3.6845,3.6885,3.6885,3.6885,3.6885,3.6885,3.6912,3.6885,3.6885,3.6925,3.6925,3.7155,3.7422,0.0,0.0,0.0,0.0,0.0,0.0,0.0,0.0,0.0,0.0,0.0,0.0,0.0,0.0,0.0,0.0,0.0,0.0,0.0,2.8502,2.8667,2.8979,2.9508,3.0395,3.1671,3.3693,3.5689,3.7587,3.9272,3.9753,3.9029,3.6361,3.4535,3.3525,3.2489,3.1124,2.9624,2.9624,2.8471,2.6624,2.6624,2.6163,0.0,0.0,0.0,0.0,0.0,0.0,0.0,0.0,2.6875,2.7224,2.7389,2.7885,2.8425,2.8572,2.8344,2.8215,2.9067,2.851,2.8188,3.0405,2.9722,2.8592,2.9031,3.0029,3.0833,3.089,3.1144,3.1351,3.1527,3.2327,3.3802,3.6454,3.8005,3.9279,0.0,0.0,0.0,0.0,0.0,0.0,0.0,0.0,0.0,0.0,0.0,0.0,0.0,0.0,0.0,3.7275,3.6992,3.6525,3.5805,3.5685,3.5485,3.5191,3.5311,3.5418,3.5538,3.5645,3.5952,3.6393,3.6393,3.6607,3.6885,3.6885,3.6885,3.6885,3.6885,3.6885,3.6912,3.7155,3.7275,3.7382,0.0,0.0,0.0,0.0,0.0,0.0,0.0,0.0,0.0,0.0,0.0,0.0,0.0,0.0,0.0,0.0,0.0,0.0,2.8502,2.8502,2.8667,2.9027,2.9556,3.0516,3.1912,3.4342,3.6579,3.8551,3.9801,3.9681,3.8262,3.5904,3.4246,3.326,3.2369,3.1375,3.0422,3.0102,2.8903,2.7155,2.6771,2.6071,0.0,0.0,0.0,0.0,0.0,0.0,0.0,0.0,2.6774,2.7041,2.7169,2.7665,2.8215,2.8215,2.7755,2.7287,2.7575,2.6918,2.6683,2.8909,2.9411,2.9272,2.8829,3.056,3.22,3.211,3.1989,3.2239,3.3252,3.3841,0.0,0.0,3.8397,0.0,0.0,0.0,0.0,0.0,0.0,0.0,0.0,0.0,0.0,0.0,0.0,0.0,0.0,0.0,0.0,0.0,3.6607,3.6178,3.5631,3.5444,3.5297,3.5191,3.5097,3.5151,3.5338,3.5431,3.5738,3.6219,3.6313,3.658,3.6885,3.6885,3.6885,3.6885,3.6885,3.6885,3.6912,3.7155,3.7235,3.7235,0.0,0.0,0.0,0.0,0.0,0.0,0.0,0.0,0.0,0.0,0.0,0.0,0.0,0.0,0.0,0.0,0.0,0.0,2.8502,2.8502,2.8502,2.8502,2.9003,3.0302,3.2442,3.4535,3.6386,3.8024,3.9585,3.9272,3.7132,3.552,3.427,3.326,3.2755,3.1966,3.095,2.9943,2.8619,2.7105,2.5824,2.5308,2.5235,0.0,0.0,0.0,0.0,0.0,0.0,0.0,2.6591,2.6664,2.7077,2.7463,2.7793,2.7793,2.6957,2.6019,2.6019,2.5703,2.5386,2.5354,2.7899,3.0392,3.0415,3.1707,3.2991,3.3347,3.2746,3.2398,3.3267,3.3694,0.0,0.0,0.0,0.0,0.0,0.0,0.0,0.0,0.0,0.0,0.0,0.0,0.0,0.0,0.0,0.0,0.0,0.0,0.0,0.0,3.5925,3.5565,3.5565,3.5044,3.491,3.5191,3.4897,3.5057,3.5631,3.5925,3.6219,3.6513,3.6794,3.6885,3.6885,3.6885,3.6885,3.6885,3.6885,3.6885,3.6885,3.6885,3.6885,3.6885,0.0,0.0,0.0,0.0,0.0,0.0,0.0,0.0,0.0,0.0,0.0,0.0,0.0,0.0,0.0,0.0,0.0,0.0,2.8502,2.8502,2.8502,2.8502,2.9003,2.9773,3.0783,3.3213,3.5808,3.8575,3.8647,3.7421,3.4943,3.4462,3.3693,3.2755,3.3309,3.3002,3.1988,3.0997,2.9561,2.7864,2.6771,2.5708,2.4701,0.0,0.0,0.0,0.0,0.0,0.0,0.0,0.0,0.0,2.6719,2.7261,2.7738,2.7463,2.7318,2.7261,2.7261,2.6094,2.5434,2.7652,2.877,2.9871,3.183,3.3035,3.3945,3.4787,3.4763,3.4603,3.4656,3.5418,0.0,0.0,0.0,0.0,0.0,0.0,0.0,0.0,0.0,0.0,0.0,0.0,0.0,0.0,0.0,0.0,0.0,0.0,0.0,0.0,3.511,3.4923,3.471,3.4536,3.4496,3.4576,3.4496,3.4763,3.5324,3.5418,3.5725,3.6206,3.6286,3.658,3.6885,3.6885,3.6885,3.6885,3.6885,3.6885,3.6885,3.6885,3.6885,3.6885,0.0,0.0,0.0,0.0,0.0,0.0,0.0,0.0,0.0,0.0,2.6748,2.7349,0.0,0.0,0.0,0.0,0.0,0.0,0.0,2.8502,2.8502,2.8502,2.9003,2.9845,3.1023,3.3405,3.528,3.6627,3.6892,3.5905,3.3717,3.4126,3.3886,3.3141,3.4174,3.4054,3.3046,3.2043,3.0453,2.8468,2.7486,2.6266,2.5007,0.0,0.0,0.0,0.0,0.0,0.0,0.0,0.0,0.0,2.6591,2.7041,2.7397,2.6503,2.6264,2.6146,2.5501,2.4882,2.4909,2.6966,2.8357,2.9941,3.2593,3.422,3.5419,3.6275,3.6219,3.5992,3.6059,3.6433,0.0,0.0,0.0,0.0,0.0,0.0,0.0,0.0,0.0,0.0,0.0,0.0,0.0,0.0,0.0,0.0,0.0,0.0,0.0,0.0,3.4589,3.4496,3.4322,3.4202,3.4202,3.4322,3.4202,3.4389,3.4857,3.4977,3.5217,3.5618,3.5792,3.6166,3.6607,3.6727,3.6754,3.6739,3.6845,3.6805,3.6754,3.6754,3.6687,3.658,0.0,0.0,0.0,0.0,0.0,0.0,0.0,0.0,0.0,0.0,2.7122,2.7709,0.0,0.0,0.0,0.0,0.0,0.0,0.0,0.0,2.8502,2.8551,2.9124,3.035,3.2298,3.427,3.4559,3.314,3.4703,3.4703,3.3236,3.4342,3.4583,3.4102,3.5183,3.5039,3.3935,3.2834,3.1033,2.8778,2.7846,2.6781,2.5726,2.5456,0.0,0.0,0.0,0.0,0.0,0.0,0.0,0.0,2.6591,2.6894,2.6892,2.5398,2.4566,2.3824,2.248,2.3008,2.4151,2.4857,2.7566,3.0688,3.3126,3.5351,3.7059,3.7635,3.7195,3.6874,3.7382,3.7048,0.0,0.0,0.0,0.0,0.0,0.0,0.0,0.0,0.0,0.0,0.0,0.0,0.0,0.0,0.0,0.0,0.0,0.0,0.0,3.4242,3.4242,3.4242,3.4242,3.3975,3.3988,0.0,3.4015,3.4042,3.4322,3.4603,3.4802,3.4882,3.5391,3.5805,3.6099,3.6393,3.65,3.65,3.6739,3.6727,3.6473,3.6473,3.6299,3.6072,0.0,0.0,0.0,0.0,0.0,0.0,0.0,0.0,0.0,0.0,0.0,0.0,0.0,0.0,0.0,0.0,0.0,0.0,0.0,0.0,2.8691,2.91,3.0058,3.078,3.1238,3.208,3.2369,3.2032,3.3573,3.3766,3.2707,3.4559,3.5135,3.4679,3.5736,3.54,3.3863,3.1711,2.9932,2.847,2.7106,2.6149,2.5448,2.5084,2.5076,0.0,0.0,0.0,0.0,0.0,0.0,0.0,2.6591,2.6894,2.7077,2.6427,2.5663,2.5225,2.5773,2.4904,2.454,2.7476,3.0608,3.348,3.539,3.658,3.7261,3.7099,3.7686,3.821,3.8133,3.8183,0.0,0.0,0.0,0.0,0.0,0.0,0.0,0.0,0.0,0.0,0.0,0.0,0.0,0.0,0.0,0.0,0.0,0.0,0.0,3.3614,3.3601,3.3601,3.3601,3.3547,3.3668,0.0,3.3921,3.4042,3.4322,3.4389,3.467,3.5124,3.5471,3.5805,3.6099,3.6393,3.6366,3.6193,3.6473,3.6433,3.6166,3.6166,3.6126,3.6072,0.0,0.0,0.0,0.0,0.0,0.0,0.0,0.0,0.0,0.0,0.0,0.0,0.0,0.0,0.0,0.0,0.0,0.0,0.0,0.0,2.8859,2.9653,3.0468,3.1021,3.1262,3.1815,3.196,3.1717,3.2755,3.2997,3.2539,3.4366,3.5063,3.4871,3.6194,3.5636,3.3553,3.1916,3.0009,2.8081,2.7122,2.6193,2.5388,2.5388,2.526,2.5168,0.0,0.0,0.0,0.0,0.0,0.0,0.0,0.0,2.6765,2.597,2.5677,2.5522,2.5177,2.5209,2.6121,2.9369,3.2158,3.4416,3.5605,3.654,3.7155,3.7155,3.7849,3.8504,3.8477,0.0,0.0,0.0,0.0,0.0,0.0,0.0,0.0,0.0,0.0,0.0,0.0,0.0,0.0,0.0,0.0,0.0,0.0,3.3908,3.3521,3.3213,3.32,3.32,3.32,3.3066,3.3146,3.3454,3.3357,3.34,3.3694,3.4122,3.4482,3.479,3.5084,3.5378,3.5672,3.5965,3.5992,3.5885,3.6179,3.6112,3.5859,3.5859,3.5778,3.5658,0.0,0.0,0.0,0.0,0.0,0.0,0.0,0.0,0.0,0.0,0.0,0.0,0.0,0.0,0.0,0.0,0.0,0.0,0.0,0.0,0.0,3.0058,3.0708,3.1259,3.1693,3.2152,3.2152,3.1717,3.2248,3.2635,3.2947,3.4294,3.4943,3.4991,3.6338,3.553,3.3141,3.2185,3.0215,2.7643,2.7172,2.6334,2.5425,2.5682,2.5462,2.5095,2.5682,2.5756,2.5719,2.6398,0.0,0.0,0.0,0.0,2.6427,2.5474,2.5399,2.5282,2.3702,2.5224,2.785,3.0546,3.2746,3.4416,3.5044,3.5979,3.6794,3.7168,3.7742,3.825,3.8504,0.0,0.0,0.0,0.0,0.0,0.0,0.0,0.0,0.0,0.0,0.0,0.0,0.0,0.0,0.0,0.0,0.0,3.3881,3.3534,3.3227,3.2986,3.2982,3.2955,3.2955,3.2714,3.2768,3.3053,3.2915,3.2902,3.3013,3.3855,3.4269,3.4336,3.4629,3.4923,3.5217,3.5511,3.5551,3.5578,3.5885,3.5819,3.5551,3.5498,3.5324,3.5124,0.0,0.0,0.0,0.0,0.0,0.0,0.0,0.0,0.0,0.0,2.9563,0.0,0.0,0.0,0.0,0.0,0.0,0.0,0.0,0.0,0.0,3.0107,3.1045,3.1645,3.1717,3.1767,3.1767,3.1717,3.2248,3.3188,3.4511,3.5183,3.5496,3.5496,3.5712,3.4706,3.2748,3.0967,2.9074,2.7195,2.6392,2.5799,2.537,2.5076,2.5315,0.0,0.0,2.5902,2.6472,2.6554,2.6591,0.0,0.0,0.0,2.6637,2.6828,2.596,2.4924,2.4918,2.6452,2.8538,3.0681,3.2599,3.4162,3.5004,3.5511,3.5912,3.65,3.7301,3.7889,0.0,0.0,0.0,0.0,0.0,0.0,0.0,0.0,0.0,0.0,0.0,0.0,0.0,0.0,0.0,0.0,0.0,0.0,3.3881,3.3347,3.3013,3.2973,3.2781,3.2648,3.2648,3.2607,3.2862,3.336,3.3601,3.3454,3.3,3.3654,3.4082,3.4336,3.4629,3.4923,3.5217,3.5511,3.5485,3.5284,3.5578,3.5511,3.5231,3.4977,3.4909,3.4869,0.0,0.0,0.0,0.0,0.0,0.0,0.0,0.0,0.0,0.0,0.0,2.8796,0.0,0.0,0.0,0.0,0.0,0.0,0.0,0.0,0.0,2.9653,3.0684,3.1238,3.1238,3.1548,3.1717,3.1717,3.2537,3.3597,3.4823,3.564,3.6218,3.6457,3.5408,3.3961,3.2185,2.9607,2.7695,2.6361,2.5377,2.4994,2.504,2.4874,0.0,0.0,0.0,0.0,0.0,0.0,2.6591,2.6628,2.682,0.0,0.0,0.0,2.6507,2.6278,2.6819,2.7093,2.7817,3.0341,3.2064,3.3424,3.4255,3.4817,3.5257,3.5685,3.6086,3.654,0.0,0.0,0.0,0.0,0.0,0.0,0.0,0.0,0.0,0.0,0.0,0.0,0.0,0.0,0.0,0.0,0.0,3.3547,3.3387,3.312,3.2955,3.2795,3.25,3.2291,3.2291,3.2179,3.2233,3.2438,3.2572,3.2585,3.2505,3.2933,3.348,3.4108,3.4614,3.4923,3.5204,3.5338,3.5311,3.5204,3.5338,3.5311,3.5177,3.5057,3.491,3.4815,0.0,0.0,0.0,0.0,0.0,0.0,0.0,0.0,0.0,0.0,0.0,0.0,0.0,0.0,0.0,0.0,0.0,0.0,0.0,0.0,0.0,2.9484,3.0395,3.0949,3.1093,3.15,3.1717,3.1717,3.2778,3.403,3.5424,3.5929,3.6649,3.7503,3.5465,3.3339,3.1133,2.8716,2.7006,2.5831,2.4795,2.4526,2.4819,0.0,0.0,0.0,0.0,0.0,0.0,0.0,0.0,0.0,0.0,0.0,0.0,0.0,0.0,2.6417,2.7356,2.6798,2.6587,2.9232,3.1002,3.2273,3.312,3.3879,3.4441,0.0,3.487,0.0,0.0,0.0,0.0,0.0,0.0,0.0,0.0,0.0,0.0,0.0,0.0,0.0,0.0,0.0,0.0,0.0,3.32,3.3093,3.2929,3.2799,3.2652,3.2487,3.2144,3.1998,3.1998,3.1851,3.1791,3.1711,3.1711,3.1744,3.1891,3.2233,3.2781,3.348,3.4215,3.467,3.487,3.495,3.5017,3.5084,3.5084,3.5137,3.5191,3.511,3.495,3.4802,0.0,0.0,0.0,0.0,0.0,0.0,0.0,0.0,0.0,0.0,0.0,0.0,0.0,0.0,2.8502,2.8502,0.0,0.0,0.0,0.0,0.0,3.0058,3.0588,0.0,3.1645,3.1693,3.1717,3.1717,3.2778,3.4607,3.7058,3.5968,3.659,3.8514,3.6072,3.2873,2.9304,2.8774,2.754,2.59,2.512,0.0,0.0,0.0,0.0,0.0,0.0,0.0,0.0,0.0,0.0,0.0,0.0,0.0,0.0,0.0,0.0,0.0,2.5031,2.5051,2.5133,2.7041,2.9022,3.0748,3.1631,3.25,3.3146,3.344,3.3961,0.0,0.0,0.0,0.0,0.0,0.0,0.0,0.0,0.0,0.0,0.0,0.0,0.0,0.0,0.0,0.0,0.0,3.2648,3.2634,3.2621,3.2305,3.2144,3.2131,3.1837,3.1738,3.1738,3.1944,3.1944,3.1711,3.1711,3.153,3.1276,3.1583,3.1891,3.2265,3.3427,3.3935,3.3975,3.4255,3.4536,3.4842,3.4842,3.495,3.5164,3.4883,3.4829,3.4775,0.0,0.0,0.0,0.0,0.0,0.0,0.0,0.0,0.0,0.0,0.0,0.0,0.0,2.8502,2.8502,2.8502,2.8502,0.0,0.0,0.0,0.0,2.9581,3.0756,3.1334,3.119,3.1502,3.1717,3.1717,3.2778,3.3768,3.4635,3.5149,3.4869,3.3925,3.2979,3.1638,2.9952,2.7822,2.6584,2.5939,0.0,0.0,0.0,0.0,0.0,0.0,0.0,0.0,0.0,0.0,0.0,0.0,0.0,0.0,0.0,0.0,2.5067,2.3409,2.4544,2.3916,2.3447,2.5598,2.7309,2.8754,3.0025,3.1089,3.1931,3.2225,3.2772,0.0,0.0,0.0,0.0,0.0,0.0,0.0,0.0,0.0,0.0,0.0,0.0,0.0,0.0,0.0,0.0,0.0,0.0,3.2514,3.2278,3.2158,3.2104,3.2104,3.1824,3.1711,3.1711,3.1818,3.1677,3.1383,3.1383,3.1236,3.0955,3.1249,3.1543,3.1864,3.2728,3.341,3.3908,3.4202,3.4496,3.4815,3.4815,3.4937,3.5191,3.5084,3.4803,3.4469,0.0,0.0,0.0,0.0,0.0,0.0,0.0,0.0,0.0,0.0,0.0,0.0,0.0,0.0,2.8859,2.9027,2.8883,2.8859,2.9027,2.9701,3.0034,2.9845,3.0853,3.1334,3.1165,3.1334,3.1524,3.1717,3.2076,3.2676,3.3476,3.3603,3.2992,3.1714,3.0711,3.0045,2.9543,2.7763,0.0,2.6178,0.0,0.0,2.6233,0.0,0.0,0.0,0.0,0.0,0.0,0.0,0.0,0.0,0.0,0.0,0.0,0.0,0.0,2.3228,2.367,2.2838,2.2439,2.477,2.5812,2.6787,2.8858,2.978,3.0408,3.1209,0.0,0.0,0.0,0.0,0.0,0.0,0.0,0.0,0.0,0.0,0.0,0.0,0.0,0.0,0.0,0.0,0.0,0.0,0.0,0.0,3.2104,3.2011,3.1957,3.1957,3.177,3.1671,3.1517,3.1517,3.137,3.1076,3.0982,3.0835,3.0662,3.0849,3.1089,3.1457,3.2152,3.2848,3.3454,3.3748,3.3988,3.4226,3.4269,3.4549,3.4897,3.4897,3.4776,3.4576,0.0,0.0,0.0,0.0,0.0,0.0,0.0,0.0,0.0,2.8578,0.0,0.0,0.0,0.0,0.0,3.0058,2.9629,2.9532,3.0083,3.011,3.0371,3.0877,0.0,0.0,3.1693,3.1168,3.1122,3.1651,3.0668,3.1455,3.3785,3.1333,3.1035,3.2417,2.9619,2.8179,2.783,0.0,2.804,2.6628,0.0,2.6637,2.683,0.0,0.0,0.0,2.9599,2.9207,0.0,0.0,0.0,0.0,0.0,0.0,0.0,0.0,0.0,0.0,0.0,0.0,0.0,2.4432,2.4556,2.497,2.8121,2.8444,2.858,3.0327,0.0,0.0,0.0,0.0,0.0,0.0,0.0,0.0,0.0,0.0,0.0,0.0,0.0,0.0,0.0,0.0,0.0,0.0,3.1711,3.1797,3.2078,3.181,3.1698,3.1698,3.1698,3.1517,3.1176,3.1176,3.1076,3.0782,3.0533,3.04,3.04,3.0413,3.0574,3.0849,3.173,3.2278,3.2621,3.2915,3.3,3.3026,3.332,3.3801,3.4336,3.4322,3.4683,3.5044,0.0,0.0,0.0,0.0,0.0,0.0,2.8776,2.8756,2.8697,0.0,0.0,0.0,2.9051,2.9556,2.9941,3.0107,2.9941,2.9941,3.0107,3.0468,3.0732,3.0877,3.1262,3.1548,3.1717,3.0839,3.06,3.1043,3.0431,3.0133,3.0167,3.0142,2.9726,2.8983,2.8482,2.7909,2.7371,2.7298,0.0,2.782,2.694,2.7316,0.0,0.0,0.0,0.0,0.0,2.9684,0.0,0.0,2.9354,2.8931,0.0,0.0,0.0,0.0,0.0,0.0,2.2334,0.0,0.0,0.0,0.0,0.0,0.0,0.0,2.6106,2.7924,0.0,0.0,0.0,0.0,0.0,0.0,0.0,0.0,0.0,0.0,0.0,0.0,0.0,0.0,0.0,0.0,0.0,0.0,3.1711,3.1751,3.1831,3.1503,3.1343,3.1343,3.1343,3.1316,3.1176,3.1176,3.0969,3.052,3.044,3.0247,3.0047,3.0474,3.0835,3.1156,3.2038,3.2514,3.2634,3.3093,3.3427,3.3641,3.3721,3.4122,3.4616,3.4402,3.4429,3.4496,0.0,0.0,0.0,0.0,0.0,2.8835,2.8835,2.8835,2.8835,0.0,0.0,0.0,2.9869,3.0443,3.0684,3.0443,3.0443,3.0443,3.0443,3.0925,3.1238,3.1238,3.1526,3.1494,3.107,3.0441,3.0079,3.0015,2.9276,2.8807,2.8531,2.8549,2.8057,2.7111,2.741,2.7216,2.6692,0.0,0.0,0.0,2.76,0.0,0.0,2.9525,2.9782,0.0,0.0,0.0,3.1433,3.1267,3.0589,0.0,0.0,0.0,0.0,0.0,0.0,0.0,0.0,0.0,0.0,0.0,0.0,0.0,2.3567,2.3928,2.4396,0.0,0.0,0.0,0.0,0.0,0.0,0.0,0.0,0.0,0.0,0.0,0.0,0.0,0.0,0.0,0.0,3.1196,3.1303,3.1303,3.1303,3.1303,3.1303,3.1249,3.1169,3.1049,3.1049,3.0982,3.0862,3.0862,3.0568,3.0038,3.0114,3.002,2.9753,3.0341,3.0768,3.1089,3.1898,3.2367,3.2634,3.304,3.32,3.316,3.3414,3.3721,3.4066,3.3961,3.4095,3.4255,0.0,0.0,2.9229,2.867,2.8979,2.9316,2.9388,2.9388,2.9412,0.0,2.9629,3.0134,3.1141,3.1671,0.0,0.0,3.1141,3.1069,3.1069,3.1476,3.1649,3.1538,3.1516,3.1071,3.0102,2.9784,2.9385,2.8882,2.7742,2.7517,2.8119,2.7005,2.6449,2.6433,2.6506,0.0,2.6086,0.0,0.0,2.682,2.8315,2.9085,0.0,0.0,3.2628,0.0,3.3817,3.3945,3.3306,3.2658,3.1389,0.0,0.0,0.0,0.0,0.0,2.3263,0.0,0.0,0.0,0.0,0.0,0.0,0.0,2.3407,2.334,2.3348,0.0,0.0,0.0,0.0,0.0,0.0,0.0,0.0,0.0,0.0,0.0,0.0,0.0,0.0,0.0,3.0702,3.0755,3.0795,3.0795,3.0795,3.0782,3.0742,3.0982,3.1009,3.0755,3.0742,3.0621,3.0413,3.0373,3.0079,2.9486,2.974,2.9726,2.9499,3.0172,3.0541,3.0822,3.145,3.2059,3.2567,3.2888,3.2666,3.2251,3.2772,3.3,3.3053,3.328,3.3748,3.4189,0.0,2.9399,2.9352,2.9177,2.922,2.9436,2.989,2.9941,3.0107,3.054,3.1719,3.2731,3.3333,3.3501,0.0,0.0,3.2659,3.2178,3.2178,3.1887,3.1339,3.0531,3.0486,3.0171,2.9483,2.8147,2.7876,2.8731,2.719,2.6709,2.7263,2.6994,2.6769,2.6544,2.6241,2.6251,2.6508,0.0,0.0,2.7169,2.8113,0.0,3.1451,3.1689,3.2243,3.3031,3.3707,3.4222,3.4336,0.0,3.0589,2.9094,0.0,0.0,0.0,0.0,0.0,0.0,0.0,0.0,0.0,0.0,0.0,0.0,2.1817,2.2311,2.3,0.0,0.0,0.0,0.0,0.0,0.0,0.0,0.0,0.0,0.0,0.0,0.0,0.0,0.0,0.0,3.0127,3.0515,3.0795,3.0795,3.0795,3.0688,3.0507,3.0547,3.0547,3.0493,3.0493,3.0467,3.04,3.0127,2.9833,2.9486,2.9539,2.9539,2.9513,3.0341,3.0742,3.0835,3.1664,3.2078,3.2225,3.2759,3.2906,3.2812,3.2933,3.312,3.3307,3.3133,3.344,3.3921,0.0,2.8954,2.9026,2.9257,2.9508,2.9965,3.078,3.0901,3.119,3.1984,3.3477,3.4414,3.4414,3.4655,0.0,0.0,0.0,0.0,0.0,3.0936,3.0486,2.9487,2.9641,2.9373,2.863,2.8037,2.7764,2.7747,2.6981,2.6678,2.6791,2.6791,2.6625,2.6306,2.6306,2.6306,2.6306,0.0,2.6811,2.7353,2.8938,0.0,3.1818,3.2811,3.369,3.4441,3.4862,3.4758,3.3844,3.0168,2.9098,0.0,0.0,2.4585,2.4502,0.0,2.2852,2.2173,0.0,0.0,0.0,2.1697,0.0,0.0,0.0,2.1777,2.2104,2.2398,2.302,0.0,0.0,0.0,0.0,0.0,0.0,0.0,0.0,0.0,0.0,0.0,0.0,0.0,2.9455,2.9695,2.9913,2.9913,2.9913,2.986,2.9713,2.9847,2.986,2.9713,2.9847,2.9847,2.97,2.9553,2.9339,2.9045,2.9339,2.9406,2.9299,3.0327,3.0795,3.0835,3.157,3.1971,3.2131,3.2634,3.2808,3.2822,3.2969,3.2973,3.2973,3.2973,3.3173,3.3427,2.8598,2.8502,2.8667,2.9196,2.9725,3.0468,3.1548,3.1789,3.2321,3.3573,3.4724,3.5315,3.5101,0.0,0.0,0.0,0.0,0.0,0.0,0.0,0.0,2.8508,2.8731,2.8458,2.7606,2.7945,2.7715,2.6824,2.6801,2.6744,2.6591,2.6591,2.6435,2.6123,2.6472,2.6472,2.6251,0.0,0.0,2.7738,0.0,3.0901,3.1322,3.3727,3.4881,3.5321,3.5611,3.4709,3.2651,2.8315,0.0,2.8,2.4499,2.3626,0.0,0.0,0.0,0.0,0.0,0.0,0.0,0.0,0.0,2.1857,0.0,0.0,0.0,2.1777,0.0,0.0,0.0,0.0,0.0,0.0,0.0,0.0,0.0,0.0,0.0,0.0,0.0,0.0,0.0,2.8735,2.8788,2.8908,2.8898,2.8855,2.8908,2.9232,2.9285,2.9001,2.9272,2.9285,2.9001,2.8948,2.8788,2.8617,2.9138,2.9272,2.9041,3.0261,3.0795,3.0822,3.1457,3.1797,3.2051,3.2447,3.2594,3.2621,3.2848,3.2795,3.2621,3.2862,3.2982,3.3026,2.8498,2.8502,2.8667,2.9196,2.9725,3.0468,3.1548,3.2104,3.3116,3.5063,3.4973,3.505,0.0,0.0,0.0,0.0,0.0,0.0,3.2346,0.0,0.0,2.7675,2.7403,2.7008,2.6404,2.6236,2.6417,2.6969,2.6402,2.6278,2.6591,2.6591,2.6582,2.6518,2.6573,2.6784,2.7077,0.0,2.7793,0.0,3.0241,3.0387,0.0,3.2496,3.3635,3.3991,3.4068,3.2994,3.1115,0.0,2.7008,2.6502,0.0,2.266,0.0,0.0,0.0,0.0,0.0,0.0,0.0,0.0,2.334,0.0,0.0,0.0,2.2692,2.147,0.0,0.0,0.0,0.0,0.0,0.0,0.0,0.0,0.0,0.0,0.0,0.0,0.0,0.0,0.0,2.7856,2.807,2.8617,2.8446,2.8406,2.8644,2.8895,2.9028,2.9001,2.9028,2.9028,2.9001,2.8735,2.8644,2.8604,2.8895,2.9028,2.9041,3.0261,3.0795,3.0822,3.1457,3.1738,3.1805,3.2367,3.2594,3.2594,3.2634,3.2621,3.2594,3.2634,3.2808,3.3026,2.8502,2.8502,0.0,2.9196,2.9725,3.0588,3.196,3.3909,3.5545,3.6411,3.6437,0.0,0.0,0.0,0.0,0.0,0.0,3.1503,0.0,0.0,0.0,0.0,0.0,0.0,2.6577,2.6514,2.6654,2.6989,2.6552,2.6435,2.6591,2.6591,2.6591,2.6591,2.6591,0.0,2.7206,0.0,2.75,0.0,0.0,0.0,0.0,3.2866,3.4072,3.3683,3.2685,3.13,2.9492,0.0,2.5857,0.0,0.0,0.0,0.0,0.0,0.0,0.0,0.0,0.0,0.0,0.0,0.0,0.0,0.0,0.0,2.1911,0.0,0.0,0.0,0.0,0.0,0.0,0.0,0.0,0.0,0.0,0.0,0.0,0.0,0.0,0.0,0.0,0.0,0.0,0.0,2.7001,2.7148,2.7068,2.7989,2.8444,2.827,2.8604,2.8791,2.8791,2.8484,2.843,2.8604,2.8855,2.9001,2.9028,3.0087,3.0635,3.0808,3.1049,3.1403,3.1751,3.2118,3.2291,3.2353,3.2527,3.2594,3.2594,3.2594,3.2674,3.2848,2.8502,0.0,0.0,2.9196,2.9725,3.0756,3.2635,3.4992,0.0,0.0,0.0,0.0,3.7636,3.5986,0.0,0.0,0.0,3.2015,0.0,0.0,2.8015,0.0,0.0,0.0,0.0,0.0,2.6881,2.6881,2.6682,2.6591,2.6591,2.6591,2.6591,2.6591,2.6839,2.7224,2.772,0.0,2.8289,2.8744,2.9576,2.9529,2.9284,3.2497,3.3094,3.2052,3.0824,2.9348,2.7667,2.5639,2.4957,0.0,2.3861,0.0,0.0,0.0,0.0,0.0,2.3148,0.0,0.0,0.0,0.0,0.0,0.0,0.0,0.0,0.0,0.0,0.0,0.0,0.0,0.0,0.0,0.0,0.0,0.0,0.0,0.0,0.0,0.0,0.0,0.0,0.0,0.0,2.5411,2.5571,2.5757,2.5864,2.6961,2.763,2.7696,2.8123,2.8444,2.8604,2.8339,2.8339,2.8604,2.8818,2.8881,2.8908,2.9833,3.0354,3.0568,3.0728,3.1076,3.157,3.1864,3.2024,3.2118,3.2393,3.2474,3.2487,3.2567,3.2594,3.2674,2.8502,2.8502,0.0,0.0,2.9725,3.0975,0.0,0.0,0.0,0.0,0.0,0.0,0.0,0.0,0.0,0.0,0.0,3.239,3.232,0.0,2.7798,0.0,0.0,0.0,0.0,0.0,0.0,2.6618,2.6591,2.6591,2.6591,2.6591,2.6591,2.6628,2.7408,2.8197,2.8975,2.9764,3.0992,3.2326,3.1131,3.0501,3.0258,0.0,2.9518,2.8183,2.8108,0.0,0.0,2.485,2.4613,0.0,0.0,0.0,0.0,0.0,0.0,0.0,0.0,0.0,0.0,2.3348,0.0,0.0,0.0,0.0,2.2599,0.0,0.0,0.0,0.0,0.0,0.0,0.0,0.0,0.0,0.0,0.0,0.0,0.0,0.0,0.0,0.0,0.0,0.0,2.5077,2.4365,2.4342,2.5464,2.5877,2.6586,2.7669,2.7722,2.8016,2.8604,2.8339,2.8339,2.8604,2.8617,2.8617,2.8644,2.9526,2.994,2.998,3.0541,3.0969,3.1263,3.1557,3.1851,3.2104,3.2118,3.2118,3.2144,3.2487,3.2594,3.2674,0.0,0.0,0.0,0.0,0.0,0.0,0.0,3.4495,0.0,0.0,0.0,0.0,0.0,0.0,3.6669,0.0,0.0,3.4413,3.3282,3.1588,0.0,0.0,0.0,2.7641,0.0,0.0,0.0,0.0,2.6591,2.6591,2.6591,2.6591,2.6591,2.6609,2.7169,2.7867,0.0,0.0,0.0,0.0,0.0,2.92,2.9427,0.0,0.0,2.8003,2.8003,2.6923,0.0,2.5064,2.4796,2.4546,2.4289,2.3941,2.3647,2.3777,2.4035,0.0,0.0,0.0,2.5718,2.4142,0.0,0.0,0.0,0.0,0.0,0.0,0.0,0.0,0.0,0.0,0.0,0.0,0.0,0.0,0.0,0.0,0.0,0.0,0.0,0.0,0.0,0.0,0.0,2.28,2.2832,2.314,2.3763,2.497,2.6026,2.68,2.763,2.8283,2.8841,2.8604,2.8604,2.8855,2.8698,2.8711,2.8868,2.9406,2.9847,3.0221,3.0467,3.0782,3.1249,3.1543,3.173,3.1837,3.2024,3.1984,3.1851,3.2144,3.242,3.2674,2.9821,0.0,0.0,0.0,0.0,0.0,0.0,0.0,0.0,0.0,3.7815,0.0,3.9842,0.0,3.8683,0.0,3.7741,3.6312,3.4038,3.3428,0.0,3.0538,2.9835,0.0,0.0,0.0,0.0,0.0,0.0,2.6719,2.6591,2.6591,2.6591,2.6628,2.7334,2.8058,2.889,2.9955,3.011,0.0,0.0,2.8185,0.0,0.0,2.7981,2.7084,0.0,2.6087,2.5133,2.4983,2.4796,2.4572,2.4422,2.4222,2.4062,2.3955,2.4342,2.4733,2.4626,2.5306,0.0,2.4649,2.4436,0.0,2.2666,0.0,0.0,0.0,0.0,0.0,0.0,0.0,0.0,0.0,0.0,0.0,0.0,0.0,0.0,0.0,0.0,0.0,0.0,0.0,2.2031,2.1475,2.155,2.1911,0.0,0.0,2.5197,2.6238,2.7416,2.8323,2.8988,2.8751,2.8751,2.8988,2.8631,2.8604,2.8855,2.9192,2.9593,3.0105,3.0154,3.0528,3.1089,3.1276,3.1524,3.1751,3.1984,3.1931,3.1764,3.2118,3.2567,3.2906,0.0,0.0,0.0,0.0,3.137,0.0,0.0,0.0,3.6751,0.0,3.7788,3.9127,3.9255,3.9351,3.9693,4.0399,3.9759,0.0,3.4844,3.532,0.0,0.0,3.0791,3.0387,2.9195,0.0,0.0,0.0,0.0,2.7004,2.6637,2.6591,2.6591,2.6646,2.7856,2.881,2.9611,3.0502,3.1266,3.169,2.958,2.7488,2.5558,2.5518,2.5518,2.5451,2.4799,2.4586,2.4599,2.4572,2.4572,2.4599,2.4599,2.4613,2.4572,2.4329,2.4663,2.5064,2.4719,2.5079,2.5438,2.4813,0.0,0.0,0.0,0.0,2.4727,0.0,0.0,0.0,0.0,0.0,0.0,0.0,0.0,0.0,0.0,0.0,0.0,0.0,0.0,0.0,0.0,2.2058,2.1657,2.1082,2.049,2.0677,0.0,0.0,2.4115,2.5877,2.7081,2.815,2.8988,2.8764,2.8764,2.8988,2.8473,2.8353,2.8644,2.8868,2.9205,2.9526,2.982,3.0274,3.0795,3.0822,3.1169,3.1751,3.1971,3.1917,3.1805,3.238,3.2955,3.3387,3.0949,3.0935,3.0697,0.0,3.0718,3.1593,0.0,0.0,0.0,0.0,3.9297,4.0709,4.1397,4.2045,4.2106,4.145,4.0906,0.0,0.0,0.0,0.0,3.4733,3.3615,3.2606,3.1689,3.0406,0.0,2.837,0.0,2.7151,2.7041,2.6719,2.6591,2.6646,2.7856,2.8498,2.8835,3.0818,3.1167,3.0098,2.7717,2.6522,0.0,0.0,2.5651,2.5743,2.4676,2.4412,2.4532,2.4142,2.4275,2.4599,2.4599,2.4783,2.4957,2.4877,2.5302,2.5703,2.5371,2.584,2.6346,2.5758,2.5504,2.5184,0.0,0.0,0.0,0.0,0.0,0.0,0.0,0.0,0.0,0.0,0.0,0.0,0.0,0.0,0.0,0.0,0.0,0.0,0.0,2.0601,2.0535,2.016,2.0,2.0227,0.0,0.0,0.0,2.4906,2.6961,2.835,2.8988,2.8921,2.8921,2.8988,2.8473,2.846,2.8895,2.8961,2.9282,2.9833,3.0341,3.0648,3.0822,3.1263,3.1577,3.1724,3.1805,3.1864,3.2038,3.246,3.2822,3.312,3.1239,0.0,0.0,3.0615,0.0,0.0,3.2707,0.0,0.0,3.738,3.9436,0.0,4.169,4.2949,4.3481,4.2803,4.2241,0.0,0.0,0.0,0.0,3.6512,3.5577,3.4587,3.3413,3.1634,0.0,2.9262,0.0,0.0,2.7187,2.6802,2.6591,2.6646,2.7856,2.8498,2.8721,2.997,2.9921,2.8843,2.6648,0.0,0.0,2.5491,2.5344,2.5277,2.4489,2.4359,2.4546,2.4262,2.4369,2.4599,2.4599,2.493,2.5264,2.5264,2.5678,2.6145,2.5945,2.6253,2.656,2.6265,2.6119,2.5892,2.5146,2.5371,2.5451,0.0,0.0,0.0,0.0,0.0,0.0,0.0,0.0,0.0,0.0,0.0,0.0,0.0,0.0,0.0,0.0,1.9867,1.992,1.9669,1.996,0.0,0.0,0.0,0.0,2.4235,2.6827,2.8419,2.8801,2.9188,2.9308,2.9219,2.8631,2.8657,2.9232,2.9232,2.9553,3.0127,3.0461,3.0742,3.1009,3.1343,3.1557,3.1711,3.1711,3.1931,3.2318,3.2527,3.2781,3.3026,0.0,0.0,0.0,0.0,0.0,0.0,0.0,3.4981,0.0,3.711,0.0,4.1249,4.1543,4.3195,4.4215,4.416,0.0,4.2204,4.0331,4.0405,3.9483,3.7208,3.7006,3.6273,3.4825,3.2716,0.0,0.0,0.0,0.0,2.7187,2.6802,2.6591,2.6628,2.7801,2.8502,0.0,2.8425,2.812,2.769,2.6088,2.5478,2.5478,2.5197,2.497,2.4719,2.4396,2.4386,2.4586,2.4559,2.4572,2.4613,2.4639,2.505,2.5464,2.5504,2.5905,2.6333,2.6333,2.636,2.6386,2.6386,2.6587,2.656,2.5798,2.5837,2.577,2.497,2.4543,2.4209,0.0,0.0,0.0,0.0,0.0,0.0,0.0,0.0,0.0,0.0,0.0,0.0,0.0,0.0,0.0,0.0,0.0,0.0,0.0,0.0,0.0,2.379,2.6506,2.8192,2.8657,0.0,2.9673,2.9539,2.8911,2.8911,2.9486,2.9486,2.9851,3.0413,3.044,3.0728,3.1176,3.1263,3.1436,3.1711,3.1711,3.2032,3.2487,3.2527,3.2714,3.2973,0.0,0.0,0.0,0.0,0.0,3.4365,3.5482,3.7202,3.8791,4.0005,4.2647,4.4343,4.4113,4.4673,4.4948,4.46,4.3848,0.0,0.0,0.0,0.0,3.882,3.8124,3.7482,3.6878,3.424,3.2478,0.0,0.0,0.0,2.7187,2.6802,2.6591,2.6628,2.7518,2.7887,2.7816,2.7327,0.0,2.5829,2.5363,2.5304,2.5478,2.5197,2.5382,2.5663,2.4836,2.4559,2.4559,2.4356,2.4436,2.4639,2.493,2.5077,2.5197,2.5451,2.5758,2.6078,2.6078,2.6238,2.6386,2.6386,2.6426,2.6426,2.6266,2.6131,2.5957,2.5797,2.5342,2.4727,2.395,0.0,0.0,0.0,0.0,0.0,0.0,0.0,0.0,0.0,0.0,0.0,0.0,0.0,0.0,0.0,0.0,0.0,0.0,0.0,0.0,0.0,2.5717,0.0,0.0,0.0,2.9179,2.9833,2.9005,2.8911,2.9486,2.9486,2.9851,3.0426,3.0608,3.0915,3.1203,3.149,3.1671,3.1711,3.1711,3.1778,3.1898,3.2091,3.2372,3.2741,0.0,0.0,0.0,0.0,0.0,0.0,0.0,4.0173,0.0,4.0796,4.2449,4.3664,4.3489,4.4728,4.5517,4.5315,4.4563,4.3848,4.3261,4.1727,4.0552,3.9905,3.8896,0.0,3.7702,3.4936,3.3196,3.2609,0.0,0.0,2.75,2.6894,2.6591,2.66,2.6806,2.7356,0.0,0.0,0.0,2.6118,2.5198,2.5211,2.5692,2.5251,2.5382,2.5651,2.5077,2.4863,2.4823,2.4529,2.4479,2.4626,2.481,2.5064,2.5331,2.5478,2.5838,2.6225,2.6225,2.6279,2.6386,2.6386,2.6386,2.6346,2.6238,2.6212,2.6091,2.5636,2.5398,2.4997,2.3991,2.2465,0.0,0.0,0.0,0.0,0.0,0.0,0.0,0.0,0.0,0.0,0.0,0.0,0.0,0.0,0.0,0.0,0.0,0.0,0.0,0.0,0.0,0.0,0.0,0.0,0.0,2.9686,2.9259,2.9285,2.9713,2.9713,3.0034,3.0595,3.0728,3.1049,3.1463,3.161,3.1711,3.1711,3.1711,3.1711,3.1764,3.2219,3.2474,3.2634,0.0,3.2146,0.0,0.0,3.5879,0.0,4.0051,4.2628,4.3664,4.1782,4.2399,4.3041,4.3041,4.4746,4.5883,4.5883,4.515,4.4554,4.4105,4.2222,4.0919,4.0533,3.93,3.8453,3.8124,3.5559,3.3696,0.0,0.0,0.0,0.0,0.0,2.6564,0.0,0.0,0.0,0.0,0.0,2.5531,2.6163,2.5197,2.5237,2.585,2.5382,2.5398,2.5651,2.5304,2.517,2.513,2.4799,2.4693,2.4693,2.4693,2.505,2.5424,2.5424,2.5785,2.6199,2.6199,2.6293,2.6373,2.6319,2.6293,2.6265,2.5971,2.6024,2.5919,2.5224,2.5157,2.493,2.3991,2.28,0.0,0.0,0.0,0.0,0.0,0.0,0.0,0.0,0.0,0.0,0.0,0.0,0.0,0.0,0.0,0.0,0.0,0.0,0.0,0.0,0.0,2.6627,2.7682,0.0,2.9847,0.0,2.9513,2.9633,2.9913,2.9913,3.0234,3.0795,3.0795,3.1129,3.1711,3.1711,3.1711,3.1711,3.1711,3.1711,3.1778,3.23,3.2541,3.2594,0.0,0.0,0.0,0.0,0.0,0.0,0.0,4.3177,4.5113,4.4875,4.526,4.5553,4.5553,4.5755,4.5883,4.5883,4.515,4.4554,4.4105,4.2222,4.0919,4.0533,3.93,3.8582,3.8545,3.6493,3.3981,0.0,0.0,0.0,0.0,0.0,0.0,0.0,0.0,0.0,0.0,2.4882,2.4805,2.4156,2.5048,2.5478,2.5545,2.5491,2.5825,2.6226,2.5678,2.5478,2.5424,2.5144,2.5037,2.5037,2.5037,2.5077,2.5155,2.5155,2.5344,2.5598,2.5598,2.5985,2.6319,2.6105,2.6038,2.5957,2.5625,2.5371,2.5222,2.5141,2.4676,2.4209,2.387,2.3434,2.2899,0.0,0.0,0.0,0.0,0.0,0.0,0.0,0.0,0.0,0.0,0.0,0.0,0.0,0.0,0.0,0.0,0.0,0.0,2.2853,0.0,2.6012,2.7682,2.8417,0.0,2.9873,2.9606,2.9633,2.9913,2.9913,3.0234,3.0795,3.0795,3.1129,3.1711,3.1711,3.1711,3.1711,3.1711,3.1711,3.1751,3.2024,3.2367,3.2594,0.0,0.0,0.0,0.0,0.0,0.0,0.0,4.4306,4.5388,4.5627,4.5792,4.5883,4.5883,4.5883,4.5883,4.5883,4.515,4.4645,4.4499,4.281,4.1543,4.0901,3.8866,3.8011,3.8579,3.6068,3.4028,0.0,0.0,0.0,0.0,0.0,0.0,0.0,0.0,2.4188,2.4021,2.4084,2.4293,2.4633,2.5064,2.5571,2.6026,2.5838,2.6039,2.6306,2.5718,2.5518,2.5464,2.5184,2.5115,2.5115,2.5115,2.5197,2.5371,2.5596,2.573,2.5864,2.5985,2.6213,2.636,2.6279,2.6131,2.5917,2.5585,2.5424,2.5237,2.489,2.4623,2.4422,2.4315,2.3915,2.3527,0.0,0.0,0.0,0.0,0.0,0.0,0.0,0.0,0.0,0.0,0.0,0.0,0.0,0.0,0.0,0.0,0.0,0.0,2.2539,0.0,2.5665,2.7415,2.8738,2.9486,2.9659,2.9713,2.9806,2.9913,2.9913,3.0234,3.0808,3.1169,3.1497,3.1724,3.1851,3.1824,3.1738,3.1864,3.1824,3.1751,3.1998,3.2291,3.2621,3.6571,0.0,3.779,0.0,4.1213,4.2332,4.4554,4.5205,4.5572,4.5847,4.5883,4.5883,4.5883,4.5883,4.5883,4.5883,4.526,4.4847,4.4719,4.3324,4.213,4.1323,3.9295,0.0,3.8006,3.5844,3.3875,3.2135,3.1197,0.0,0.0,0.0,0.0,0.0,2.371,2.3897,2.4303,2.3969,2.4315,2.5104,2.5396,2.5732,2.6132,2.6131,2.6252,2.6333,2.5919,2.5665,2.5491,2.5422,2.5315,2.5224,2.5342,2.5478,2.5678,2.5931,2.5998,2.6038,2.6238,2.6319,2.6373,2.6279,2.6145,2.5917,2.5585,2.5518,2.5371,2.4839,2.4799,2.4826,2.4746,2.4502,2.4262,2.4209,0.0,0.0,0.0,0.0,0.0,0.0,0.0,2.0321,1.9602,0.0,0.0,0.0,0.0,0.0,0.0,0.0,0.0,0.0,0.0,0.0,0.0,2.8858,2.9606,2.9486,2.978,2.9913,2.9913,3.0007,3.0314,3.0822,3.1316,3.1583,3.1724,3.1891,3.1851,3.1738,3.1891,3.1851,3.1751,3.1998,3.2238,3.25,3.7668,3.864,3.996,4.2443,4.3544,4.4325,4.5168,4.5627,4.5883,4.5883,4.5883,4.5883,4.5883,4.5883,4.5883,4.5883,4.5535,4.5113,4.4737,4.3581,4.2553,0.0,0.0,3.9269,3.6675,3.6183,3.3398,2.8162,0.0,0.0,2.4075,0.0,2.5128,2.3829,2.4834,2.4862,2.4258,2.4847,2.5101,2.5195,2.6026,2.6026,2.5585,2.6159,2.6386,2.6386,2.6386,2.6012,2.5558,2.5891,2.5784,2.5558,2.5891,2.5984,2.5998,2.5998,2.5998,2.5998,2.5998,2.6212,2.6319,2.6078,2.5998,2.5917,2.5585,2.5518,2.5424,2.513,2.5304,2.5411,2.513,2.5304,2.5211,2.4342,0.0,0.0,0.0,0.0,0.0,0.0,2.1221,2.1114,1.9907,0.0,0.0,0.0,0.0,0.0,0.0,0.0,0.0,2.2853,2.4569,0.0,2.7296,2.8457,2.9192,2.9486,2.978,2.9913,2.9927,3.0221,3.056,3.0808,3.1102,3.1396,3.1711,3.1724,3.1724,3.1711,3.1724,3.1724,3.1751,3.1998,3.2104,3.2144,3.9483,4.0345,4.1409,4.3023,4.3958,4.4673,4.5223,4.5645,4.5883,4.5883,4.5883,4.5883,4.5883,4.5883,4.53,0.0,4.3199,4.2185,0.0,3.9753,3.8853,3.7764,3.6365,3.5301,3.4684,3.3395,3.1872,3.0068,0.0,0.0,0.0,2.4967,2.4434,2.3214,2.4133,2.4634,2.4823,2.5211,2.5611,2.5972,2.6105,2.6145,2.6132,2.6319,2.6305,2.6131,2.6131,2.5757,2.5264,2.5558,2.5585,2.5558,2.5904,2.5998,2.6038,2.6238,2.6145,2.6038,2.6238,2.6319,2.6373,2.6279,2.6145,2.5971,2.5877,2.5651,2.5491,2.5398,2.5291,2.5184,2.5141,2.4983,2.4786,2.4506,2.4168,0.0,0.0,0.0,0.0,0.0,0.0,2.0766,0.0,2.0064,0.0,0.0,0.0,0.0,0.0,0.0,0.0,0.0,2.489,0.0,2.7898,2.8845,2.9486,2.978,2.9873,2.9913,2.994,3.0434,3.0702,3.0822,3.1316,3.1583,3.1724,3.1877,3.1971,3.1971,3.1971,3.1971,3.1944,3.1851,3.1931,3.2118,4.0767,4.1506,4.2289,4.3499,4.4297,4.4866,4.5242,4.5645,4.5883,4.5883,4.5883,4.5883,4.5883,4.5883,0.0,4.2808,4.2172,4.0966,3.8622,3.8051,3.7305,3.6196,3.5081,3.4055,3.3095,0.0,0.0,2.9755,2.9017,2.7334,2.4911,2.4799,2.4391,2.3763,2.4516,2.5101,2.5462,2.5718,2.5985,2.6265,2.6185,2.6198,2.6279,2.6346,2.6319,2.6145,2.6038,2.5757,2.5476,2.5611,2.5678,2.5732,2.6065,2.6158,2.6198,2.6333,2.6305,2.6198,2.6333,2.6386,2.6386,2.6386,2.6253,2.6158,2.6158,2.5972,2.5812,2.5705,2.5625,2.5583,2.5462,2.5264,2.509,2.4946,2.4289,2.3589,0.0,0.0,0.0,0.0,0.0,0.0,0.0,2.0802,0.0,0.0,0.0,0.0,0.0,0.0,0.0,2.3621,2.5478,0.0,2.8353,2.9085,2.9633,2.9913,2.9913,2.998,3.01,3.0461,3.0755,3.0982,3.1343,3.157,3.1724,3.1864,3.1944,3.1944,3.1944,3.1944,3.1917,3.1744,3.1831,3.1944,4.1574,4.2094,0.0,0.0,4.4398,0.0,4.5205,4.5608,4.5883,4.5883,4.5789,4.5695,4.5695,4.5554,4.4488,4.2017,0.0,0.0,0.0,3.7819,3.7237,3.6155,3.6092,3.4698,3.1668,3.161,3.034,2.7696,2.6306,2.5478,2.5157,2.4863,2.4877,2.5208,2.5757,2.6011,2.6038,2.6279,2.6279,2.6051,2.6279,2.6265,2.6051,2.6279,2.6373,2.6333,2.6118,2.5998,2.5971,2.5984,2.5998,2.6038,2.6279,2.6373,2.6386,2.6386,2.6386,2.6386,2.6386,2.6386,2.6386,2.6413,2.644,2.644,2.6426,2.644,2.6412,2.6118,2.6252,2.6346,2.6051,2.5957,2.5837,2.5504,2.4489,2.3562,2.2947,0.0,0.0,0.0,0.0,0.0,0.0,2.1817,2.2004,0.0,0.0,0.0,0.0,0.0,2.3522,2.4329,2.6332,2.7804,2.8657,2.9205,2.9633,2.994,2.994,3.01,3.044,3.044,3.0702,3.1176,3.1203,3.141,3.1711,3.1738,3.1751,3.1751,3.1751,3.1751,3.1751,3.1724,3.1711,3.1711,0.0,0.0,4.2957,4.3536,4.4215,4.4756,4.4847,4.5425,4.5883,4.5883,4.4525,4.3509,4.3509,4.2104,4.0028,3.7143,3.8592,3.8672,3.6426,3.4124,3.2655,3.2161,3.1956,3.1145,2.9683,2.9669,2.9019,2.7696,2.7175,2.6626,2.6079,2.5824,2.5717,2.5797,2.5931,2.6118,2.6293,2.636,2.6346,2.6293,2.636,2.6346,2.6293,2.636,2.6253,2.6118,2.6265,2.5999,2.5651,2.5917,2.5998,2.6011,2.6078,2.6252,2.6386,2.6386,2.6386,2.6386,2.6386,2.6386,2.644,2.6667,2.6894,2.7041,2.6774,2.6894,2.7015,2.668,2.6493,2.6346,2.6051,2.5623,2.5184,2.4853,2.4012,2.322,2.2605,2.2098,0.0,0.0,2.2378,2.2745,2.2712,2.2739,2.2739,0.0,0.0,0.0,0.0,2.4663,2.5651,2.5865,2.7255,2.8406,2.9272,2.9419,2.974,3.0306,3.0306,3.0408,3.0688,3.0688,3.0889,3.1189,3.1463,3.1644,3.1738,3.1904,3.1998,3.1998,3.1998,3.1998,3.1971,3.1805,3.1711,3.1711,4.2204,4.2644,4.3048,4.3426,4.4141,4.4664,4.4435,4.5242,4.5481,4.434,4.3404,4.244,4.1463,4.0255,3.8811,3.7152,3.7126,3.611,3.3625,3.1809,3.0702,3.0408,3.0114,2.9606,2.8815,2.8801,2.8537,2.7938,2.7643,2.7295,2.6974,2.6547,2.636,2.6346,2.6252,2.6239,2.6386,2.6386,2.6386,2.6386,2.6386,2.6386,2.6386,2.6386,2.6293,2.6198,2.6225,2.6079,2.5919,2.5984,2.6078,2.6198,2.6198,2.6266,2.6386,2.6386,2.648,2.6587,2.6587,2.668,2.6867,2.6987,2.7188,2.7269,2.7068,2.7148,2.7269,2.7054,2.6894,2.6734,2.6413,2.5917,2.5291,2.4693,2.3781,2.2899,2.2298,2.201,0.0,2.2151,2.2979,2.3581,2.3714,2.4182,2.4262,2.3768,0.0,0.0,2.4292,2.6026,2.68,2.64,2.7965,2.9035,2.9486,2.9753,3.0159,3.0555,3.0555,3.0715,3.0996,3.0996,3.1156,3.1436,3.1597,3.1791,3.1877,3.2038,3.2104,3.2104,3.2104,3.2024,3.1891,3.173,3.1711,3.1711,4.2381,4.2773,4.314,4.3518,4.4141,4.4398,4.3833,4.4605,4.4446,4.2072,4.177,4.1108,3.9429,3.863,3.8237,3.8143,3.6035,3.3756,3.1558,3.0791,3.0274,2.9927,2.9633,2.9205,2.8617,2.8564,2.8446,2.8179,2.7896,2.7749,2.7682,2.7188,2.6907,2.6774,2.656,2.6426,2.6386,2.6386,2.6386,2.6386,2.6386,2.6386,2.6386,2.6386,2.6386,2.636,2.6145,2.6225,2.636,2.6145,2.6225,2.64,2.644,2.6453,2.6453,2.6453,2.6667,2.6881,2.6787,2.7068,2.7362,2.7322,2.7376,2.7429,2.7389,2.7403,2.7429,2.7389,2.7376,2.7241,2.6947,2.6412,2.573,2.4866,2.3701,2.2706,2.2124,0.0,2.1997,2.2552,2.3541,2.4312,2.4569,2.5692,2.5905,2.4756,2.5919,2.644,0.0,2.7108,2.7509,2.6814,2.8537,2.9526,2.9619,3.0194,3.0667,3.0862,3.0862,3.1009,3.1289,3.1203,3.1383,3.1724,3.1764,3.1877,3.2104,3.2198,3.2185,3.2104,3.2144,3.1971,3.1711,3.1711,3.1711,3.1711,4.3151,4.3353,4.3518,4.3921,4.4086,4.3706,4.2295,4.2209,4.1714,3.9882,3.8185,3.7076,3.7017,3.5195,3.3739,3.3278,3.2634,3.2786,3.4117,3.2015,3.0488,2.994,2.9633,2.9205,2.8617,2.8393,2.8232,2.8179,2.8138,2.7991,2.7696,2.7602,2.7295,2.6814,2.6774,2.6613,2.6386,2.6386,2.6386,2.6386,2.6386,2.6386,2.6386,2.6386,2.6386,2.6386,2.6333,2.6346,2.6386,2.6333,2.636,2.6426,2.668,2.6747,2.6747,2.6747,2.6961,2.7148,2.6894,2.7215,2.7575,2.7362,2.7684,2.7978,2.7682,2.7871,2.7978,2.7682,2.7629,2.7549,2.7296,2.656,2.5864,2.5438,2.3968,2.2773,2.2392,0.0,2.292,2.3522,2.4997,2.6092,2.6386,2.64,2.6533,2.6814,2.6399,2.6506,2.7308,2.8056,2.8511,2.8588,2.9179,2.9726,3.0266,3.0795,3.1116,3.1156,3.1156,3.1316,3.1597,3.1343,3.1383,3.1724,3.1931,3.2064,3.2144,3.2639,3.2545,3.2131,3.2433,3.2193,3.1711,3.1711,3.1711,3.1711,4.3041,4.3518,4.3866,4.405,4.3368,4.2496,4.1522,4.0654,3.9363,3.7264,3.6363,3.5526,3.4528,3.3266,3.2332,3.1904,3.1791,3.1934,3.2389,3.109,3.006,2.9428,2.9165,2.8804,2.8406,2.8259,2.8179,2.8179,2.8179,2.8112,2.7978,2.7776,2.7549,2.7281,2.6961,2.6747,2.6613,2.6453,2.6386,2.6386,2.6386,2.6386,2.6386,2.6386,2.6386,2.6386,2.6386,2.6386,2.6386,2.6386,2.6386,2.644,2.6734,2.6787,2.6854,2.7014,2.7202,2.7309,2.7295,2.7602,2.7951,2.7817,2.7978,2.8152,2.8005,2.8085,2.8138,2.8005,2.7978,2.7884,2.7549,2.6907,2.6279,2.5825,2.4262,0.0,0.0,2.3126,2.3447,2.4405,2.5745,2.68,2.7255,2.7362,2.7416,2.7495,2.7309,2.7416,2.7951,2.8511,2.8935,2.9272,2.9713,3.0234,3.0822,3.1089,3.1303,3.1463,3.1463,3.153,3.1711,3.153,3.1623,3.1904,3.1877,3.2131,3.2585,3.2755,3.2728,3.2572,3.2607,3.2326,3.1877,3.173,3.1711,3.1738,4.2957,4.3562,4.3841,4.3461,4.2309,4.1025,3.9882,3.8633,3.7003,3.4707,3.4656,3.4313,3.2776,3.2393,3.2091,3.1845,3.1751,3.1376,3.056,3.0114,2.9615,2.9028,2.8698,2.8433,2.8192,2.8179,2.8179,2.8179,2.8179,2.8179,2.8179,2.7951,2.7762,2.7682,2.7161,2.6894,2.6814,2.6587,2.6453,2.64,2.6466,2.6453,2.6386,2.6386,2.6386,2.6386,2.6386,2.6386,2.6386,2.6386,2.6386,2.6453,2.6814,2.6921,2.6987,2.7322,2.7403,2.7456,2.7642,2.7951,2.8179,2.8179,2.8179,2.8179,2.8179,2.8179,2.8179,2.8179,2.8179,2.8112,2.7843,2.7321,2.6734,2.6185,0.0,0.0,0.0,2.3888,2.4222,2.5264,2.636,2.7228,2.7749,2.8045,2.8125,2.7923,2.8165,2.8353,2.8486,2.8898,2.9339,2.978,3.0266,3.0702,3.1223,3.1289,3.145,3.1711,3.1711,3.1711,3.1711,3.1711,3.1824,3.2091,3.1864,3.2225,3.2959,3.2781,3.2781,3.2902,3.2688,3.2367,3.1971,3.1805,3.1764,3.1797,4.3298,4.3499,4.309,4.1578,4.0914,3.9453,3.6116,3.5232,3.428,3.2544,3.2358,3.2431,3.2567,3.2581,3.2447,3.2091,3.1824,3.1457,3.0795,3.0234,2.9615,2.9028,2.8526,2.8205,2.8179,2.8179,2.8179,2.8179,2.8179,2.8179,2.8179,2.8165,2.8005,2.7682,2.7375,2.7081,2.6787,2.676,2.664,2.6413,2.668,2.6627,2.6386,2.6386,2.6386,2.6386,2.6386,2.6386,2.6386,2.6386,2.6386,2.6493,2.7095,2.7269,2.7336,2.7589,2.7669,2.7669,2.7696,2.7951,2.8179,2.8179,2.8179,2.8179,2.8179,2.8179,2.8179,2.8179,2.8179,2.8179,2.8152,2.767,2.7081,2.6453,0.0,0.0,2.4572,2.4986,2.5585,2.6213,2.7081,2.7762,2.8125,2.8179,2.8299,2.8524,2.8564,2.8804,2.9352,2.9419,2.9833,3.0675,3.0742,3.0915,3.1223,3.1503,3.1698,3.1711,3.1711,3.1711,3.1711,3.1711,3.1824,3.2104,3.2078,3.2412,3.2973,3.2959,3.2848,3.2621,3.2607,3.2246,3.1751,3.1724,3.1837,3.2078,4.1771,4.1827,4.1429,3.9601,3.8159,3.676,3.5407,3.3851,3.3002,3.3587,3.2619,3.2341,3.3661,3.2586,3.1677,3.157,3.1289,3.0875,3.0287,2.9873,2.9392,2.8804,2.8406,2.8179,2.8179,2.8179,2.8179,2.8179,2.8179,2.8179,2.8179,2.8179,2.8125,2.8005,2.771,2.7375,2.7081,2.6894,2.6653,2.64,2.6507,2.6493,2.6413,2.6587,2.6547,2.6413,2.66,2.6547,2.6413,2.66,2.6653,2.676,2.7348,2.7535,2.7589,2.7924,2.8018,2.8018,2.8018,2.8098,2.8179,2.8179,2.8179,2.8179,2.8179,2.8179,2.8179,2.8179,2.8179,2.8179,2.8179,2.7844,2.7522,2.7523,0.0,2.581,2.6213,2.6146,2.6279,2.6907,2.759,2.8058,2.8179,2.8366,2.8484,2.8604,2.8938,2.9245,2.9472,2.9833,3.0341,3.1036,3.1062,3.1209,3.1503,3.1657,3.1711,3.1711,3.1711,3.1711,3.1711,3.1711,3.1979,3.242,3.2185,3.2545,3.324,3.3053,3.3013,3.3053,3.2741,3.2567,3.2438,3.2078,3.2118,3.242,3.9767,3.9807,3.9376,3.7413,3.5917,3.4991,3.4991,3.3653,3.3337,3.5275,3.384,3.3102,3.4435,3.2722,3.1423,3.1236,3.1049,3.0675,3.01,2.9606,2.9085,2.8484,2.8299,2.8179,2.8179,2.8179,2.8179,2.8179,2.8179,2.8179,2.8179,2.8179,2.8179,2.8165,2.7829,2.7589,2.7429,2.7188,2.6934,2.668,2.676,2.6694,2.656,2.6854,2.6787,2.656,2.6854,2.6827,2.6694,2.6894,2.6961,2.7041,2.7535,2.7762,2.7883,2.8125,2.8179,2.8179,2.8179,2.8179,2.8179,2.8179,2.8179,2.8179,2.8179,2.8179,2.8179,2.8179,2.8179,2.8179,2.8179,2.8018,2.7884,2.7911,2.7135,2.672,2.7229,2.7041,2.6987,2.7523,2.7938,2.8179,2.8179,2.8511,2.8751,2.8751,2.9285,2.9659,2.9798,3.0266,3.0755,3.1343,3.1276,3.1463,3.1992,3.1805,3.1711,3.1711,3.1805,3.1805,3.1724,3.1912,3.2219,3.2581,3.238,3.2679,3.3387,3.3093,3.304,3.3106,3.2755,3.2607,3.2532,3.2211,3.2291,3.2607,3.7512,3.7575,3.693,3.4949,3.4575,3.4575,3.4622,3.4575,3.5307,3.7345,3.5818,3.4575,3.4622,3.3082,3.1864,3.1229,3.1176,3.0969,3.044,2.9526,2.8764,2.8219,2.8179,2.8179,2.8179,2.8179,2.8179,2.8179,2.8179,2.8179,2.8179,2.8179,2.8179,2.8179,2.7829,2.7696,2.7696,2.7696,2.7535,2.7336,2.7575,2.7348,2.6854,2.7202,2.7081,2.6867,2.7161,2.7309,2.7309,2.7309,2.7309,2.7362,2.7615,2.7951,2.8179,2.8179,2.8179,2.8179,2.8179,2.8179,2.8179,2.8179,2.8179,2.8179,2.8179,2.8192,2.8192,2.8192,2.8192,2.8192,2.8192,2.8192,2.8005,2.7403,2.7509,2.7602,2.7349,2.7522,2.7816,2.8152,2.8192,2.8192,2.8192,2.8698,2.9001,2.9001,2.9548,3.0047,3.04,3.0635,3.1062,3.1698,3.1383,3.1664,3.2581,3.2005,3.1711,3.1724,3.1957,3.1944,3.1738,3.2326,3.2594,3.2594,3.2594,3.2929,3.3387,3.3093,3.2862,3.2594,3.2594,3.2246,3.1764,3.1998,3.234,3.2648,3.5757,3.5313,3.4636,3.2886,3.2371,3.2757,3.4359,3.3417,3.3793,3.7161,3.4668,3.3018,3.4175,3.245,3.1196,3.1223,3.0662,3.014,2.9766,2.9112,2.8657,2.847,2.8299,2.8179,2.8179,2.8179,2.8179,2.8179,2.8179,2.8179,2.8179,2.8179,2.8179,2.8179,2.8098,2.7938,2.7696,2.7696,2.7535,2.7309,2.7403,2.7295,2.7161,2.7455,2.7388,2.7175,2.7468,2.7483,2.7336,2.7495,2.7562,2.7615,2.7965,2.8112,2.8179,2.8179,2.8179,2.8179,2.8179,2.8179,2.8179,2.8179,2.8179,2.8179,2.8179,2.8353,2.847,2.847,2.8631,2.8711,2.8511,2.847,2.8379,2.7991,2.7991,2.8018,2.7938,2.815,2.8364,2.8457,2.8644,2.8858,2.9102,2.9432,2.9615,2.9615,3.0007,3.04,3.0648,3.1142,3.1583,3.1957,3.2091,3.2326,3.2594,3.2005,3.177,3.1971,3.1851,3.1805,3.1724,3.2064,3.2393,3.2607,3.2808,3.3066,3.3387,3.3093,3.2933,3.2875,3.2674,3.2607,3.2621,3.25,3.2732,3.3106,3.4668,3.387,3.3112,3.2886,3.2022,3.2109,3.4265,3.3605,3.3981,3.7161,3.4809,3.322,3.4266,3.2436,3.1169,3.1223,3.0528,2.9913,2.9513,2.9045,2.8724,2.8604,2.8353,2.8179,2.8179,2.8179,2.8179,2.8179,2.8179,2.8179,2.8179,2.8179,2.8179,2.8179,2.8179,2.8085,2.7911,2.7911,2.7817,2.7657,2.7657,2.759,2.751,2.7804,2.7696,2.7523,2.7776,2.7804,2.7684,2.7857,2.7911,2.7951,2.8125,2.8179,2.8179,2.8179,2.8179,2.8179,2.8179,2.8179,2.8219,2.8339,2.8272,2.8219,2.8339,2.847,2.8644,2.8751,2.8868,2.8948,2.8804,2.8778,2.8711,2.8524,2.8446,2.8406,2.8484,2.8564,2.8644,2.8764,2.8895,2.9108,2.9459,2.986,3.0194,3.0421,3.0595,3.0835,3.1129,3.1751,3.2193,3.2438,3.2554,3.2701,3.2929,3.2353,3.2086,3.2104,3.2086,3.1938,3.1724,3.2139,3.2367,3.2447,3.2848,3.308,3.3227,3.3053,3.2955,3.2835,3.2661,3.2634,3.2639,3.2741,3.2933,3.3187,3.4201,3.3168,3.2556,3.4528,3.3215,3.2616,3.4575,3.4575,3.5042,3.7068,3.5571,3.4298,3.4298,3.2689,3.145,3.1209,3.0675,3.0172,2.9566,2.9245,2.8908,2.8657,2.8393,2.8219,2.8179,2.8179,2.8179,2.8179,2.8179,2.8179,2.8179,2.8179,2.8179,2.8179,2.8179,2.8179,2.8179,2.8179,2.8179,2.8179,2.8179,2.8018,2.7762,2.8085,2.8018,2.7776,2.8085,2.8179,2.8179,2.8179,2.8179,2.8179,2.8179,2.8179,2.8179,2.8179,2.8179,2.8179,2.8179,2.8205,2.8299,2.8537,2.8417,2.8339,2.8577,2.8671,2.8764,2.8988,2.9055,2.9068,2.9041,2.9041,2.9028,2.9001,2.8818,2.8738,2.8961,2.8831,2.8791,2.9001,2.9081,2.9228,2.9566,3.0172,3.0748,3.1223,3.1289,3.1423,3.1738,3.2313,3.2755,3.2973,3.2795,3.2929,3.3414,3.2942,3.2514,3.2144,3.246,3.2286,3.1738,3.2326,3.2433,3.2131,3.2692,3.2933,3.2933,3.2906,3.2808,3.2594,3.2594,3.2447,3.2251,3.2786,3.3,3.3013,3.4157,3.4106,3.4329,3.656,3.5113,3.4375,3.6622,3.4309,3.3008,3.4995,3.3299,3.1959,3.1959,3.1193,3.0761,3.0875,3.0614,3.0253,2.9847,2.9553,2.9259,2.8908,2.8671,2.839,2.8192,2.8179,2.8179,2.8179,2.8179,2.8179,2.8179,2.8179,2.8179,2.8179,2.8179,2.8179,2.8179,2.8179,2.8179,2.8179,2.8179,2.8152,2.8098,2.8165,2.8138,2.8098,2.8165,2.8179,2.8179,2.8179,2.8179,2.8179,2.8179,2.8179,2.8179,2.8179,2.8179,2.8179,2.8179,2.8366,2.8524,2.8591,2.8724,2.8815,2.8895,2.9125,2.9312,2.9379,2.9566,2.9659,2.9432,2.9392,2.9312,2.9028,2.8948,2.8921,2.8988,2.9192,2.9312,2.9379,2.9793,3.0194,3.0474,3.1036,3.1483,3.1557,3.1784,3.1944,3.2011,3.2572,3.2969,3.2973,3.3133,3.328,3.3414,3.328,3.2959,3.25,3.2567,3.2286,3.1738,3.2326,3.2433,3.2118,3.2541,3.2688,3.2674,3.2385,3.2447,3.2594,3.2594,3.2688,3.2799,3.2933,3.312,3.332,3.5602,3.5913,3.6221,3.7406,3.5821,3.4478,3.4733,3.3008,3.2043,3.3102,3.2054,3.1176,3.1176,3.0835,3.0614,3.0627,3.0493,3.0279,2.994,2.9646,2.9352,2.9015,2.8721,2.8457,2.8192,2.8179,2.8179,2.8179,2.8179,2.8179,2.8179,2.8179,2.8179,2.8179,2.8179,2.8179,2.8179,2.8179,2.8179,2.8179,2.8179,2.8179,2.8179,2.8179,2.8179,2.8179,2.8179,2.8179,2.8179,2.8179,2.8179,2.8179,2.8179,2.8179,2.8179,2.8179,2.8179,2.8219,2.8366,2.8484,2.8671,2.8951,2.9138,2.9245,2.9245,2.9366,2.9526,2.9659,2.9806,2.9873,2.9713,2.9686,2.9633,2.9442,2.9339,2.9299,2.9388,2.9472,2.9539,2.9673,3.0132,3.0627,3.1203,3.149,3.1831,3.2112,3.2273,3.2372,3.2505,3.2946,3.3187,3.3187,3.3334,3.3414,3.3414,3.3414,3.3187,3.2795,3.2795,3.2487,3.1891,3.2246,3.2219,3.1917,3.2211,3.238,3.238,3.2318,3.246,3.2607,3.2741,3.2888,3.3,3.3133,3.32,3.32,3.7099,3.7575,3.7713,3.8035,3.6421,3.442,3.2434,3.1874,3.1698,3.1597,3.133,3.1169,3.1176,3.0929,3.0581,3.0279,3.0306,3.0181,2.9927,2.9686,2.9406,2.9015,2.8804,2.8511,2.8192,2.8179,2.8179,2.8179,2.8179,2.8179,2.8179,2.8179,2.8179,2.8179,2.8179,2.8179,2.8179,2.8179,2.8179,2.8179,2.8179,2.8179,2.8179,2.8179,2.8179,2.8179,2.8179,2.8179,2.8179,2.8179,2.8179,2.8179,2.8179,2.8179,2.8179,2.8179,2.8219,2.8326,2.8537,2.8684,2.8885,2.9419,2.9566,2.9579,2.9686,2.9633,2.9633,2.9927,2.9953,2.994,3.0047,3.002,3.0007,3.006,2.982,2.9713,2.9953,2.97,2.9593,2.9887,3.0221,3.0801,3.1631,3.1805,3.2072,3.2554,3.2688,3.2848,3.304,3.328,3.3414,3.3414,3.3414,3.3414,3.3414,3.3414,3.3293,3.3053,3.3053,3.2746,3.2185,3.2225,3.2091,3.1872,3.2024,3.2131,3.2198,3.2433,3.2581,3.2688,3.2929,3.3013,3.308,3.332,3.3253,3.3053,3.6775,3.7575,3.8127,3.9789,3.8494,3.6421,3.421,3.2606,3.1583,3.1316,3.1036,3.0942,3.1149,3.0742,3.0239,2.9646,2.9833,2.9967,2.9913,2.9887,2.9575,2.9015,2.8961,2.8711,2.8192,2.8179,2.8179,2.8179,2.8179,2.8179,2.8179,2.8179,2.8179,2.8179,2.8179,2.8179,2.8179,2.8179,2.8179,2.8179,2.8179,2.8179,2.8179,2.8179,2.8179,2.8179,2.8179,2.8179,2.8179,2.8179,2.8179,2.8179,2.8179,2.8179,2.8179,2.8179,2.8379,2.8551,2.8591,2.8978,2.9446,2.978,2.986,2.9993,3.0501,3.0221,2.994,3.0279,3.01,3.0074,3.0581,3.0474,3.0426,3.0635,3.0434,3.0306,3.0346,2.9833,2.9593,2.9887,3.0394,3.0982,3.1657,3.2179,3.2514,3.2581,3.3013,3.3307,3.3347,3.3387,3.3414,3.3414,3.3414,3.3414,3.3414,3.3414,3.3387,3.336,3.336,3.3053,3.2541,3.2746,3.2755,3.246,3.2198,3.2251,3.2514,3.2251,3.2465,3.2969,3.3009,3.3133,3.336,3.34,3.3387,3.336,3.8498,3.9047,3.9084,3.8688,3.6969,3.4934,3.2662,3.168,3.1129,3.1009,3.0728,3.0595,3.0728,3.0368,3.0007,2.9753,2.9847,2.9913,2.9913,2.9913,2.9615,2.9028,2.9001,2.8764,2.8205,2.8179,2.8179,2.8179,2.8179,2.8179,2.8179,2.8179,2.8179,2.8179,2.8179,2.8179,2.8179,2.8179,2.8179,2.8179,2.8179,2.8179,2.8179,2.8179,2.8179,2.8179,2.8179,2.8179,2.8179,2.8179,2.8179,2.8179,2.8179,2.8179,2.8179,2.8179,2.8406,2.8644,2.8761,2.9272,2.9793,3.0087,3.0287,3.0434,3.0528,3.0354,3.0207,3.0386,3.0127,2.9993,3.0261,3.0341,3.04,3.0314,3.0386,3.0346,3.014,2.9887,2.99,3.0354,3.0635,3.1089,3.1837,3.2144,3.2487,3.2808,3.3026,3.324,3.34,3.3414,3.3414,3.3414,3.3414,3.3414,3.3414,3.3414,3.3414,3.3414,3.3414,3.3187,3.2835,3.2969,3.2875,3.2581,3.246,3.2474,3.2594,3.2572,3.2746,3.2986,3.316,3.3293,3.3414,3.3414,3.3414,3.3414]},{"header":{"parameterUnit":"m.s-1","parameterCategory":1,"la1":30.6,"la2":28.766,"lo1":-90.7593,"lo2":-88.6598,"dy":0.0162,"dx":0.0183,"nx":116,"ny":114,"refTime":"2023-04-09T00:00:00:Z","depth":0,"parameterNumber":3,"parameterNumberName":"V-component_of_WINDS"},"data":[0.0,0.0,0.0,0.0,0.0,0.0,0.0,0.0,0.0,0.0,0.0,0.0,0.0,0.0,0.0,0.0,0.0,0.0,0.0,0.0,0.0,0.0,0.0,0.0,0.0,0.0,0.0,0.0,0.0,0.0,0.0,0.0,0.0,0.0,0.0,0.0,0.0,0.0,0.0,0.0,0.0,0.0,0.0,0.0,0.0,0.0,0.0,0.0,0.0,0.0,0.0,0.0,0.0,0.0,0.0,0.0,0.0,0.0,0.0,0.0,0.0,0.0,0.0,0.0,0.0,0.0,0.0,0.0,0.0,0.0,0.0,0.0,0.0,0.0,0.0,0.0,0.0,0.0,0.0,0.0,0.0,0.0,0.0,0.0,0.0,0.0,0.0,0.0,0.0,0.0,0.0,0.0,0.0,0.0,0.0,0.0,0.0,0.0,0.0,0.0,0.0,0.0,0.0,0.0,0.0,0.0,0.0,0.0,0.0,0.0,0.0,0.0,0.0,0.0,0.0,0.0,0.0,0.0,0.0,0.0,0.0,0.0,0.0,0.0,0.0,0.0,0.0,0.0,0.0,0.0,0.0,0.0,0.0,0.0,0.0,0.0,0.0,0.0,0.0,0.0,0.0,0.0,0.0,0.0,0.0,0.0,0.0,0.0,0.0,0.0,0.0,0.0,0.0,0.0,0.0,0.0,0.0,0.0,0.0,0.0,0.0,0.0,0.0,0.0,0.0,0.0,0.0,0.0,0.0,0.0,0.0,0.0,0.0,0.0,0.0,0.0,0.0,0.0,0.0,0.0,0.0,0.0,0.0,0.0,0.0,0.0,0.0,0.0,0.0,0.0,0.0,0.0,0.0,0.0,0.0,0.0,0.0,0.0,0.0,0.0,0.0,0.0,0.0,0.0,0.0,0.0,0.0,0.0,0.0,0.0,0.0,0.0,0.0,0.0,0.0,0.0,0.0,0.0,0.0,0.0,0.0,0.0,0.0,0.0,0.0,0.0,0.0,0.0,0.0,0.0,0.0,0.0,0.0,0.0,0.0,0.0,0.0,0.0,0.0,0.0,0.0,0.0,0.0,0.0,0.0,0.0,0.0,0.0,0.0,0.0,0.0,0.0,0.0,0.0,0.0,0.0,0.0,0.0,0.0,0.0,0.0,0.0,0.0,0.0,0.0,0.0,0.0,0.0,0.0,0.0,0.0,0.0,0.0,0.0,0.0,0.0,0.0,0.0,0.0,0.0,0.0,0.0,0.0,0.0,0.0,0.0,0.0,0.0,0.0,0.0,0.0,0.0,0.0,0.0,0.0,0.0,0.0,0.0,0.0,0.0,0.0,0.0,0.0,0.0,0.0,0.0,0.0,0.0,0.0,0.0,0.0,0.0,0.0,0.0,0.0,0.0,0.0,0.0,0.0,0.0,0.0,0.0,0.0,0.0,0.0,0.0,0.0,0.0,0.0,0.0,0.0,0.0,0.0,0.0,0.0,0.0,0.0,0.0,0.0,0.0,0.0,0.0,0.0,0.0,0.0,0.0,0.0,0.0,0.0,0.0,0.0,0.0,0.0,0.0,0.0,0.0,0.0,0.0,0.0,0.0,0.0,0.0,0.0,0.0,0.0,0.0,0.0,0.0,0.0,0.0,0.0,0.0,0.0,0.0,0.0,0.0,0.0,0.0,0.0,0.0,0.0,0.0,0.0,0.0,0.0,0.0,0.0,0.0,0.0,0.0,0.0,0.0,0.0,0.0,0.0,0.0,0.0,0.0,0.0,0.0,0.0,0.0,0.0,0.0,0.0,0.0,0.0,0.0,0.0,0.0,0.0,0.0,0.0,0.0,0.0,0.0,0.0,0.0,0.0,0.0,0.0,0.0,0.0,0.0,0.0,0.0,0.0,0.0,0.0,0.0,0.0,0.0,0.0,0.0,0.0,0.0,0.0,0.0,0.0,0.0,0.0,0.0,0.0,0.0,0.0,0.0,0.0,0.0,0.0,0.0,0.0,0.0,0.0,0.0,0.0,0.0,0.0,0.0,0.0,0.0,0.0,0.0,0.0,0.0,0.0,0.0,0.0,0.0,0.0,0.0,0.0,0.0,0.0,0.0,0.0,0.0,0.0,0.0,0.0,0.0,0.0,0.0,0.0,0.0,0.0,0.0,0.0,0.0,0.0,0.0,0.0,0.0,0.0,0.0,0.0,0.0,0.0,0.0,0.0,0.0,0.0,0.0,0.0,0.0,0.0,0.0,0.0,0.0,0.0,0.0,0.0,0.0,0.0,0.0,0.0,0.0,0.0,0.0,0.0,0.0,0.0,0.0,0.0,0.0,0.0,0.0,0.0,0.0,0.0,0.0,0.0,0.0,0.0,0.0,0.0,0.0,0.0,0.0,0.0,0.0,0.0,0.0,0.0,0.0,0.0,0.0,0.0,0.0,0.0,0.0,0.0,0.0,0.0,0.0,0.0,0.0,0.0,0.0,0.0,0.0,0.0,0.0,0.0,0.0,0.0,0.0,0.0,0.0,0.0,0.0,0.0,0.0,0.0,0.0,0.0,0.0,0.0,0.0,0.0,0.0,0.0,0.0,0.0,0.0,0.0,0.0,0.0,0.0,0.0,0.0,0.0,0.0,0.0,0.0,0.0,0.0,0.0,0.0,0.0,0.0,0.0,0.0,0.0,0.0,0.0,0.0,0.0,0.0,0.0,0.0,0.0,0.0,0.0,0.0,0.0,0.0,0.0,0.0,0.0,0.0,0.0,0.0,0.0,0.0,0.0,0.0,0.0,0.0,0.0,0.0,0.0,0.0,0.0,0.0,0.0,0.0,0.0,0.0,0.0,0.0,0.0,0.0,0.0,0.0,0.0,0.0,0.0,0.0,0.0,0.0,0.0,0.0,0.0,0.0,0.0,0.0,0.0,0.0,0.0,0.0,0.0,0.0,0.0,0.0,0.0,0.0,0.0,0.0,0.0,0.0,0.0,0.0,0.0,0.0,0.0,0.0,0.0,0.0,0.0,0.0,0.0,0.0,0.0,0.0,0.0,0.0,0.0,0.0,0.0,0.0,0.0,0.0,0.0,0.0,0.0,0.0,0.0,0.0,0.0,0.0,0.0,0.0,0.0,0.0,0.0,0.0,0.0,0.0,0.0,0.0,0.0,0.0,0.0,0.0,0.0,0.0,0.0,0.0,0.0,0.0,0.0,0.0,0.0,0.0,0.0,0.0,0.0,0.0,0.0,0.0,0.0,0.0,0.0,0.0,0.0,0.0,0.0,0.0,0.0,0.0,0.0,0.0,0.0,0.0,0.0,0.0,0.0,0.0,0.0,0.0,0.0,0.0,0.0,0.0,0.0,0.0,0.0,0.0,0.0,0.0,0.0,0.0,0.0,0.0,0.0,0.0,0.0,0.0,0.0,0.0,0.0,0.0,0.0,0.0,0.0,0.0,0.0,0.0,0.0,0.0,0.0,0.0,0.0,0.0,0.0,0.0,0.0,0.0,0.0,0.0,0.0,0.0,0.0,0.0,0.0,0.0,0.0,0.0,0.0,0.0,0.0,0.0,0.0,0.0,0.0,0.0,0.0,0.0,0.0,0.0,0.0,0.0,0.0,0.0,0.0,0.0,0.0,0.0,0.0,0.0,0.0,0.0,0.0,0.0,0.0,0.0,0.0,0.0,0.0,0.0,0.0,0.0,0.0,0.0,0.0,0.0,0.0,0.0,0.0,0.0,0.0,0.0,0.0,0.0,0.0,0.0,0.0,0.0,0.0,0.0,0.0,0.0,0.0,0.0,0.0,0.0,0.0,0.0,0.0,0.0,0.0,0.0,0.0,0.0,0.0,0.0,0.0,0.0,0.0,0.0,0.0,0.0,0.0,0.0,0.0,0.0,0.0,0.0,0.0,0.0,0.0,0.0,0.0,0.0,0.0,0.0,0.0,0.0,0.0,0.0,0.0,0.0,0.0,0.0,0.0,0.0,0.0,0.0,0.0,0.0,0.0,0.0,0.0,0.0,0.0,0.0,0.0,0.0,0.0,0.0,0.0,0.0,0.0,0.0,0.0,0.0,0.0,0.0,0.0,0.0,0.0,0.0,0.0,0.0,0.0,0.0,0.0,0.0,0.0,0.0,0.0,0.0,0.0,0.0,0.0,0.0,0.0,0.0,0.0,0.0,0.0,0.0,0.0,0.0,0.0,0.0,0.0,0.0,0.0,0.0,0.0,0.0,0.0,0.0,0.0,0.0,0.0,0.0,0.0,0.0,0.0,0.0,0.0,0.0,0.0,0.0,0.0,0.0,0.0,0.0,0.0,0.0,0.0,0.0,0.0,0.0,0.0,0.0,0.0,0.0,0.0,0.0,0.0,0.0,0.0,0.0,0.0,0.0,0.0,0.0,0.0,0.0,0.0,0.0,0.0,0.0,0.0,0.0,0.0,0.0,0.0,0.0,0.0,0.0,0.0,0.0,0.0,0.0,0.0,0.0,0.0,0.0,0.0,0.0,0.0,0.0,0.0,0.0,0.0,0.0,0.0,0.0,0.0,0.0,0.0,0.0,0.0,0.0,0.0,0.0,0.0,0.0,0.0,0.0,0.0,0.0,0.0,0.0,0.0,0.0,0.0,0.0,0.0,0.0,0.0,0.0,0.0,0.0,0.0,0.0,0.0,0.0,0.0,0.0,0.0,0.0,0.0,0.0,0.0,0.0,0.0,0.0,0.0,0.0,0.0,0.0,0.0,0.0,0.0,0.0,0.0,0.0,0.0,0.0,0.0,0.0,0.0,0.0,0.0,0.0,0.0,0.0,0.0,0.0,0.0,0.0,0.0,0.0,0.0,0.0,0.0,0.0,0.0,0.0,0.0,0.0,0.0,0.0,0.0,0.0,0.0,0.0,0.0,0.0,0.0,0.0,0.0,0.0,0.0,0.0,0.0,0.0,0.0,0.0,0.0,0.0,0.0,0.0,0.0,0.0,0.0,0.0,0.0,0.0,0.0,0.0,0.0,0.0,0.0,0.0,0.0,0.0,0.0,0.0,0.0,0.0,0.0,0.0,0.0,0.0,0.0,0.0,0.0,0.0,0.0,0.0,0.0,0.0,0.0,0.0,0.0,0.0,0.0,0.0,0.0,0.0,0.0,0.0,0.0,0.0,0.0,0.0,0.0,0.0,0.0,0.0,0.0,0.0,0.0,0.0,0.0,0.0,0.0,0.0,0.0,0.0,0.0,0.0,0.0,0.0,0.0,0.0,0.0,0.0,0.0,0.0,0.0,0.0,0.0,0.0,0.0,0.0,0.0,0.0,0.0,0.0,0.0,0.0,0.0,0.0,0.0,0.0,0.0,0.0,0.0,0.0,0.0,0.0,0.0,0.0,0.0,0.0,0.0,0.0,0.0,0.0,0.0,0.0,0.0,0.0,0.0,0.0,0.0,0.0,0.0,0.0,0.0,0.0,0.0,0.0,0.0,0.0,0.0,0.0,0.0,0.0,0.0,0.0,0.0,0.0,0.0,0.0,0.0,0.0,0.0,0.0,0.0,0.0,0.0,0.0,0.0,0.0,0.0,0.0,0.0,0.0,0.0,0.0,0.0,0.0,0.0,0.0,0.0,0.0,0.0,0.0,0.0,0.0,0.0,0.0,0.0,0.0,0.0,0.0,0.0,0.0,0.0,0.0,0.0,0.0,0.0,0.0,0.0,0.0,0.0,0.0,0.0,0.0,0.0,0.0,0.0,0.0,0.0,0.0,0.0,0.0,0.0,0.0,0.0,0.0,0.0,0.0,0.0,0.0,0.0,0.0,0.0,0.0,0.0,0.0,0.0,0.0,0.0,0.0,0.0,0.0,0.0,0.0,0.0,0.0,0.0,0.0,0.0,0.0,0.0,0.0,0.0,0.0,0.0,0.0,0.0,0.0,0.0,0.0,0.0,0.0,0.0,0.0,0.0,0.0,0.0,0.0,0.0,0.0,0.0,0.0,0.0,0.0,0.0,0.0,0.0,0.0,0.0,0.0,0.0,0.0,0.0,0.0,0.0,0.0,0.0,0.0,0.0,0.0,0.0,0.0,0.0,0.0,0.0,0.0,0.0,0.0,0.0,0.0,0.0,0.0,0.0,0.0,0.0,0.0,4.7252,0.0,0.0,0.0,0.0,0.0,0.0,0.0,0.0,0.0,0.0,0.0,0.0,0.0,0.0,0.0,0.0,0.0,0.0,0.0,0.0,0.0,0.0,0.0,0.0,0.0,0.0,0.0,0.0,0.0,0.0,0.0,0.0,0.0,0.0,0.0,0.0,0.0,0.0,3.8491,3.883,3.9322,3.9985,3.9955,3.9431,3.8491,0.0,0.0,0.0,0.0,0.0,0.0,0.0,0.0,0.0,0.0,0.0,0.0,0.0,0.0,0.0,0.0,0.0,0.0,0.0,0.0,0.0,0.0,0.0,0.0,0.0,0.0,0.0,0.0,0.0,0.0,0.0,0.0,0.0,0.0,0.0,0.0,0.0,0.0,0.0,0.0,0.0,0.0,0.0,0.0,0.0,0.0,0.0,0.0,0.0,0.0,0.0,0.0,0.0,0.0,0.0,0.0,0.0,0.0,0.0,0.0,0.0,0.0,0.0,0.0,0.0,0.0,0.0,0.0,0.0,0.0,0.0,4.9613,0.0,0.0,0.0,0.0,0.0,0.0,0.0,0.0,0.0,0.0,0.0,0.0,0.0,0.0,0.0,0.0,0.0,0.0,0.0,0.0,0.0,0.0,0.0,3.6215,3.6661,3.6661,3.6784,3.7092,0.0,0.0,0.0,0.0,0.0,0.0,3.8775,3.8832,3.8863,3.8945,3.991,4.1107,4.2479,4.3279,4.243,4.0214,3.9524,0.0,0.0,0.0,0.0,0.0,0.0,0.0,0.0,0.0,0.0,0.0,0.0,0.0,0.0,0.0,0.0,0.0,0.0,0.0,0.0,0.0,0.0,0.0,0.0,0.0,0.0,0.0,0.0,0.0,0.0,0.0,0.0,0.0,0.0,0.0,0.0,0.0,0.0,0.0,0.0,0.0,0.0,0.0,0.0,0.0,0.0,0.0,0.0,0.0,0.0,0.0,0.0,0.0,0.0,0.0,0.0,0.0,0.0,0.0,0.0,0.0,0.0,0.0,5.7896,5.9291,6.1184,6.1031,6.1492,6.2058,5.6579,5.4024,5.3654,0.0,0.0,0.0,0.0,0.0,0.0,0.0,0.0,0.0,0.0,0.0,0.0,0.0,0.0,0.0,0.0,0.0,0.0,0.0,0.0,0.0,3.5445,3.6615,3.7369,3.7369,3.7892,3.8276,3.8368,0.0,0.0,0.0,0.0,0.0,3.9897,4.0138,4.0416,4.0772,4.2906,4.4622,4.5957,4.7219,4.7599,4.7107,4.3599,4.2386,4.2805,0.0,0.0,0.0,0.0,0.0,0.0,0.0,0.0,0.0,0.0,0.0,0.0,0.0,0.0,0.0,0.0,0.0,0.0,0.0,0.0,0.0,0.0,0.0,0.0,0.0,0.0,0.0,0.0,0.0,0.0,0.0,0.0,0.0,0.0,0.0,0.0,0.0,0.0,0.0,0.0,0.0,4.6163,4.5679,0.0,0.0,0.0,0.0,0.0,0.0,0.0,0.0,0.0,0.0,0.0,0.0,0.0,5.7602,5.9772,6.1132,6.233,6.3347,6.4103,6.5021,6.5876,6.5236,6.5703,6.6968,6.6074,0.0,5.8879,5.6225,0.0,0.0,0.0,0.0,0.0,0.0,0.0,0.0,0.0,0.0,0.0,0.0,0.0,0.0,0.0,0.0,0.0,0.0,0.0,0.0,0.0,3.7696,3.8867,3.9469,4.1339,4.1921,4.06,4.1975,0.0,0.0,0.0,4.1325,4.1325,4.0999,4.1761,4.3629,4.698,4.9066,5.0051,5.1383,5.1845,5.1383,4.963,4.7311,4.4652,4.334,0.0,0.0,0.0,0.0,0.0,0.0,0.0,0.0,0.0,0.0,0.0,0.0,0.0,0.0,0.0,0.0,0.0,0.0,0.0,0.0,0.0,0.0,0.0,0.0,0.0,0.0,0.0,0.0,0.0,0.0,0.0,0.0,0.0,0.0,0.0,0.0,0.0,0.0,0.0,4.7269,4.8914,4.774,4.9678,5.0467,0.0,0.0,0.0,0.0,0.0,0.0,0.0,0.0,0.0,6.115,6.2249,6.3924,6.6201,6.73,6.8629,7.0197,7.0951,7.1921,7.3071,7.2755,7.2992,7.3578,7.3578,7.1548,6.7907,6.3229,5.99,5.7541,0.0,0.0,0.0,0.0,5.7476,5.7543,0.0,0.0,0.0,0.0,0.0,0.0,0.0,0.0,0.0,0.0,0.0,0.0,3.7997,3.9727,4.1426,4.2995,4.5067,4.5613,4.3997,4.4847,4.466,4.2912,4.2573,4.2427,4.2427,4.2785,4.4439,4.7327,5.1284,5.3573,5.4299,5.5629,5.5906,5.526,5.526,5.2236,4.7096,4.6069,4.4541,4.2817,0.0,0.0,0.0,0.0,0.0,0.0,0.0,0.0,0.0,0.0,0.0,0.0,0.0,0.0,0.0,0.0,0.0,0.0,0.0,0.0,0.0,0.0,0.0,0.0,0.0,0.0,0.0,0.0,0.0,0.0,0.0,0.0,0.0,0.0,0.0,0.0,0.0,4.9913,5.1772,4.996,5.2973,5.4231,0.0,0.0,0.0,0.0,0.0,0.0,6.0854,6.3159,6.5514,6.7895,6.9079,7.0737,7.3026,7.3781,7.5067,7.6893,7.7435,7.8382,7.9667,7.9464,7.9397,7.9422,7.9194,7.7942,7.5574,6.9586,6.5121,6.1975,6.0892,6.0114,5.9776,6.1061,6.1637,6.2178,0.0,0.0,0.0,0.0,0.0,0.0,0.0,0.0,0.0,0.0,0.0,3.7668,4.0672,4.2984,4.5515,4.8434,4.8376,4.8341,4.8719,4.5982,4.4354,4.4297,4.3329,4.2754,4.2754,4.6293,4.9399,5.2036,5.5576,5.7717,5.8541,5.987,6.0147,5.947,5.947,5.6484,5.1251,4.923,4.7619,4.6111,4.3587,0.0,0.0,0.0,0.0,0.0,0.0,0.0,0.0,0.0,0.0,0.0,0.0,0.0,0.0,0.0,0.0,0.0,0.0,0.0,0.0,0.0,0.0,0.0,0.0,0.0,0.0,0.0,0.0,0.0,0.0,0.0,0.0,0.0,0.0,0.0,0.0,0.0,0.0,5.2387,5.666,0.0,0.0,0.0,0.0,6.0839,6.2882,6.4776,6.6318,6.8571,7.1142,7.4086,7.6284,7.8508,8.0741,8.146,8.2272,8.305,8.3084,8.3524,8.4242,8.3558,8.3219,8.3186,8.2475,8.1325,7.9464,7.3477,6.9654,6.7286,6.5155,6.4309,6.4377,6.5121,6.5865,6.6588,0.0,0.0,0.0,0.0,0.0,0.0,0.0,0.0,3.5816,3.7361,3.845,4.065,4.4808,4.712,4.9938,5.3783,5.4875,5.463,5.289,5.0879,4.9136,4.7688,4.5809,4.5918,4.8349,5.19,5.526,5.8377,6.1763,6.3765,6.4373,6.5749,6.5561,6.4116,6.4168,6.1719,5.7346,5.3937,5.0737,4.7742,4.5895,4.4283,0.0,0.0,0.0,0.0,0.0,0.0,0.0,0.0,0.0,0.0,0.0,0.0,0.0,0.0,0.0,0.0,0.0,0.0,0.0,0.0,0.0,0.0,0.0,0.0,0.0,0.0,0.0,0.0,0.0,0.0,0.0,0.0,0.0,0.0,0.0,0.0,0.0,5.9449,6.3687,0.0,6.3071,6.4241,6.5256,6.5527,6.8504,7.0973,7.2462,7.5134,7.7773,8.0242,8.1596,8.3118,8.4877,8.5182,8.5452,8.5689,8.6163,8.6298,8.6068,8.6298,8.6129,8.5689,8.5418,8.4742,8.3592,8.0953,7.6835,7.209,7.0804,6.9755,6.9147,7.0804,7.1582,7.2135,0.0,0.0,0.0,0.0,0.0,0.0,0.0,0.0,3.6777,3.845,4.0578,4.372,4.8441,5.1925,5.5537,5.9659,6.038,5.9504,5.6902,5.3812,5.1254,4.9382,4.8335,4.9536,5.3277,5.7158,6.0728,6.4057,6.675,6.8376,6.9018,6.9704,6.9018,6.7306,6.7764,6.5943,6.2336,5.9781,5.5597,5.0491,4.8696,4.7311,4.5976,0.0,0.0,0.0,0.0,0.0,0.0,0.0,0.0,0.0,0.0,0.0,0.0,0.0,0.0,0.0,0.0,0.0,0.0,0.0,0.0,0.0,0.0,0.0,0.0,0.0,0.0,0.0,0.0,0.0,0.0,0.0,0.0,0.0,0.0,0.0,6.3857,6.4805,6.9131,7.1075,6.855,6.9979,7.1163,7.1434,7.4986,7.7818,7.9346,8.2267,8.4551,8.6011,8.7037,8.7919,8.87,8.87,8.8645,8.8534,8.907,8.8981,8.8395,8.8903,8.8835,8.8361,8.7854,8.7211,8.6467,8.5723,8.2449,7.785,7.6589,7.5506,7.4864,7.6318,7.686,7.7198,0.0,0.0,0.0,0.0,0.0,0.0,3.8008,3.6962,3.6674,3.8818,4.2471,4.6752,5.1501,5.7258,6.2246,6.5975,6.446,6.2522,6.071,5.4434,5.03,4.9274,5.0822,5.3493,5.7339,6.1973,6.5871,6.8985,7.032,7.1423,7.2353,7.1612,7.0463,6.9117,7.0341,6.9065,6.5987,6.6512,6.2223,5.4829,5.2052,5.1221,5.1128,0.0,0.0,0.0,0.0,0.0,0.0,0.0,0.0,0.0,0.0,0.0,0.0,0.0,0.0,0.0,0.0,0.0,0.0,0.0,0.0,0.0,0.0,0.0,0.0,0.0,0.0,0.0,0.0,0.0,0.0,0.0,0.0,0.0,5.9325,6.4451,6.8216,6.8371,7.2925,7.4921,7.2079,7.5349,7.7962,7.8676,8.2399,8.5318,8.6857,8.9702,9.1275,9.1207,9.2649,9.3059,9.2245,9.2245,9.2139,9.1857,9.1857,9.1716,9.1401,9.1401,9.1401,9.1299,8.9873,8.8829,8.8119,8.7347,8.6163,8.458,8.2306,8.1452,8.1418,8.1452,8.1452,8.1587,0.0,0.0,0.0,0.0,0.0,0.0,3.712,3.6671,3.7323,4.0475,4.4705,4.9829,5.6191,6.1273,6.6007,7.0505,6.7479,6.461,6.2994,5.6032,5.2037,5.2214,5.475,5.9442,6.6559,6.8514,7.1521,7.5732,7.6096,7.6343,7.6401,7.6741,7.6139,7.4812,7.5045,7.3077,6.9654,6.9571,6.694,6.2425,5.7715,5.4176,5.1436,0.0,0.0,0.0,0.0,0.0,0.0,0.0,0.0,0.0,0.0,0.0,0.0,0.0,0.0,0.0,0.0,0.0,0.0,0.0,0.0,0.0,0.0,0.0,0.0,0.0,0.0,0.0,0.0,0.0,0.0,0.0,0.0,6.6102,6.6981,7.103,7.532,7.9108,8.1994,8.3585,8.3279,8.4728,8.5804,8.6001,8.8548,9.055,9.1508,9.2848,9.3571,9.3571,9.3981,9.3845,9.3093,9.3606,9.3549,9.298,9.3492,9.3708,9.3623,9.3623,9.3623,9.3555,9.2634,9.1976,9.1478,9.0765,9.0047,8.914,8.5824,8.42,8.3734,8.4336,8.4877,8.5384,0.0,0.0,0.0,0.0,0.0,0.0,3.743,3.7472,3.861,4.1948,4.736,5.3239,5.9345,6.487,6.9236,7.1965,6.8702,6.5121,6.2004,5.6468,5.3887,5.5237,6.0047,6.5412,7.1243,7.3636,7.6499,7.981,7.95,7.9568,8.0048,8.0186,7.9628,7.8555,7.8655,7.6889,7.369,7.315,7.1056,6.7752,6.3985,6.0147,5.6453,5.3375,5.2052,5.1528,4.8912,4.845,4.8758,4.6808,0.0,0.0,0.0,0.0,0.0,0.0,0.0,0.0,0.0,0.0,0.0,0.0,0.0,0.0,0.0,0.0,0.0,0.0,0.0,0.0,0.0,0.0,0.0,0.0,6.8413,7.3298,7.6213,7.8102,8.0891,8.5503,8.7572,8.8848,8.9627,9.0769,9.1303,9.0987,9.3188,9.4582,9.4685,9.5714,9.6161,9.5852,9.6161,9.5955,9.5234,9.5646,9.5561,9.4973,9.5418,9.5566,9.5417,9.5417,9.5417,0.0,9.4323,9.3589,9.3043,9.2265,9.167,0.0,0.0,0.0,0.0,0.0,8.6813,8.738,0.0,0.0,0.0,0.0,0.0,0.0,3.8333,3.8631,3.9924,4.3089,4.9788,5.6056,6.079,6.7248,7.1277,7.136,6.8451,6.4473,5.9337,5.6576,5.6357,5.9081,6.6033,7.107,7.3796,7.7913,8.0741,8.219,8.1545,8.1925,8.3293,8.2604,8.1957,8.1403,8.1831,8.0578,7.8112,7.7127,7.4945,7.193,7.0377,6.7399,6.3383,5.8485,5.7247,5.7709,5.4545,5.2298,5.0811,5.0473,0.0,0.0,0.0,0.0,0.0,0.0,0.0,0.0,0.0,0.0,0.0,0.0,0.0,0.0,0.0,0.0,0.0,0.0,0.0,0.0,0.0,0.0,0.0,0.0,7.5139,8.0398,8.5481,8.5301,8.5909,8.9182,9.0981,9.2206,9.2959,9.4554,9.5312,9.4666,9.6776,9.7808,9.7158,0.0,0.0,0.0,0.0,9.867,9.7842,9.7911,9.7769,9.7351,9.7351,9.727,9.7077,9.6974,9.6974,9.6974,9.56,9.458,9.3901,9.2984,9.2198,9.1397,9.0703,9.0171,8.9647,8.8348,8.8116,8.8473,0.0,0.0,0.0,0.0,0.0,0.0,3.8296,3.7963,3.9008,4.2909,4.9307,5.4907,5.8551,6.4896,6.9335,7.0509,6.672,6.2752,5.9218,5.9064,6.1496,6.6861,7.0829,7.543,8.081,8.2362,8.3604,8.4535,8.4984,8.5363,8.5639,8.5501,8.5668,8.6068,8.5967,8.4736,8.2764,8.1732,8.0079,7.793,7.5722,7.0791,6.4518,6.286,6.1409,5.9993,5.8264,5.774,5.75,5.5307,5.4661,5.4322,5.1436,4.9774,0.0,0.0,0.0,0.0,0.0,0.0,0.0,0.0,0.0,0.0,0.0,0.0,0.0,0.0,0.0,0.0,0.0,0.0,0.0,7.5287,8.0817,8.5787,8.9846,9.1923,9.325,9.3758,9.5362,9.6742,9.7465,9.8418,9.917,9.9653,10.0194,10.0573,10.112,10.1396,0.0,10.0499,10.0602,10.0016,9.8601,9.9159,9.913,9.8487,0.0,0.0,9.9261,9.8676,9.871,9.9227,9.8332,9.7706,9.7235,9.5926,9.4727,9.3714,9.2338,9.1764,9.1649,9.1342,9.1314,9.1293,0.0,0.0,0.0,0.0,0.0,0.0,3.8604,3.8697,3.9991,4.3633,4.9299,5.399,5.6645,6.1626,6.4564,6.4202,6.0668,5.8495,5.8444,6.0978,6.5324,7.1829,7.612,8.0293,8.4501,8.5708,8.6501,8.688,8.688,8.6846,8.6846,8.6846,8.7053,8.7407,8.7658,8.7049,8.5682,8.4419,8.2892,8.1049,7.878,7.5348,7.1152,6.8049,6.6027,6.4672,6.3318,6.2179,6.1101,5.9716,5.8608,5.7401,5.4999,5.3067,5.1374,0.0,0.0,0.0,0.0,0.0,0.0,0.0,0.0,0.0,0.0,0.0,0.0,0.0,0.0,6.3309,0.0,0.0,7.7182,8.1785,8.6825,9.1067,9.3656,9.6109,9.7447,9.6954,9.8004,9.9228,10.0395,10.1223,10.1608,10.1608,10.2017,10.2224,10.2224,10.2224,10.1913,10.112,10.1499,10.112,9.9981,10.0706,10.0913,10.0499,10.009,10.009,10.0499,9.9676,9.9538,9.9849,9.909,9.8693,9.8446,9.7374,9.66,9.5983,9.4782,9.3722,9.2751,9.2514,9.235,9.2142,0.0,0.0,0.0,0.0,0.0,0.0,0.0,3.9506,4.0956,4.3973,4.8722,5.244,5.4086,5.7685,5.9116,5.6961,5.5391,5.5839,5.9012,6.3634,6.9291,7.6154,8.0879,8.4363,8.6467,8.7743,8.8295,8.8157,8.7639,8.7501,8.7639,8.7639,8.7881,8.8329,8.8984,8.8984,8.8424,8.7101,8.5734,8.4305,8.2148,8.0602,7.9069,7.3936,7.119,6.9874,6.8427,6.5873,6.3225,6.3225,6.1409,5.9003,5.7925,5.6423,5.4583,5.2206,5.0482,0.0,0.0,0.0,0.0,0.0,0.0,0.0,0.0,0.0,5.9684,6.2412,6.6296,7.0427,7.4453,7.9418,8.4181,8.8097,9.2364,9.5641,9.6952,9.9124,10.0297,9.9711,10.0194,10.109,10.25,10.3298,10.3574,10.3091,10.3505,10.3505,10.2884,10.2677,10.2327,10.1603,10.212,10.2086,10.1327,10.1913,10.2224,10.2224,10.1603,10.1194,10.1085,10.0602,10.0194,9.9883,9.9435,9.9257,9.9188,9.8463,9.8049,9.7842,9.7021,9.5706,9.4145,9.347,9.3044,9.2816,0.0,0.0,0.0,0.0,0.0,0.0,0.0,0.0,4.0013,4.2453,4.6221,4.8919,4.9505,5.2961,5.4616,5.2996,5.6288,6.0013,6.3703,6.8897,7.4865,8.1707,8.388,8.5673,8.726,8.7467,8.7225,8.657,8.7122,8.7777,8.8467,8.8467,8.9536,9.1468,9.1571,9.1916,9.2433,9.1583,9.1132,9.0746,8.8408,8.6534,8.4689,8.0849,7.7277,7.4061,7.2121,6.8489,6.4672,6.4672,6.2856,6.0547,6.0393,6.0178,5.9255,5.5383,5.3291,5.1691,4.9168,4.8769,5.0141,5.4662,5.5765,5.7458,0.0,0.0,6.6539,7.0317,7.3098,7.6094,8.012,8.4683,8.9062,9.2882,9.6221,9.8573,9.94,10.1504,10.2884,10.278,10.2914,10.3293,10.419,10.4884,10.5609,10.6229,10.5712,10.5302,10.5199,10.4574,10.3914,10.3121,10.3091,10.278,10.212,10.2189,10.2224,10.2224,10.212,10.1677,10.112,10.1706,10.1194,9.9918,10.0602,10.078,10.0809,9.9952,9.9262,9.8601,9.7877,9.7406,9.7039,9.562,9.5068,9.4937,0.0,0.0,0.0,0.0,0.0,0.0,0.0,0.0,3.996,4.1651,4.4612,4.6474,4.6203,4.7996,4.8962,4.8307,5.2858,5.7943,6.3082,6.9242,7.6142,8.3914,8.5259,8.6742,8.8708,8.8329,8.795,8.7639,8.795,8.826,8.8605,8.9467,9.0398,9.133,9.2226,9.2813,9.3089,9.2778,9.2309,9.1719,9.0324,8.8768,8.6902,8.3707,7.9886,7.5817,7.2242,6.8893,0.0,6.4836,6.3402,6.2083,6.1998,6.0764,5.8993,5.6785,5.486,5.3144,5.1901,5.2624,5.4448,5.7611,6.0348,6.3519,6.846,7.0784,7.2901,7.6446,8.0417,8.4161,8.7191,9.1468,9.5193,0.0,9.9711,10.1504,10.178,10.2677,10.3091,10.2677,10.2707,10.3298,10.4988,10.5371,10.5888,10.6612,10.5992,10.5578,10.5578,10.4884,10.4091,10.3298,10.3811,10.3574,10.278,10.3328,10.347,10.347,10.3121,10.2707,10.2396,10.2293,10.178,10.1292,10.1603,10.1677,10.1706,10.0883,10.0401,9.9987,9.8808,9.8714,9.8998,9.6851,9.602,9.6028,0.0,0.0,0.0,0.0,0.0,0.0,0.0,0.0,0.0,0.0,4.3066,4.4423,4.4311,4.4975,4.5397,4.5397,5.01,5.5667,6.179,6.8586,7.6038,8.4225,8.5673,8.7191,8.9019,8.8536,8.8157,8.7984,8.8157,8.8501,8.8915,9.0192,9.1157,9.1813,9.2916,9.3537,9.3744,9.3744,9.3354,9.2673,9.218,9.0616,8.8208,8.4813,8.0357,7.5372,7.1424,6.7894,6.4839,6.3108,6.197,6.131,6.1772,6.0599,5.8813,5.7714,5.5567,5.3727,5.4508,5.6208,5.861,6.1905,6.5806,6.9852,7.3838,7.6792,7.9671,8.3062,8.7156,9.0847,9.3123,9.6434,9.9188,10.0297,10.2091,10.3397,10.3574,10.3608,10.3091,10.1677,10.1396,10.1987,10.3785,10.4815,10.5815,10.6888,10.6095,10.5681,10.5888,10.4988,10.4194,10.3608,10.4225,10.4225,10.3608,10.4225,10.4501,10.4501,10.3914,10.3505,10.3298,10.2504,10.2401,10.281,10.2603,10.2504,10.2495,10.1988,10.1717,10.1399,10.0384,10.0486,10.0915,9.8792,9.7736,9.739,0.0,0.0,0.0,0.0,0.0,0.0,0.0,0.0,0.0,0.0,0.0,0.0,0.0,4.4975,4.5397,4.5397,4.9568,5.4823,6.0944,6.7738,7.4947,8.2638,8.5121,8.6674,8.7441,8.7467,8.7087,8.6363,8.7087,8.8226,8.9674,9.0433,9.2019,9.422,9.4254,9.4641,9.5331,9.5331,9.5331,9.5303,9.5275,9.2927,8.8999,8.4514,7.8574,7.2345,7.0225,6.5409,5.9987,5.9003,5.7782,5.7066,5.9134,6.0183,6.027,5.833,5.5371,5.3395,5.6374,5.8478,6.1569,6.8848,7.2661,7.6169,8.2005,8.4707,8.7053,9.0881,9.2951,9.4841,9.7118,9.8222,9.9504,10.181,10.281,10.3604,10.4397,10.4501,10.3298,10.0297,9.9331,9.9193,0.0,10.281,10.5501,10.7712,10.6505,10.5888,10.6612,10.5298,10.4501,10.4501,10.4501,10.4501,10.4501,10.4501,10.4501,10.4501,10.4501,10.4087,10.3298,10.2504,10.3017,10.4397,10.3574,10.3328,10.3314,10.3608,10.3278,10.2678,10.2908,10.2984,10.2902,10.2117,10.0905,9.9621,0.0,0.0,0.0,0.0,0.0,0.0,0.0,0.0,0.0,0.0,0.0,0.0,0.0,0.0,0.0,0.0,4.8686,5.2908,5.7978,6.5186,7.1739,7.7339,8.1741,8.4397,8.5131,8.5673,8.6294,8.7053,8.7812,8.8708,8.9743,9.0985,9.2261,9.3537,9.4054,9.4737,9.54,9.54,9.5124,9.4572,9.3537,9.1446,8.8405,8.3846,7.7278,6.9951,0.0,6.176,5.7482,5.5847,5.5303,5.5504,5.6572,5.7005,5.6935,5.6085,5.6599,5.8079,6.0742,6.4767,6.9548,7.5234,7.9579,8.3511,8.7503,9.007,9.2088,9.3882,9.3847,9.3882,9.522,9.6048,9.7152,9.8946,10.1982,10.4225,10.4501,10.5298,10.4298,9.9711,9.8952,0.0,0.0,0.0,0.0,10.6095,10.5402,10.5195,10.5888,10.4988,10.4501,10.4501,10.4501,10.4501,10.4501,10.4988,10.4988,10.4501,10.4501,10.4397,10.4121,10.3781,10.4018,10.4496,10.4983,10.4913,10.4405,10.5311,10.4879,10.3795,10.3896,10.3695,10.3303,10.311,10.2406,10.1604,0.0,0.0,0.0,0.0,0.0,0.0,0.0,0.0,0.0,0.0,0.0,0.0,0.0,0.0,0.0,0.0,0.0,5.0597,5.4874,6.0496,6.5891,7.1029,7.4843,7.743,7.8706,7.8982,8.0086,8.2155,8.2914,8.4397,8.6501,8.8019,8.9433,9.0709,9.1468,9.2261,9.2951,9.264,9.164,9.0088,8.8536,8.5742,8.2017,7.7741,7.1591,0.0,6.0699,5.7088,5.4152,5.3416,5.345,5.397,5.4862,5.525,5.56,5.6473,5.9044,6.2488,6.6527,7.1621,7.6951,8.1925,8.5949,8.9467,9.2226,9.4227,9.5427,9.5082,9.3778,9.2537,9.195,9.1571,9.2364,9.5537,9.8739,10.1706,10.419,10.4401,10.3022,9.9573,9.8228,9.7296,0.0,0.0,0.0,10.4091,10.3884,10.4091,10.5195,10.4811,10.4501,10.4501,10.4501,10.4604,10.4884,10.5091,10.4988,10.4501,10.4501,10.4707,10.509,10.509,10.532,10.5714,10.6479,10.6317,10.5594,10.6507,10.6102,10.4907,10.5008,10.5009,10.4901,10.4588,10.4508,10.4201,0.0,0.0,0.0,0.0,0.0,0.0,0.0,0.0,0.0,0.0,0.0,0.0,0.0,0.0,0.0,0.0,0.0,0.0,5.172,5.4168,5.8099,6.391,6.5186,6.6792,6.8966,6.8359,6.9518,7.2519,7.3244,7.5809,8.0166,8.1603,8.35,8.5708,8.6363,8.7122,8.7846,8.7087,8.5052,8.2259,8.0683,7.6533,7.0877,6.7172,6.2496,5.7529,5.4563,5.2046,5.0321,5.1686,5.2272,5.2686,5.4203,5.5272,5.6547,5.9599,6.2772,6.6738,7.3443,7.8718,8.3604,8.8777,9.1744,9.3951,9.6158,9.7152,9.6945,9.4668,9.2744,9.0536,0.0,0.0,8.5846,9.1847,9.3778,9.6848,10.3604,10.2091,10.0326,0.0,0.0,0.0,0.0,0.0,0.0,10.2017,0.0,10.2914,10.4501,10.4604,10.4604,10.4604,10.4604,10.4884,10.5612,10.4884,10.4604,10.4604,10.4596,10.5183,10.6205,10.6325,10.6795,10.7805,10.7786,10.741,10.6701,10.71,10.6709,10.5992,10.629,10.6911,10.7388,10.6596,10.6801,10.6984,0.0,0.0,0.0,0.0,0.0,0.0,0.0,0.0,0.0,0.0,0.0,0.0,0.0,0.0,0.0,0.0,0.0,0.0,4.8686,5.2065,5.4908,5.7012,6.1634,6.4481,6.5014,6.6497,6.8241,7.0173,7.0346,7.1622,7.3809,7.3636,7.4774,7.6947,7.6625,7.7177,7.8361,7.8154,7.7016,7.5176,7.3602,7.105,6.7842,6.5205,6.1565,5.7667,5.572,5.3582,5.1617,5.1444,5.3272,5.5805,5.6736,5.8737,6.122,6.3722,6.8601,7.4201,7.881,8.5018,9.095,9.3985,9.6055,9.7641,9.878,9.7434,9.5331,9.3054,8.8226,8.3466,8.0373,8.1201,0.0,8.8157,9.4261,0.0,10.4712,10.5609,0.0,10.2677,0.0,10.0297,9.9981,9.9366,0.0,0.0,10.2504,10.3091,10.5195,10.5785,10.5919,10.5302,10.5884,10.6199,10.6405,10.5712,10.5298,10.5298,10.5598,10.5892,10.6198,10.7014,10.748,10.7822,10.8101,10.7701,10.7088,10.7986,10.7476,10.6385,10.6988,10.6727,10.5715,10.5495,10.5201,10.4614,0.0,0.0,0.0,0.0,0.0,0.0,0.0,0.0,0.0,0.0,0.0,0.0,0.0,0.0,0.0,0.0,0.0,0.0,0.0,4.8231,5.0045,5.1444,5.4149,5.6081,5.7064,5.7736,5.9599,6.2806,6.2117,6.3427,6.6531,6.6117,6.6965,6.8862,6.9104,6.9863,7.0932,7.0567,6.9187,0.0,0.0,6.3358,6.084,5.9219,5.7288,5.5272,5.441,5.3927,5.3823,5.477,5.6736,5.915,6.122,6.3772,6.6827,7.1084,7.5775,8.0683,8.588,9.1571,9.6469,9.809,9.9188,9.9222,9.6952,9.4848,9.1778,8.6191,8.1431,7.7051,7.2981,7.5292,7.9258,8.3707,0.0,0.0,10.4298,10.5609,10.5609,0.0,10.3914,0.0,10.2603,10.2224,10.2677,0.0,10.3505,10.3505,10.5474,10.5992,10.6199,10.6095,10.6474,10.6509,10.6199,10.6605,10.6494,10.5898,10.6578,10.7185,10.7692,10.8307,10.8777,10.9281,0.0,10.9093,10.8387,10.8691,10.8123,10.689,10.7021,10.6706,10.6192,10.5789,10.5385,10.4798,0.0,0.0,0.0,0.0,0.0,0.0,0.0,0.0,0.0,0.0,0.0,0.0,0.0,0.0,0.0,0.0,0.0,0.0,0.0,0.0,4.523,4.7307,4.6238,4.6466,4.8465,4.7341,4.8996,5.3582,5.2272,5.4099,5.884,5.8737,5.9564,6.1185,6.2358,6.3324,6.4032,6.3324,6.1461,5.8875,5.7633,5.5529,5.3046,0.0,5.2375,5.2375,5.2479,5.372,5.5892,5.9668,6.1565,6.3013,6.6842,6.9877,7.3326,7.9776,8.3407,8.6777,9.3158,9.7641,10.0608,10.112,10.1016,9.9257,9.333,9.0605,8.6674,7.7396,7.3947,7.1139,6.6344,6.9345,7.4382,7.9994,8.7881,9.5917,10.3604,10.4194,10.4712,10.6888,10.5988,10.5294,10.5398,10.5294,10.5781,10.7126,10.5095,10.4401,10.5681,10.5888,10.6302,10.6992,10.6992,10.6705,10.6095,10.7589,10.7807,10.6599,10.7596,10.849,10.9511,10.9691,11.0282,11.1221,0.0,0.0,10.9811,10.8982,10.8196,10.7388,10.6691,10.678,10.7388,10.6691,10.6376,10.6213,0.0,0.0,0.0,0.0,0.0,0.0,0.0,0.0,0.0,0.0,3.8455,3.9627,0.0,0.0,0.0,0.0,0.0,0.0,0.0,0.0,0.0,4.5742,4.6169,4.6583,4.6962,4.7341,4.7962,4.8893,4.8617,4.9617,5.177,5.1099,5.1927,5.3961,5.3616,5.3858,5.4547,5.441,5.372,5.272,5.3065,5.2513,5.1617,5.277,0.0,0.0,5.3858,5.3961,5.4908,6.2411,6.624,6.8586,7.2339,7.6822,8.1603,8.5949,8.9709,9.3296,9.7049,10.0809,10.3397,10.2293,10.0602,9.7917,9.3089,8.6536,7.9741,7.3567,6.9084,6.5635,6.348,6.7827,7.4085,8.1328,8.9019,9.6745,10.4302,10.6402,10.7712,0.0,10.9402,10.9471,11.0092,0.0,0.0,0.0,0.0,10.6888,10.6509,10.7681,10.8506,10.8578,10.8578,10.8724,10.8903,10.8588,10.8409,10.8494,10.9011,10.9281,10.9499,11.0503,11.0993,11.1184,11.0487,0.0,10.8909,10.8101,10.7315,10.6617,10.6507,10.6486,10.6617,10.6507,10.6376,10.6213,0.0,0.0,0.0,0.0,0.0,0.0,0.0,3.4683,3.5473,3.694,3.7793,3.8718,3.98,4.0337,4.072,0.0,0.0,0.0,0.0,0.0,0.0,4.4803,4.5548,4.5996,4.5996,4.6328,4.6893,4.7686,0.0,4.7893,4.9375,4.8996,4.9361,5.0444,5.0513,5.072,5.1065,5.1444,5.141,5.1168,5.1892,5.2237,5.2375,5.3115,0.0,0.0,5.3942,5.4701,5.6495,6.1289,6.6827,7.2588,7.7925,8.3028,8.7708,9.1123,9.4261,9.7325,10.0297,10.3121,10.4781,10.3707,10.0223,9.5089,8.7743,8.0845,7.3636,6.5531,6.2737,6.1151,5.9254,6.5186,7.2071,7.7292,8.4225,9.2019,10.0814,10.2401,10.4298,10.9023,10.9609,10.9991,0.0,11.0299,0.0,0.0,0.0,10.7888,10.7888,10.8578,10.9303,10.9879,10.9909,10.9883,10.9917,11.0105,10.9907,10.9314,11.0016,11.0398,11.0398,11.1021,11.1221,11.1184,11.0304,0.0,10.8688,10.7881,10.7095,10.6376,10.6376,10.6376,10.6376,10.6376,10.6082,10.5495,0.0,0.0,0.0,0.0,0.0,0.0,0.0,3.4587,3.5167,3.6883,3.7395,3.8011,3.9123,3.9799,4.0163,0.0,0.0,0.0,0.0,0.0,0.0,0.0,0.0,0.0,4.5397,0.0,0.0,0.0,4.6617,0.0,0.0,0.0,0.0,0.0,4.972,5.0011,5.0045,5.0617,5.0858,0.0,0.0,5.2444,0.0,0.0,0.0,0.0,0.0,5.4805,5.7064,5.9599,6.5497,7.3002,7.9534,8.5811,9.133,9.4089,9.6986,9.9878,10.2603,10.4505,10.5505,10.4091,9.9084,9.195,8.2535,7.5361,6.8103,5.8737,5.7598,5.7789,5.6168,6.253,6.9276,7.2968,7.9017,8.6674,9.6434,9.8463,10.1401,10.8198,10.9609,0.0,11.1713,11.0403,0.0,0.0,0.0,0.0,10.9085,10.9012,10.9596,11.1114,11.1178,11.1107,11.0792,11.1501,11.1287,11.01,11.09,11.1221,11.1221,11.1221,11.1221,11.1184,11.0304,0.0,0.0,10.7881,10.7095,10.6376,10.6376,10.6376,10.6376,10.6376,10.5789,10.4997,0.0,0.0,0.0,0.0,0.0,0.0,0.0,3.4719,3.5567,3.64,3.7291,3.789,3.8026,3.9028,3.9662,0.0,0.0,0.0,0.0,0.0,0.0,0.0,0.0,0.0,0.0,0.0,0.0,0.0,0.0,0.0,0.0,0.0,0.0,0.0,0.0,0.0,5.0011,5.008,0.0,0.0,0.0,0.0,0.0,0.0,0.0,0.0,0.0,5.3099,5.3582,5.9288,6.3117,6.6497,7.2002,8.1569,9.1123,9.2813,9.6883,10.1194,10.2914,10.4919,10.5815,10.2327,9.6262,8.9191,8.1373,7.1739,6.2979,5.7874,5.6322,5.6065,5.6598,6.0771,6.6033,7.1864,7.7361,8.4156,9.3399,9.9395,10.4298,10.8474,0.0,0.0,11.3403,11.1989,0.0,0.0,0.0,0.0,10.9505,10.8903,10.9692,11.2288,11.2316,11.2501,11.2814,11.2202,11.2013,11.2078,11.1507,11.1221,11.1221,11.1221,11.1221,11.1184,11.0304,0.0,0.0,10.7881,10.7095,10.6376,10.6376,10.6376,10.6376,10.6376,10.5789,10.4997,0.0,0.0,0.0,0.0,0.0,0.0,3.4302,3.471,3.5373,3.6821,3.72,3.7508,3.7857,3.8126,3.8548,3.9195,0.0,0.0,0.0,0.0,0.0,0.0,0.0,0.0,0.0,0.0,0.0,4.5397,0.0,0.0,0.0,0.0,0.0,0.0,0.0,0.0,0.0,5.0415,0.0,0.0,0.0,0.0,0.0,0.0,0.0,0.0,0.0,0.0,5.3823,5.5306,5.9185,6.3496,6.4274,7.1256,8.0465,8.7087,9.2157,9.6641,10.1396,10.4018,10.4781,10.2396,9.5193,8.6777,7.9166,6.9566,6.0668,5.5168,5.4513,5.4908,5.477,5.8116,6.2583,6.7758,6.9601,7.4223,8.5225,8.8846,9.3813,10.3091,10.6505,0.0,0.0,0.0,0.0,0.0,0.0,0.0,11.0715,11.0404,11.1211,11.3504,11.3098,11.302,11.3374,11.2608,11.1989,11.1698,11.1405,11.1221,11.1221,11.1221,11.1221,11.1111,10.979,0.0,0.0,10.7404,10.6727,10.6376,10.6376,10.6376,10.6376,10.6376,10.5789,10.4997,0.0,0.0,0.0,0.0,0.0,3.2959,3.4533,3.4636,3.513,3.6885,3.7075,3.7166,3.7596,3.7491,3.7711,3.8469,3.8797,0.0,0.0,0.0,0.0,0.0,0.0,0.0,0.0,0.0,4.5056,4.5177,4.6529,0.0,0.0,0.0,0.0,0.0,0.0,0.0,0.0,0.0,0.0,0.0,0.0,0.0,0.0,0.0,0.0,0.0,0.0,0.0,0.0,0.0,0.0,5.9875,5.8495,6.2393,6.9497,7.9879,8.6742,9.2295,9.8256,10.181,10.3298,10.1396,9.3744,8.4777,7.7154,6.7738,5.9081,5.3651,5.3582,5.4272,5.3529,5.6702,6.0548,6.3998,6.4964,6.898,7.9638,8.2293,8.7018,9.7497,0.0,10.4604,0.0,0.0,0.0,0.0,0.0,0.0,11.1908,11.2016,11.271,11.4425,11.3686,11.3184,11.3203,11.2396,11.1808,11.1221,11.1221,11.1221,11.1221,11.1221,11.1111,11.0781,0.0,0.0,0.0,10.7021,10.6376,10.6376,10.6376,10.6192,10.6009,10.6009,10.5311,10.43,0.0,0.0,0.0,0.0,0.0,0.0,3.4289,3.4505,3.4998,3.6338,3.6801,3.6984,3.6999,3.724,3.7402,3.7417,3.7432,0.0,0.0,0.0,0.0,0.0,0.0,0.0,0.0,0.0,4.4245,4.4708,4.5518,4.6209,4.6811,0.0,0.0,0.0,0.0,0.0,0.0,0.0,0.0,0.0,0.0,0.0,5.1008,0.0,0.0,0.0,0.0,0.0,0.0,0.0,0.0,0.0,0.0,5.672,6.0289,7.167,8.1466,8.9467,9.3357,9.8222,10.1499,9.8498,9.1433,8.3225,7.559,6.6152,5.7961,5.4184,5.3977,5.4272,5.3529,5.7116,6.0427,6.122,6.5773,7.1657,7.8568,8.3431,8.7984,9.264,0.0,9.9257,10.2987,0.0,0.0,0.0,0.0,0.0,11.3012,11.3385,11.3988,11.4796,11.4011,11.3203,11.2396,11.1588,11.1221,11.1221,11.1221,11.1221,11.1221,11.1221,11.0781,0.0,0.0,0.0,0.0,10.6706,10.6376,10.6376,10.6376,10.5899,10.5107,10.5107,10.41,10.2705,0.0,0.0,0.0,0.0,0.0,0.0,0.0,3.4505,3.4983,3.6338,3.66,3.6754,3.6969,3.6861,3.6968,3.7372,3.7402,0.0,0.0,0.0,0.0,0.0,0.0,0.0,0.0,0.0,4.3391,4.3555,4.4782,4.5448,4.5666,4.6092,4.6634,0.0,0.0,0.0,0.0,0.0,0.0,0.0,0.0,4.9937,5.002,0.0,0.0,0.0,0.0,0.0,0.0,0.0,0.0,0.0,0.0,0.0,0.0,6.253,7.0532,7.8798,8.3638,8.7294,8.9053,8.6018,8.0914,7.5072,6.8946,6.2358,5.6564,5.3272,5.3203,5.3667,5.3425,5.5391,5.8668,6.3634,6.5393,6.8739,7.6154,8.2017,8.7923,9.4378,10.4491,11.1482,0.0,0.0,0.0,0.0,0.0,0.0,11.3098,11.2897,11.3093,11.3997,11.3203,11.2396,11.1588,11.0193,11.012,11.1221,11.0597,11.0707,11.1221,11.1221,0.0,0.0,0.0,0.0,0.0,10.6706,10.6376,10.6376,10.6376,10.5899,10.5107,10.5107,10.4394,10.3513,0.0,0.0,0.0,0.0,0.0,0.0,0.0,3.4305,3.4905,3.5968,3.6338,3.66,3.6801,3.6631,3.6647,3.7013,3.7043,0.0,0.0,0.0,0.0,0.0,0.0,0.0,0.0,4.175,4.2438,4.3113,4.4545,4.5228,4.5146,4.5897,4.6142,4.5894,4.5299,0.0,0.0,0.0,0.0,0.0,4.9248,4.9381,4.9479,0.0,0.0,0.0,0.0,0.0,0.0,0.0,0.0,0.0,0.0,0.0,0.0,0.0,6.2634,6.8966,7.543,7.9258,8.0959,7.9097,7.5188,7.0449,6.5083,5.9978,5.5563,5.2789,5.2823,5.3563,5.4149,5.5685,5.8271,6.2599,6.4565,6.7737,7.4004,8.0715,8.8132,9.6616,0.0,0.0,0.0,0.0,0.0,0.0,0.0,0.0,0.0,11.2593,11.2506,11.2689,11.1882,11.1295,11.0781,10.9496,10.9202,10.979,10.9606,10.9496,10.9386,11.001,0.0,0.0,0.0,0.0,0.0,10.6596,10.6376,10.6376,10.6376,10.5678,10.4593,10.4593,10.41,10.3403,0.0,0.0,0.0,0.0,0.0,0.0,0.0,3.4028,3.4751,3.5414,3.6091,3.6523,3.6523,3.6523,3.6523,3.6523,0.0,0.0,0.0,0.0,0.0,0.0,0.0,0.0,4.0436,4.0499,4.1356,4.3103,4.4611,4.528,4.5202,4.6653,4.6575,4.5159,4.4468,4.4218,0.0,0.0,0.0,0.0,4.875,4.9116,0.0,0.0,0.0,0.0,0.0,0.0,0.0,0.0,0.0,0.0,0.0,0.0,0.0,0.0,0.0,0.0,0.0,7.3119,7.596,7.5787,7.2567,6.8138,6.3101,5.8599,0.0,5.272,5.2858,5.3908,5.5547,5.7444,5.8926,5.9547,6.3772,6.8435,7.2539,8.0405,0.0,0.0,10.5001,0.0,0.0,0.0,0.0,0.0,0.0,0.0,0.0,11.2396,11.1992,11.1199,11.0304,10.979,10.979,10.8982,10.8306,10.7498,10.8211,10.7807,10.6507,10.7918,0.0,0.0,0.0,0.0,0.0,10.6376,10.6376,10.6376,10.6302,10.5311,10.388,10.3806,10.3403,10.2815,0.0,0.0,0.0,0.0,0.0,0.0,0.0,0.0,0.0,0.0,3.6091,3.6523,3.6523,3.6523,3.6523,0.0,0.0,0.0,0.0,0.0,0.0,0.0,0.0,0.0,3.8244,3.9234,4.0228,4.1154,4.3118,4.4283,4.4756,4.5633,4.5291,4.3998,4.3815,4.4045,0.0,0.0,0.0,0.0,4.7898,4.8203,0.0,0.0,0.0,0.0,4.9708,5.0356,0.0,0.0,0.0,0.0,0.0,0.0,0.0,0.0,5.5322,5.615,5.8651,0.0,6.3772,6.2048,6.0806,5.9357,0.0,5.5563,5.446,5.3356,5.3287,5.4391,5.7616,5.7202,5.8478,6.491,6.6531,6.8971,7.4617,8.764,0.0,10.7293,11.3201,0.0,0.0,0.0,0.0,0.0,0.0,11.4121,0.0,11.2396,11.1992,11.1199,10.9202,10.8196,10.8196,10.7425,10.6911,10.6691,10.6192,10.6119,10.6376,10.678,0.0,0.0,0.0,0.0,10.6376,10.6376,10.6376,10.6302,10.5715,10.4798,10.3806,10.3219,10.3293,10.3586,0.0,0.0,0.0,0.0,0.0,0.0,0.0,0.0,0.0,0.0,0.0,3.6523,3.6523,3.6523,0.0,0.0,0.0,0.0,0.0,0.0,0.0,0.0,0.0,3.7374,3.7492,3.8491,3.9691,4.1014,4.2743,4.4098,4.5083,4.5422,4.4868,4.3562,4.2931,4.2857,0.0,0.0,0.0,4.5928,4.6971,0.0,0.0,0.0,0.0,0.0,4.9649,5.0071,0.0,5.1444,5.1961,5.2563,0.0,0.0,0.0,0.0,5.4478,5.4582,5.4996,5.6547,5.7978,5.746,5.6771,5.6046,5.5168,5.4478,5.3873,5.3494,5.3391,5.4356,5.7426,5.7499,5.8959,6.4616,6.7208,7.2155,8.2489,0.0,10.3816,11.1581,11.5801,0.0,0.0,0.0,0.0,0.0,0.0,0.0,0.0,11.1295,11.0803,10.9606,10.7881,10.7,10.7,10.6192,10.5422,10.4687,10.5018,10.4798,10.4194,10.5678,10.5789,0.0,0.0,0.0,10.5296,10.5296,10.5495,10.5715,10.4908,10.4284,10.3806,10.2999,10.2999,10.3403,0.0,0.0,0.0,0.0,0.0,0.0,0.0,0.0,0.0,0.0,0.0,0.0,0.0,0.0,0.0,0.0,0.0,0.0,0.0,0.0,0.0,0.0,3.6523,3.6815,3.7492,3.8169,3.9445,4.1432,4.3082,4.4498,4.5607,4.6038,4.533,4.3704,4.2202,4.1554,0.0,0.0,0.0,4.48,4.6106,0.0,0.0,0.0,0.0,0.0,0.0,0.0,0.0,5.0858,5.1168,5.1513,5.2942,0.0,0.0,0.0,0.0,0.0,5.4943,5.5478,5.6168,5.715,5.6409,5.5444,5.5444,5.4494,5.3563,5.3563,5.3667,5.4526,5.7177,5.8623,6.0474,6.3583,6.8862,7.7649,9.2191,9.8855,10.5296,11.3497,11.5479,0.0,0.0,0.0,0.0,0.0,0.0,0.0,0.0,10.9995,10.9224,10.7498,10.6596,10.6009,10.5699,10.4997,10.3917,10.2191,10.3696,10.3293,10.1384,10.4284,10.4577,0.0,0.0,0.0,10.388,10.388,10.432,10.4777,10.399,10.3696,10.3586,10.2815,10.2595,10.2795,0.0,0.0,0.0,0.0,0.0,0.0,0.0,0.0,0.0,0.0,0.0,0.0,0.0,0.0,0.0,0.0,0.0,0.0,0.0,0.0,0.0,3.6523,3.6523,3.6815,3.7492,3.8169,3.9199,4.0676,4.3771,4.5391,4.5669,4.7978,4.7424,4.4344,4.2451,4.1874,4.2363,0.0,0.0,4.4676,4.5525,0.0,0.0,0.0,0.0,0.0,0.0,0.0,0.0,5.0858,5.1513,5.2203,5.3115,0.0,0.0,0.0,0.0,0.0,5.6858,5.746,5.715,5.5444,5.4823,5.4651,5.4651,5.4478,5.4341,5.4341,5.4823,5.6517,6.0686,6.1727,6.3973,7.0148,7.7577,8.6513,0.0,0.0,10.7404,11.2212,0.0,0.0,0.0,0.0,0.0,0.0,0.0,0.0,0.0,10.9995,10.9004,10.6691,10.5715,10.432,10.2285,10.2815,10.1898,9.9659,10.0613,10.0796,10.0503,10.1677,10.2412,0.0,0.0,10.3403,10.388,10.388,10.399,10.399,10.3219,10.2889,10.2815,10.2008,10.2081,10.2925,0.0,0.0,0.0,0.0,0.0,0.0,0.0,0.0,0.0,0.0,0.0,0.0,0.0,0.0,0.0,0.0,0.0,0.0,0.0,0.0,3.6661,3.703,3.703,3.7184,3.7492,3.8861,4.043,4.2171,4.5187,4.7065,4.7824,4.7609,4.6254,4.3994,4.2301,4.1692,4.1997,4.2738,4.3424,4.4064,0.0,0.0,0.0,0.0,0.0,0.0,0.0,0.0,0.0,0.0,5.0996,5.1755,5.2513,0.0,0.0,0.0,0.0,0.0,5.5651,5.5444,5.5065,5.6065,5.6616,5.68,5.6353,5.6237,5.6466,5.7302,5.7406,5.8685,6.2879,6.5404,6.9989,7.9535,0.0,9.3515,10.0093,10.4499,0.0,0.0,0.0,0.0,0.0,0.0,0.0,0.0,0.0,0.0,0.0,0.0,10.7609,10.5091,10.4687,10.3109,10.0209,10.0613,10.0209,9.9108,9.9916,10.0099,9.9695,10.0907,10.1514,10.142,0.0,10.2322,10.2615,10.2615,10.2909,10.3182,10.2375,10.2301,10.2705,10.2301,10.2705,10.3513,0.0,0.0,0.0,0.0,0.0,0.0,0.0,0.0,0.0,0.0,0.0,0.0,0.0,0.0,0.0,0.0,0.0,0.0,0.0,0.0,3.6738,3.7246,3.743,3.7738,3.82,4.003,4.2017,4.4086,4.6911,4.8881,4.9887,4.6962,4.4868,4.355,4.2133,4.16,4.1788,4.2831,4.3469,4.3794,0.0,0.0,0.0,0.0,0.0,0.0,0.0,0.0,0.0,0.0,0.0,0.0,0.0,0.0,0.0,5.4287,5.3977,5.3667,5.4927,5.4168,5.3754,5.6874,5.7513,5.7763,5.9064,5.8956,5.93,6.1729,6.1953,6.2618,6.5788,7.0499,7.7345,8.7887,9.4553,9.9659,10.3313,0.0,0.0,0.0,0.0,0.0,0.0,0.0,0.0,0.0,0.0,0.0,0.0,0.0,10.6103,10.4011,10.3513,10.2008,9.9145,9.8924,9.8741,9.8557,9.9365,9.9512,9.9125,10.0576,10.098,10.0613,10.12,10.1514,10.1514,10.1514,10.1918,10.2412,10.1677,10.1898,10.2412,10.2412,10.2889,10.3586,0.0,0.0,0.0,0.0,0.0,0.0,0.0,0.0,0.0,0.0,0.0,0.0,0.0,0.0,0.0,0.0,0.0,0.0,0.0,0.0,3.6507,3.6569,3.7153,3.8368,4.0245,4.1722,4.3433,4.5453,4.882,5.0513,5.0543,4.7177,4.4868,4.3531,4.2212,4.192,4.2442,4.2536,4.3335,4.4511,4.4587,0.0,0.0,0.0,0.0,0.0,0.0,0.0,0.0,0.0,0.0,0.0,0.0,0.0,5.3529,5.4287,5.3977,5.4011,5.6874,5.6513,5.5582,5.6633,5.477,5.473,6.2509,6.2704,6.2678,6.7839,6.9405,7.009,7.094,7.7944,8.5839,9.2662,9.9163,10.5018,0.0,0.0,0.0,0.0,0.0,0.0,0.0,0.0,0.0,0.0,0.0,0.0,0.0,0.0,0.0,10.388,10.2505,10.0796,9.9125,9.8374,9.7603,9.6869,9.7676,9.8411,9.9145,9.9989,10.0816,10.1404,10.1514,10.1514,10.1514,10.1514,10.1514,10.1587,10.1514,10.1514,10.1624,10.1624,10.2081,10.2815,0.0,0.0,0.0,0.0,0.0,0.0,0.0,0.0,0.0,0.0,0.0,0.0,0.0,0.0,0.0,0.0,0.0,0.0,0.0,3.6523,3.6692,3.7092,3.7769,3.8861,4.0491,4.3125,4.568,4.8163,5.0266,5.0882,5.0011,4.6592,4.4252,4.291,4.1537,4.1256,4.1869,4.1869,4.2661,4.3929,4.3929,4.425,0.0,0.0,0.0,0.0,0.0,0.0,0.0,0.0,5.0479,5.1134,5.1444,5.2375,5.346,5.3736,5.3237,5.2996,5.4667,5.5355,5.6001,5.7715,5.7631,5.8461,6.361,6.676,6.9866,7.4346,7.5889,7.7112,7.9399,8.5749,9.2244,9.7176,10.3018,10.7918,0.0,0.0,0.0,0.0,0.0,0.0,0.0,0.0,0.0,0.0,0.0,0.0,0.0,0.0,0.0,10.2412,10.1808,10.0523,9.8374,9.8043,9.7493,9.6685,9.7016,9.7309,9.764,9.7933,9.8778,9.9989,9.9989,10.0576,10.1514,10.1514,10.1514,10.1514,10.1514,10.1514,10.1587,10.2081,10.2412,10.2705,0.0,0.0,0.0,0.0,0.0,0.0,0.0,0.0,0.0,0.0,0.0,0.0,0.0,0.0,0.0,0.0,0.0,0.0,3.6523,3.6523,3.6692,3.7153,3.7831,3.9014,4.0799,4.3956,4.6819,4.9343,5.0944,5.079,4.8974,4.6007,4.3882,4.2571,4.1384,4.1213,4.1873,4.2056,4.27,4.351,4.3794,4.4259,0.0,0.0,0.0,0.0,0.0,0.0,0.0,0.0,5.0355,5.0789,5.103,5.1961,5.2996,5.2996,5.2753,5.2557,5.3112,5.3841,5.5089,5.7824,5.9886,6.2595,6.7712,7.156,7.5744,8.1647,8.2659,8.3441,8.6484,9.0813,0.0,0.0,10.5495,0.0,0.0,0.0,0.0,0.0,0.0,0.0,0.0,0.0,0.0,0.0,0.0,0.0,0.0,0.0,0.0,0.0,10.0576,9.9568,9.7897,9.7383,9.6979,9.6685,9.6428,9.6575,9.7089,9.7346,9.819,9.9512,9.9769,10.0503,10.1514,10.1514,10.1514,10.1514,10.1514,10.1514,10.1587,10.2081,10.2301,10.2301,0.0,0.0,0.0,0.0,0.0,0.0,0.0,0.0,0.0,0.0,0.0,0.0,0.0,0.0,0.0,0.0,0.0,0.0,3.6523,3.6523,3.6523,3.6523,3.7123,3.8785,4.1524,4.4202,4.6573,4.8614,5.0667,5.0266,4.7527,4.5515,4.3864,4.2571,4.1925,4.199,4.2648,4.3314,4.3547,4.3588,4.4449,4.4789,4.4831,0.0,0.0,0.0,0.0,0.0,0.0,0.0,5.0011,5.0149,5.0858,5.1582,5.2203,5.2203,5.2552,5.2979,5.2979,5.2481,5.2852,5.6613,6.0691,6.6209,7.5637,7.7262,7.9648,8.9788,8.9968,8.9014,9.14,9.2574,0.0,0.0,0.0,0.0,0.0,0.0,0.0,0.0,0.0,0.0,0.0,0.0,0.0,0.0,0.0,0.0,0.0,0.0,0.0,0.0,9.8704,9.7879,9.7879,9.6282,9.5914,9.6685,9.5878,9.6318,9.7897,9.8704,9.9512,10.0319,10.109,10.1514,10.1514,10.1514,10.1514,10.1514,10.1514,10.1514,10.1514,10.1514,10.1514,10.1514,0.0,0.0,0.0,0.0,0.0,0.0,0.0,0.0,0.0,0.0,0.0,0.0,0.0,0.0,0.0,0.0,0.0,0.0,3.6523,3.6523,3.6523,3.6523,3.7123,3.8108,3.94,4.2558,4.5884,4.9374,4.9466,4.7896,4.4776,4.416,4.3174,4.1925,4.2681,4.2574,4.1924,4.2614,4.2961,4.306,4.3794,4.4471,4.5083,0.0,0.0,0.0,0.0,0.0,0.0,0.0,0.0,0.0,5.0252,5.1203,5.2099,5.1582,5.1924,5.2438,5.2438,5.3725,5.5891,5.9385,6.4713,7.1343,7.9909,8.2541,8.5626,9.4295,9.5511,9.507,9.5217,9.7309,0.0,0.0,0.0,0.0,0.0,0.0,0.0,0.0,0.0,0.0,0.0,0.0,0.0,0.0,0.0,0.0,0.0,0.0,0.0,0.0,9.6465,9.5951,9.5364,9.4887,9.4777,9.4997,9.4777,9.5511,9.7052,9.7309,9.8154,9.9475,9.9695,10.0503,10.1514,10.1514,10.1514,10.1514,10.1514,10.1514,10.1514,10.1514,10.1514,10.1514,0.0,0.0,0.0,0.0,0.0,0.0,0.0,0.0,0.0,0.0,3.4275,3.5044,0.0,0.0,0.0,0.0,0.0,0.0,0.0,3.6523,3.6523,3.6523,3.7123,3.82,3.9708,4.2805,4.5207,4.688,4.7219,4.5957,4.3205,4.3728,4.3421,4.2466,4.379,4.3636,4.244,4.3106,4.334,4.3319,4.4363,4.5322,4.6117,0.0,0.0,0.0,0.0,0.0,0.0,0.0,0.0,0.0,5.0011,5.0789,5.1662,5.1116,5.1896,5.2873,5.2796,5.5155,5.8682,6.2858,6.8461,7.5406,8.477,8.9585,9.3642,9.9159,9.9512,9.8888,9.9071,10.0099,0.0,0.0,0.0,0.0,0.0,0.0,0.0,0.0,0.0,0.0,0.0,0.0,0.0,0.0,0.0,0.0,0.0,0.0,0.0,0.0,9.5034,9.4777,9.4299,9.3969,9.3969,9.4299,9.3969,9.4483,9.5768,9.6098,9.6759,9.7694,9.8337,9.9365,10.0576,10.0907,10.098,10.111,10.1404,10.1294,10.098,10.098,10.0796,10.0503,0.0,0.0,0.0,0.0,0.0,0.0,0.0,0.0,0.0,0.0,3.4676,3.5506,0.0,0.0,0.0,0.0,0.0,0.0,0.0,0.0,3.6523,3.6584,3.7277,3.8846,4.134,4.3864,4.4233,4.2417,4.4418,4.4418,4.254,4.4006,4.4314,4.3747,4.5083,4.4899,4.363,4.4221,4.4268,4.405,4.5608,4.6738,4.7505,4.7562,0.0,0.0,0.0,0.0,0.0,0.0,0.0,0.0,5.0011,5.0513,5.1045,5.0802,5.2161,5.3745,5.3856,5.668,6.1019,6.6815,7.264,7.9685,9.0245,9.7292,10.1991,10.3403,10.2191,10.131,10.2705,10.1788,0.0,0.0,0.0,0.0,0.0,0.0,0.0,0.0,0.0,0.0,0.0,0.0,0.0,0.0,0.0,0.0,0.0,0.0,0.0,9.4079,9.4079,9.4079,9.4079,9.3345,9.3382,0.0,9.3455,9.3529,9.4299,9.507,9.5455,9.5675,9.7236,9.8374,9.9181,9.9989,10.0283,10.0283,10.111,10.0907,10.0209,10.0209,9.9732,9.9108,0.0,0.0,0.0,0.0,0.0,0.0,0.0,0.0,0.0,0.0,0.0,0.0,0.0,0.0,0.0,0.0,0.0,0.0,0.0,0.0,3.6722,3.7246,3.843,3.9353,3.9937,4.1014,4.1384,4.0953,4.302,4.3267,4.1863,4.4283,4.5022,4.4437,4.5792,4.5361,4.3587,4.3447,4.3653,4.4156,4.528,4.6513,4.761,4.7052,4.71,0.0,0.0,0.0,0.0,0.0,0.0,0.0,5.0011,5.0513,5.0991,5.0362,5.1193,5.2886,5.5348,5.7792,6.1705,7.0541,8.1054,9.0905,9.707,10.0503,10.2375,10.2101,10.3717,10.4981,10.4593,10.4908,0.0,0.0,0.0,0.0,0.0,0.0,0.0,0.0,0.0,0.0,0.0,0.0,0.0,0.0,0.0,0.0,0.0,0.0,0.0,9.2354,9.2317,9.2317,9.2317,9.217,9.2501,0.0,9.3198,9.3529,9.4299,9.4483,9.5254,9.6502,9.7456,9.8374,9.9181,9.9989,9.9916,9.9438,10.0209,10.0099,9.9365,9.9365,9.9255,9.9108,0.0,0.0,0.0,0.0,0.0,0.0,0.0,0.0,0.0,0.0,0.0,0.0,0.0,0.0,0.0,0.0,0.0,0.0,0.0,0.0,3.6938,3.7954,3.8953,3.9661,3.9968,4.0676,4.0861,4.0505,4.1925,4.2281,4.1648,4.4036,4.4929,4.4683,4.6326,4.587,4.3826,4.3878,4.4074,4.4451,4.5589,4.6712,4.7686,4.7686,4.7445,4.7272,0.0,0.0,0.0,0.0,0.0,0.0,0.0,0.0,5.0537,5.0424,5.1361,5.3134,5.6136,6.0209,6.6205,7.7012,8.673,9.4556,9.7823,10.0393,10.2081,10.2081,10.399,10.5789,10.5715,0.0,0.0,0.0,0.0,0.0,0.0,0.0,0.0,0.0,0.0,0.0,0.0,0.0,0.0,0.0,0.0,0.0,0.0,9.3161,9.2097,9.1253,9.1216,9.1216,9.1216,9.0849,9.1069,9.1913,9.1492,9.1767,9.2574,9.3749,9.474,9.5584,9.6392,9.7199,9.8007,9.8814,9.8888,9.8594,9.9402,9.9218,9.8521,9.8521,9.83,9.797,0.0,0.0,0.0,0.0,0.0,0.0,0.0,0.0,0.0,0.0,0.0,0.0,0.0,0.0,0.0,0.0,0.0,0.0,0.0,0.0,0.0,3.843,3.9261,3.992,4.0474,4.1107,4.1107,4.0505,4.123,4.1771,4.2171,4.3944,4.4776,4.4837,4.6511,4.6199,4.4431,4.4503,4.469,4.5,4.6014,4.6902,4.7755,4.8238,4.7824,4.7134,4.8238,4.8376,4.8307,4.9582,0.0,0.0,0.0,0.0,5.0097,5.0676,5.1717,5.3378,5.6436,6.3325,7.2197,8.3078,8.9968,9.4556,9.6282,9.8851,10.109,10.2118,10.3696,10.5091,10.5789,0.0,0.0,0.0,0.0,0.0,0.0,0.0,0.0,0.0,0.0,0.0,0.0,0.0,0.0,0.0,0.0,0.0,9.3088,9.2134,9.1289,9.0629,9.0464,9.0391,9.0391,8.973,8.9877,9.0812,9.028,9.0244,9.0702,9.3015,9.4153,9.4336,9.5144,9.5951,9.6759,9.7566,9.7843,9.775,9.8594,9.8411,9.7676,9.753,9.7052,9.6502,0.0,0.0,0.0,0.0,0.0,0.0,0.0,0.0,0.0,0.0,3.5467,0.0,0.0,0.0,0.0,0.0,0.0,0.0,0.0,0.0,0.0,3.8491,3.9691,4.0413,4.0505,4.0614,4.0614,4.0505,4.123,4.2479,4.4221,4.5083,4.5484,4.5484,4.5761,4.5796,4.5542,4.4124,4.4556,4.6226,4.606,4.6663,4.7651,4.71,4.7548,0.0,0.0,4.8651,4.972,4.9942,5.0011,0.0,0.0,0.0,5.0163,5.0857,5.1087,5.2034,5.638,6.662,7.7615,8.4152,8.9564,9.3859,9.6171,9.7566,9.8834,10.0283,10.2485,10.41,0.0,0.0,0.0,0.0,0.0,0.0,0.0,0.0,0.0,0.0,0.0,0.0,0.0,0.0,0.0,0.0,0.0,0.0,9.3088,9.162,9.0702,9.0592,8.9913,8.9546,8.9546,8.9436,9.0134,9.1657,9.2317,9.1913,9.0665,9.2464,9.3639,9.4336,9.5144,9.5951,9.6759,9.7566,9.7493,9.6942,9.775,9.7566,9.6795,9.6098,9.5749,9.5639,0.0,0.0,0.0,0.0,0.0,0.0,0.0,0.0,0.0,0.0,0.0,3.6242,0.0,0.0,0.0,0.0,0.0,0.0,0.0,0.0,0.0,3.7954,3.923,3.9937,3.9937,4.029,4.0505,4.0505,4.1599,4.3002,4.4622,4.5669,4.6357,4.6716,4.6881,4.6689,4.618,4.5374,4.5472,4.6123,4.5781,4.6213,4.7031,4.672,0.0,0.0,0.0,0.0,0.0,0.0,5.0011,5.008,5.0375,0.0,0.0,0.0,5.0717,5.2633,6.0237,6.8341,7.6298,8.3361,8.8096,9.1675,9.4116,9.5658,9.6869,9.8043,9.9145,10.0393,0.0,0.0,0.0,0.0,0.0,0.0,0.0,0.0,0.0,0.0,0.0,0.0,0.0,0.0,0.0,0.0,0.0,9.217,9.173,9.0996,9.0391,8.995,8.9143,8.872,8.872,8.8262,8.8409,8.9124,8.9491,8.9528,8.9307,9.0482,9.1987,9.3712,9.4941,9.5951,9.6722,9.7089,9.7016,9.6722,9.7089,9.7016,9.6649,9.6318,9.5914,9.5492,0.0,0.0,0.0,0.0,0.0,0.0,0.0,0.0,0.0,0.0,0.0,0.0,0.0,0.0,0.0,0.0,0.0,0.0,0.0,0.0,0.0,3.7738,3.8861,3.9568,3.9753,4.0228,4.0505,4.0505,4.1907,4.3556,4.5391,4.6877,4.8195,4.9263,4.859,4.7946,4.7317,4.7091,4.6834,4.6601,4.5965,4.6065,4.6617,0.0,0.0,0.0,0.0,0.0,0.0,0.0,0.0,0.0,0.0,0.0,0.0,0.0,0.0,5.3349,6.1623,6.7491,7.3046,8.0314,8.5032,8.8519,9.0996,9.2923,9.4464,0.0,9.5804,0.0,0.0,0.0,0.0,0.0,0.0,0.0,0.0,0.0,0.0,0.0,0.0,0.0,0.0,0.0,0.0,0.0,9.1216,9.0922,9.0317,9.0115,8.9711,8.9106,8.8316,8.7912,8.7912,8.7509,8.7198,8.6978,8.6978,8.7215,8.7619,8.8409,8.9913,9.1987,9.4006,9.5254,9.5804,9.6025,9.6208,9.6392,9.6392,9.6539,9.6685,9.6465,9.6025,9.5455,0.0,0.0,0.0,0.0,0.0,0.0,0.0,0.0,0.0,0.0,0.0,0.0,0.0,0.0,3.6523,3.6523,0.0,0.0,0.0,0.0,0.0,3.843,3.9107,0.0,4.0413,4.0474,4.0505,4.0505,4.1907,4.4245,4.7485,4.9335,5.1534,5.3808,5.0513,4.9256,4.9563,4.8787,4.8553,4.852,4.7121,0.0,0.0,0.0,0.0,0.0,0.0,0.0,0.0,0.0,0.0,0.0,0.0,0.0,0.0,0.0,0.0,0.0,5.7055,6.289,6.9169,7.4169,7.9601,8.4335,8.6757,8.9143,9.1069,9.1877,9.3308,0.0,0.0,0.0,0.0,0.0,0.0,0.0,0.0,0.0,0.0,0.0,0.0,0.0,0.0,0.0,0.0,0.0,8.9546,8.951,8.9473,8.8757,8.8316,8.828,8.7472,8.7051,8.7051,8.7766,8.7766,8.6978,8.6978,8.6628,8.593,8.6775,8.7619,8.8647,9.184,9.3235,9.3345,9.4116,9.4887,9.5565,9.5565,9.6025,9.6612,9.5841,9.5528,9.5382,0.0,0.0,0.0,0.0,0.0,0.0,0.0,0.0,0.0,0.0,0.0,0.0,0.0,3.6523,3.6523,3.6523,3.6523,0.0,0.0,0.0,0.0,3.7861,3.9322,4.0061,3.9876,4.0276,4.0505,4.0505,4.1907,4.3907,4.6435,4.8434,5.0498,5.2491,5.1891,5.144,5.104,4.9426,4.8772,4.872,0.0,0.0,0.0,0.0,0.0,0.0,0.0,0.0,0.0,0.0,0.0,0.0,0.0,0.0,0.0,0.0,5.1183,5.2733,5.5946,5.9852,6.442,7.033,7.4903,7.8867,8.2353,8.5416,8.7729,8.8536,9.0041,0.0,0.0,0.0,0.0,0.0,0.0,0.0,0.0,0.0,0.0,0.0,0.0,0.0,0.0,0.0,0.0,0.0,0.0,8.9179,8.8683,8.8353,8.8206,8.8206,8.7435,8.6978,8.6978,8.7271,8.7031,8.6224,8.6224,8.582,8.5049,8.5857,8.6664,8.7545,8.9767,9.1638,9.3161,9.3969,9.4777,9.5492,9.5492,9.5988,9.6685,9.6392,9.5621,9.4703,0.0,0.0,0.0,0.0,0.0,0.0,0.0,0.0,0.0,0.0,0.0,0.0,0.0,0.0,3.6938,3.7153,3.6969,3.6938,3.7153,3.8015,3.8399,3.82,3.9445,4.0061,3.9845,4.0061,4.0259,4.0505,4.1661,4.3559,4.6076,4.8382,5.0442,5.2263,5.2859,5.2701,5.1953,5.1066,0.0,4.9169,0.0,0.0,4.9272,0.0,0.0,0.0,0.0,0.0,0.0,0.0,0.0,0.0,0.0,0.0,0.0,0.0,0.0,5.2557,5.5176,5.7884,6.1545,6.8054,7.0917,7.3597,7.9286,8.1819,8.3544,8.5747,0.0,0.0,0.0,0.0,0.0,0.0,0.0,0.0,0.0,0.0,0.0,0.0,0.0,0.0,0.0,0.0,0.0,0.0,0.0,0.0,8.8206,8.7949,8.7802,8.7802,8.7288,8.6867,8.6591,8.6591,8.6187,8.538,8.5123,8.4719,8.4242,8.4756,8.5416,8.628,8.8189,9.0097,9.1913,9.2721,9.3382,9.3877,9.4153,9.4923,9.5878,9.5878,9.5547,9.4997,0.0,0.0,0.0,0.0,0.0,0.0,0.0,0.0,0.0,3.6414,0.0,0.0,0.0,0.0,0.0,3.843,3.7923,3.78,3.8461,3.8539,3.883,3.9476,0.0,0.0,4.0474,3.9893,3.9879,4.0557,4.1256,4.3344,4.6769,4.942,5.1715,5.3619,5.3434,5.2927,5.2272,0.0,5.2735,5.008,0.0,5.0031,5.0459,0.0,0.0,0.0,5.5667,5.4858,0.0,0.0,0.0,0.0,0.0,0.0,0.0,0.0,0.0,0.0,0.0,0.0,0.0,6.7013,6.7467,6.8605,7.7393,7.8148,7.839,8.3324,0.0,0.0,0.0,0.0,0.0,0.0,0.0,0.0,0.0,0.0,0.0,0.0,0.0,0.0,0.0,0.0,0.0,0.0,8.6978,8.7362,8.8133,8.7399,8.6941,8.6941,8.6941,8.6591,8.58,8.58,8.538,8.4572,8.3748,8.3381,8.3381,8.3418,8.3858,8.4756,8.7178,8.8683,8.9473,9.028,9.0665,9.0739,9.1546,9.2868,9.4336,9.4299,9.529,9.6282,0.0,0.0,0.0,0.0,0.0,0.0,3.6258,3.6273,3.632,0.0,0.0,0.0,3.7184,3.7831,3.8323,3.8491,3.8323,3.8323,3.8491,3.8953,3.9291,3.9476,3.9968,4.029,4.0505,4.0786,4.1306,4.2096,4.3259,4.4886,4.7013,4.8828,5.0402,5.1686,5.2186,5.2008,5.141,5.1272,0.0,5.2321,5.0666,5.1306,0.0,0.0,0.0,0.0,0.0,5.5754,0.0,0.0,5.5134,5.4341,0.0,0.0,0.0,0.0,0.0,0.0,5.4592,0.0,0.0,0.0,0.0,0.0,0.0,0.0,7.1725,7.6592,0.0,0.0,0.0,0.0,0.0,0.0,0.0,0.0,0.0,0.0,0.0,0.0,0.0,0.0,0.0,0.0,0.0,0.0,8.6978,8.7088,8.7308,8.6554,8.6114,8.6114,8.6114,8.604,8.58,8.58,8.5086,8.3711,8.3491,8.3104,8.2553,8.3728,8.4719,8.56,8.8023,8.9179,8.951,9.0922,9.184,9.2427,9.2648,9.3749,9.5107,9.452,9.4593,9.4777,0.0,0.0,0.0,0.0,0.0,3.6907,3.6907,3.6907,3.6907,0.0,0.0,0.0,3.8231,3.8922,3.923,3.8922,3.8922,3.8922,3.8922,3.9537,3.9937,3.9937,4.0307,4.0629,4.0905,4.1327,4.2072,4.3216,4.4283,4.5656,4.7249,4.8467,4.9338,4.9997,5.0813,5.0784,5.0134,0.0,0.0,0.0,5.1908,0.0,0.0,5.5529,5.6012,0.0,0.0,0.0,5.9116,5.8806,5.7529,0.0,0.0,0.0,0.0,0.0,0.0,0.0,0.0,0.0,0.0,0.0,0.0,0.0,6.4751,6.5742,6.7026,0.0,0.0,0.0,0.0,0.0,0.0,0.0,0.0,0.0,0.0,0.0,0.0,0.0,0.0,0.0,0.0,8.571,8.6004,8.6004,8.6004,8.6004,8.6004,8.5857,8.5637,8.5306,8.5306,8.5123,8.4792,8.4792,8.3985,8.239,8.2737,8.248,8.1746,8.3361,8.4535,8.5416,8.7491,8.8776,8.951,9.0776,9.1216,9.1106,9.1803,9.2648,9.3437,9.3308,9.3675,9.4116,0.0,0.0,3.5894,3.649,3.7092,3.7523,3.7615,3.7615,3.7646,0.0,3.7923,3.8569,3.9814,4.0491,0.0,0.0,3.9814,3.9722,3.9722,4.0197,4.0509,4.0595,4.0612,4.0953,4.1719,4.1803,4.2655,4.4262,4.4939,4.6081,4.7677,4.8406,4.8712,4.881,4.9525,0.0,4.8996,0.0,0.0,5.0375,5.3253,5.4701,0.0,0.0,6.1445,0.0,6.36,6.3841,6.2721,6.1827,5.9581,0.0,0.0,0.0,0.0,0.0,5.5137,0.0,0.0,0.0,0.0,0.0,0.0,0.0,6.431,6.4127,6.404,0.0,0.0,0.0,0.0,0.0,0.0,0.0,0.0,0.0,0.0,0.0,0.0,0.0,0.0,0.0,8.4352,8.4499,8.4609,8.4609,8.4609,8.4572,8.4462,8.5123,8.5196,8.4499,8.4462,8.4132,8.3418,8.3308,8.25,8.1012,8.1709,8.1672,8.1048,8.2757,8.3911,8.4682,8.6407,8.7932,8.9326,9.0207,8.9748,8.861,9.0041,9.0665,9.0812,9.1436,9.2721,9.3932,0.0,3.5704,3.6045,3.7136,3.74,3.7677,3.8214,3.8323,3.8491,3.9045,4.0553,4.1894,4.2712,4.2928,0.0,0.0,4.1801,4.1186,4.1186,4.0768,4.0749,4.126,4.1294,4.191,4.3251,4.3342,4.4395,4.6486,4.6682,4.7632,4.9246,4.9394,4.9561,4.9726,4.9223,4.9306,4.9789,0.0,0.0,5.103,5.2873,0.0,5.915,5.9599,6.072,6.2204,6.3393,6.4446,6.5004,0.0,6.1352,5.8997,0.0,0.0,0.0,0.0,0.0,0.0,0.0,0.0,0.0,0.0,0.0,0.0,5.9942,6.13,6.3086,0.0,0.0,0.0,0.0,0.0,0.0,0.0,0.0,0.0,0.0,0.0,0.0,0.0,0.0,0.0,8.2774,8.3838,8.4609,8.4609,8.4609,8.4315,8.3675,8.3785,8.3785,8.3638,8.3638,8.3564,8.3381,8.2774,8.1966,8.1012,8.1158,8.1158,8.1085,8.3361,8.4462,8.4719,8.6995,8.8133,8.8536,9.0005,9.0408,9.0152,9.0482,9.0996,9.151,9.1033,9.1877,9.3198,0.0,3.6116,3.6408,3.7321,3.7769,3.8354,3.9353,3.9507,3.9876,4.0891,4.2848,4.4098,4.4098,4.4406,0.0,0.0,0.0,0.0,0.0,4.1007,4.1294,4.1965,4.2382,4.3089,4.4192,4.5032,4.6207,4.7759,4.824,4.8943,4.986,4.986,4.9682,4.941,4.941,4.941,4.941,0.0,5.0424,5.1375,5.4425,0.0,5.984,6.179,6.3446,6.486,6.5566,6.6592,6.7236,6.5065,6.3665,0.0,0.0,5.8183,5.843,0.0,5.792,5.8142,0.0,0.0,0.0,5.9612,0.0,0.0,0.0,5.9832,6.0627,6.1435,6.3246,0.0,0.0,0.0,0.0,0.0,0.0,0.0,0.0,0.0,0.0,0.0,0.0,0.0,8.1064,8.1725,8.2186,8.2186,8.2186,8.2039,8.1636,8.2003,8.2039,8.1636,8.2003,8.2003,8.1599,8.1195,8.0608,7.98,8.0608,8.0791,8.0498,8.3324,8.4609,8.4719,8.6738,8.7839,8.828,8.951,8.9987,9.0024,9.0427,9.0592,9.0592,9.0592,9.1143,9.184,3.6398,3.6523,3.6692,3.7369,3.8046,3.8953,4.029,4.0597,4.1322,4.2971,4.4847,4.592,4.5641,0.0,0.0,0.0,0.0,0.0,0.0,0.0,0.0,4.2918,4.3614,4.435,4.516,4.6508,4.7642,4.8641,4.9232,4.9707,5.0011,5.0011,4.9651,4.9065,4.972,4.972,4.9306,0.0,0.0,5.2099,0.0,5.8116,5.8909,6.3515,6.5688,6.6516,6.7865,6.8768,6.9035,6.6403,0.0,6.488,6.0543,5.9883,0.0,0.0,0.0,0.0,0.0,0.0,0.0,0.0,0.0,6.0052,0.0,0.0,0.0,5.9832,0.0,0.0,0.0,0.0,0.0,0.0,0.0,0.0,0.0,0.0,0.0,0.0,0.0,0.0,0.0,7.9082,7.9229,7.9559,7.9396,7.9412,7.9559,8.0314,8.0461,7.9816,8.0424,8.0461,7.9816,7.9669,7.9229,7.8626,8.0057,8.0424,7.9926,8.3141,8.4609,8.4682,8.628,8.7362,8.8059,8.8996,8.94,8.9473,9.0097,8.995,8.9473,9.0134,9.0464,9.0739,3.6476,3.6523,3.6692,3.7369,3.8046,3.8953,4.029,4.1045,4.2386,4.4929,4.6622,4.8022,0.0,0.0,0.0,0.0,0.0,0.0,4.9277,0.0,0.0,4.4613,4.4827,4.5566,4.6907,4.727,4.8151,4.9541,4.9137,4.9292,5.0011,5.0011,4.9927,4.9873,4.9976,5.0306,5.0858,0.0,5.2203,0.0,5.6874,5.715,0.0,6.1116,6.3342,6.4436,6.7866,6.9564,6.9783,0.0,6.6017,6.5084,0.0,6.1422,0.0,0.0,0.0,0.0,0.0,0.0,0.0,0.0,6.4127,0.0,0.0,0.0,6.245,5.8988,0.0,0.0,0.0,0.0,0.0,0.0,0.0,0.0,0.0,0.0,0.0,0.0,0.0,0.0,0.0,7.6533,7.7121,7.8626,7.8023,7.7913,7.8699,7.9522,7.989,7.9816,7.989,7.989,7.9816,7.9082,7.8699,7.8589,7.9522,7.989,7.9926,8.3141,8.4609,8.4682,8.628,8.7051,8.7234,8.8776,8.94,8.94,8.951,8.9473,8.94,8.951,8.9987,9.0739,3.6523,3.6523,0.0,3.7369,3.8046,3.9107,4.0861,4.3402,4.5495,4.6603,4.8795,0.0,0.0,0.0,0.0,0.0,0.0,4.8801,0.0,0.0,0.0,0.0,0.0,0.0,4.7884,4.8454,4.909,4.9708,4.9545,4.9651,5.0011,5.0011,5.0011,5.0011,5.0011,0.0,5.1099,0.0,5.1651,0.0,0.0,0.0,0.0,6.1893,6.5452,6.7098,6.9106,7.03,7.0654,0.0,6.769,0.0,0.0,0.0,0.0,0.0,0.0,0.0,0.0,0.0,0.0,0.0,0.0,0.0,0.0,0.0,6.0199,0.0,0.0,0.0,0.0,0.0,0.0,0.0,0.0,0.0,0.0,0.0,0.0,0.0,0.0,0.0,0.0,0.0,0.0,0.0,7.4184,7.4463,7.4368,7.69,7.8148,7.7671,7.8589,7.9103,7.9103,7.8259,7.8112,7.8589,7.9412,7.9816,7.989,8.2663,8.4168,8.4646,8.5306,8.6133,8.7088,8.8243,8.872,8.8739,8.9216,8.94,8.94,8.94,8.962,9.0097,3.6523,0.0,0.0,3.7369,3.8046,3.9322,4.1771,4.4787,0.0,0.0,0.0,0.0,5.4379,5.4692,0.0,0.0,0.0,5.2629,0.0,0.0,4.8462,0.0,0.0,0.0,0.0,0.0,4.9767,4.9767,4.9918,5.0011,5.0011,5.0011,5.0011,5.0011,5.041,5.1134,5.2065,0.0,5.3134,5.4131,5.6739,5.7642,5.7942,6.3012,6.665,6.9229,6.9742,7.0418,7.0802,6.915,6.8568,0.0,6.5558,0.0,0.0,0.0,0.0,0.0,6.349,0.0,0.0,0.0,0.0,0.0,0.0,0.0,0.0,0.0,0.0,0.0,0.0,0.0,0.0,0.0,0.0,0.0,0.0,0.0,0.0,0.0,0.0,0.0,0.0,0.0,0.0,6.9816,7.0257,7.0646,7.094,7.3949,7.5784,7.6093,7.7268,7.8148,7.8589,7.7729,7.7729,7.8589,7.9176,7.9486,7.9559,8.1966,8.3398,8.3985,8.4425,8.538,8.6738,8.7545,8.7986,8.8243,8.8849,8.9069,8.9106,8.9326,8.94,8.962,3.6523,3.6523,0.0,0.0,3.8046,3.9647,0.0,0.0,0.0,0.0,0.0,0.0,0.0,0.0,0.0,0.0,0.0,5.9577,5.9526,0.0,5.1802,0.0,0.0,0.0,0.0,0.0,0.0,4.9996,5.0011,5.0011,5.0011,5.0011,5.0011,5.008,5.1479,5.2961,5.4494,5.5977,5.8288,6.1118,6.2696,6.5039,6.7171,0.0,6.5148,6.8997,6.9028,0.0,0.0,6.8274,6.7737,0.0,0.0,0.0,0.0,0.0,0.0,0.0,0.0,0.0,0.0,6.404,0.0,0.0,0.0,0.0,6.1985,0.0,0.0,0.0,0.0,0.0,0.0,0.0,0.0,0.0,0.0,0.0,0.0,0.0,0.0,0.0,0.0,0.0,0.0,6.8898,6.683,6.688,6.9963,7.0977,7.2922,7.6019,7.6166,7.6974,7.8589,7.7729,7.7729,7.8589,7.8626,7.8626,7.8699,8.1122,8.226,8.237,8.3911,8.5086,8.5894,8.6701,8.7509,8.8206,8.8243,8.8243,8.8316,8.9106,8.94,8.962,0.0,0.0,0.0,0.0,0.0,0.0,0.0,4.5466,0.0,0.0,0.0,0.0,0.0,0.0,6.6408,0.0,0.0,6.3546,6.1537,5.8634,0.0,0.0,0.0,5.1443,0.0,0.0,0.0,0.0,5.0011,5.0011,5.0011,5.0011,5.0011,5.0045,5.103,5.2341,0.0,0.0,0.0,0.0,0.0,6.6658,6.9961,0.0,0.0,6.8986,6.8986,6.9457,0.0,6.8862,6.8128,6.7554,6.6733,6.5778,6.4971,6.5215,6.6035,0.0,0.0,0.0,7.066,6.6329,0.0,0.0,0.0,0.0,0.0,0.0,0.0,0.0,0.0,0.0,0.0,0.0,0.0,0.0,0.0,0.0,0.0,0.0,0.0,0.0,0.0,0.0,0.0,6.2536,6.2732,6.3576,6.5178,6.8605,7.1505,7.3634,7.5784,7.7708,7.9376,7.8589,7.8589,7.9412,7.8846,7.8883,7.9449,8.0791,8.2003,8.303,8.3564,8.4572,8.5857,8.6664,8.7178,8.7472,8.7986,8.7876,8.7509,8.8316,8.8923,8.962,3.8169,0.0,0.0,0.0,0.0,0.0,0.0,0.0,0.0,0.0,6.0663,0.0,6.8922,0.0,7.0784,0.0,6.9873,6.7492,6.3348,6.2213,0.0,5.6759,5.5452,0.0,0.0,0.0,0.0,0.0,0.0,5.0252,5.0011,5.0011,5.0011,5.008,5.1341,5.277,5.4407,5.7774,6.0063,0.0,0.0,6.8574,0.0,0.0,6.9037,6.931,0.0,6.8856,6.9169,6.8641,6.8128,6.7627,6.71,6.6549,6.6109,6.5815,6.688,6.8068,6.7774,6.9646,0.0,6.7724,6.7136,0.0,6.2169,0.0,0.0,0.0,0.0,0.0,0.0,0.0,0.0,0.0,0.0,0.0,0.0,0.0,0.0,0.0,0.0,0.0,0.0,0.0,6.0529,5.8902,5.9208,6.0199,0.0,0.0,6.9229,7.1967,7.5197,7.7818,7.9779,7.8993,7.8993,7.9779,7.8662,7.8589,7.9412,8.0204,8.1305,8.2574,8.2847,8.3875,8.5416,8.593,8.6464,8.7088,8.7876,8.7729,8.7124,8.8243,8.9326,9.0408,0.0,0.0,0.0,0.0,4.0379,0.0,0.0,0.0,5.5262,0.0,6.3833,6.8027,7.1093,7.2288,7.3391,7.4697,7.4287,0.0,6.5531,6.6428,0.0,0.0,5.7909,5.715,5.4908,0.0,0.0,0.0,0.0,5.072,5.0031,5.0011,5.0011,5.0114,5.239,5.4184,5.5837,6.1177,6.4371,6.6161,6.9897,7.0913,7.022,7.011,7.011,6.9926,6.8251,6.7664,6.77,6.7627,6.7627,6.77,6.77,6.7737,6.7627,6.6843,6.776,6.8862,6.8031,6.9022,6.9889,6.8288,0.0,0.0,0.0,0.0,6.782,0.0,0.0,0.0,0.0,0.0,0.0,0.0,0.0,0.0,0.0,0.0,0.0,0.0,0.0,0.0,0.0,6.0603,5.9501,5.7923,5.6393,5.6907,0.0,0.0,6.6256,7.0977,7.4404,7.7341,7.9779,7.9029,7.9029,7.9779,7.8096,7.7766,7.8699,7.9449,8.0241,8.1122,8.1929,8.3177,8.4609,8.4682,8.5637,8.7088,8.7839,8.7692,8.7234,8.8812,9.0391,9.173,3.9568,4.0959,4.2397,0.0,4.2768,4.3485,0.0,0.0,0.0,0.0,6.9369,7.4395,7.7043,7.8557,7.8879,7.7547,7.673,0.0,0.0,0.0,0.0,6.5324,6.322,6.1323,5.9599,5.7185,0.0,5.3356,0.0,5.0996,5.0789,5.0252,5.0011,5.0114,5.239,5.3598,5.4303,5.9043,6.3201,6.6815,7.0027,7.153,0.0,0.0,7.0477,7.061,6.7797,6.7187,6.7517,6.6329,6.6696,6.77,6.77,6.8091,6.8568,6.8348,6.9398,7.0499,6.9706,7.1115,7.2386,7.077,7.0073,6.9192,0.0,0.0,0.0,0.0,0.0,0.0,0.0,0.0,0.0,0.0,0.0,0.0,0.0,0.0,0.0,0.0,0.0,0.0,0.0,5.6602,5.6418,5.539,5.495,5.5574,0.0,0.0,0.0,6.8545,7.4074,7.7892,7.9779,7.9596,7.9596,7.9779,7.8096,7.806,7.9522,7.9706,8.0587,8.1966,8.3361,8.4205,8.4682,8.5894,8.6611,8.7014,8.7234,8.7545,8.8023,8.9033,9.0024,9.0996,4.1267,0.0,0.0,4.7142,0.0,0.0,5.1277,0.0,0.0,6.5651,7.1975,0.0,7.8304,8.0776,8.1776,8.05,7.9339,0.0,0.0,0.0,0.0,6.8759,6.6999,6.5048,6.2841,5.9495,0.0,5.4961,0.0,0.0,5.1065,5.0341,5.0011,5.0114,5.239,5.3598,5.4231,5.9783,6.4534,6.8469,7.0106,0.0,0.0,7.0036,6.9633,6.9449,6.7283,6.704,6.7554,6.6659,6.6953,6.77,6.77,6.8495,6.9412,6.9412,7.055,7.1711,7.1284,7.2129,7.2973,7.2041,7.1762,7.1138,6.9206,6.9706,6.9926,0.0,0.0,0.0,0.0,0.0,0.0,0.0,0.0,0.0,0.0,0.0,0.0,0.0,0.0,0.0,0.0,5.4583,5.473,5.3948,5.484,0.0,0.0,0.0,0.0,6.6586,7.3582,7.7949,7.9265,8.033,8.0661,8.0277,7.8662,7.8736,8.0314,8.0314,8.1195,8.2774,8.3691,8.4462,8.5196,8.6114,8.6701,8.6978,8.6978,8.7729,8.8793,8.9216,8.9913,9.0739,0.0,0.0,0.0,0.0,0.0,0.0,0.0,5.9684,0.0,6.826,0.0,7.7477,7.8028,8.1132,8.3156,8.3052,0.0,7.927,7.5753,7.5891,7.4257,7.007,6.969,6.831,6.5497,6.153,0.0,0.0,0.0,0.0,5.1065,5.0341,5.0011,5.008,5.2287,5.3817,0.0,6.1481,6.6146,6.9407,6.9775,7.0,7.0,6.9229,6.8605,6.8031,6.7026,6.7113,6.7664,6.759,6.7627,6.7737,6.7811,6.8825,6.9963,7.0073,7.1174,7.2349,7.2349,7.2422,7.2496,7.2496,7.3046,7.2973,7.0881,7.0866,7.0683,6.8605,6.743,6.6512,0.0,0.0,0.0,0.0,0.0,0.0,0.0,0.0,0.0,0.0,0.0,0.0,0.0,0.0,0.0,0.0,0.0,0.0,0.0,0.0,0.0,6.5251,7.2701,7.7326,7.8736,0.0,8.1525,8.1158,7.9433,7.9433,8.1012,8.1012,8.1876,8.3418,8.3491,8.4425,8.58,8.5894,8.6371,8.6978,8.6978,8.7858,8.9106,8.9216,8.973,9.0592,0.0,0.0,0.0,0.0,0.0,6.0894,6.4341,6.7898,7.1258,7.4066,7.9786,8.3397,8.2856,8.4018,8.4535,8.388,8.2466,0.0,0.0,0.0,0.0,7.3106,7.1795,7.0587,6.9449,6.4481,6.1082,0.0,0.0,0.0,5.1065,5.0341,5.0011,5.008,5.1686,5.3786,5.6405,6.0137,0.0,6.464,6.7835,6.9522,7.0,6.9229,6.9619,7.0389,6.8238,6.759,6.759,6.6916,6.7136,6.7811,6.8495,6.8898,6.9229,6.9926,7.077,7.1527,7.1527,7.1967,7.2496,7.2496,7.2606,7.2606,7.2165,7.1674,7.1197,7.0756,6.9509,6.782,6.5692,0.0,0.0,0.0,0.0,0.0,0.0,0.0,0.0,0.0,0.0,0.0,0.0,0.0,0.0,0.0,0.0,0.0,0.0,0.0,0.0,0.0,7.0536,0.0,0.0,0.0,8.0167,8.1966,7.969,7.9433,8.1012,8.1012,8.1876,8.3454,8.4095,8.4939,8.5874,8.6518,8.6867,8.6978,8.6978,8.7161,8.7491,8.8169,8.894,8.9803,0.0,0.0,0.0,0.0,0.0,0.0,0.0,7.4863,0.0,7.6124,7.9626,8.2121,8.1683,8.4121,8.5604,8.5225,8.3811,8.2466,8.1362,7.8373,7.6166,7.505,7.3153,0.0,7.1001,6.5792,6.2514,6.141,0.0,0.0,5.1651,5.0513,5.0011,5.0094,5.1839,5.4495,0.0,0.0,0.0,6.5155,6.7396,6.9265,7.0587,6.9376,6.9619,7.0477,6.8898,6.8311,6.8201,6.7393,6.737,6.7774,6.8164,6.8862,6.9596,7.0,7.0991,7.1931,7.1931,7.2202,7.2496,7.2496,7.2496,7.2386,7.1967,7.1894,7.1564,7.0316,6.9779,6.8678,6.5802,6.1618,0.0,0.0,0.0,0.0,0.0,0.0,0.0,0.0,0.0,0.0,0.0,0.0,0.0,0.0,0.0,0.0,0.0,0.0,0.0,0.0,0.0,0.0,0.0,0.0,0.0,8.1562,8.0388,8.0461,8.1636,8.1636,8.2517,8.4058,8.4425,8.5306,8.6444,8.6848,8.6978,8.6978,8.6978,8.6978,8.7124,8.8372,8.9069,8.951,0.0,5.5819,0.0,0.0,6.5995,0.0,7.4441,7.9752,8.2121,7.8477,7.9741,8.0948,8.0948,8.4156,8.6294,8.6294,8.4915,8.3683,8.2949,7.9304,7.6856,7.6132,7.3912,7.2416,7.1795,6.6876,6.3708,0.0,0.0,0.0,0.0,0.0,5.029,0.0,0.0,0.0,0.0,0.0,6.3791,6.6524,6.773,6.9339,7.0903,6.9619,6.9779,7.0477,6.9522,6.9155,6.9045,6.8251,6.7958,6.7958,6.7958,6.8825,6.9853,6.9853,7.0844,7.1982,7.1982,7.2239,7.2459,7.2312,7.2239,7.2041,7.1233,7.138,7.1211,6.9302,6.9119,6.8495,6.5802,6.2536,0.0,0.0,0.0,0.0,0.0,0.0,0.0,0.0,0.0,0.0,0.0,0.0,0.0,0.0,0.0,0.0,0.0,0.0,0.0,0.0,0.0,7.3156,7.6056,0.0,8.2003,0.0,8.1085,8.1415,8.2186,8.2186,8.3067,8.4609,8.4609,8.5527,8.6978,8.6978,8.6978,8.6978,8.6978,8.6978,8.7161,8.8592,8.9253,8.94,0.0,0.0,0.0,0.0,0.0,0.0,0.0,8.1097,8.4846,8.4397,8.5121,8.5673,8.5673,8.6053,8.6294,8.6294,8.4915,8.3683,8.2949,7.9304,7.6856,7.6132,7.3912,7.2657,7.2588,6.8724,6.519,0.0,0.0,0.0,0.0,0.0,0.0,0.0,0.0,0.0,0.0,6.1779,6.3993,6.57,6.8701,7.0,7.0183,7.0036,7.0954,7.2055,7.055,7.0,6.9853,6.9082,6.8788,6.8788,6.8788,6.8898,6.8995,6.8995,6.9633,7.033,7.033,7.1394,7.2312,7.16,7.1417,7.1197,7.0403,6.9706,6.9178,6.8958,6.7797,6.6512,6.5472,6.4383,6.2915,0.0,0.0,0.0,0.0,0.0,0.0,0.0,0.0,0.0,0.0,0.0,0.0,0.0,0.0,0.0,0.0,0.0,0.0,6.2683,0.0,7.1468,7.6056,7.8075,0.0,8.2076,8.1342,8.1415,8.2186,8.2186,8.3067,8.4609,8.4609,8.5527,8.6978,8.6978,8.6978,8.6978,8.6978,8.6978,8.7088,8.7986,8.8776,8.94,0.0,0.0,0.0,0.0,0.0,0.0,0.0,8.3328,8.5363,8.5811,8.6122,8.6294,8.6294,8.6294,8.6294,8.6294,8.4915,8.3855,8.358,8.0407,7.8028,7.6822,7.5462,7.4101,7.2747,7.0312,6.7055,0.0,0.0,0.0,0.0,0.0,0.0,0.0,0.0,5.7418,6.002,6.2639,6.5191,6.7564,6.8862,7.0257,7.1505,7.0991,7.1541,7.2275,7.066,7.011,6.9963,6.9192,6.8885,6.8885,6.8885,6.9229,6.9706,7.0206,7.0573,7.094,7.1394,7.2018,7.2422,7.2078,7.1674,7.1087,7.0293,6.9853,6.9339,6.8385,6.765,6.71,6.6806,6.5705,6.464,0.0,0.0,0.0,0.0,0.0,0.0,0.0,0.0,0.0,0.0,0.0,0.0,0.0,0.0,0.0,0.0,0.0,0.0,6.1924,0.0,7.0513,7.5322,7.8956,8.1012,8.1489,8.1636,8.1893,8.2186,8.2186,8.3067,8.4646,8.5637,8.639,8.7014,8.7509,8.7435,8.7051,8.7545,8.7435,8.7088,8.7912,8.872,8.9473,6.7796,0.0,7.0423,0.0,7.7408,7.9511,8.3683,8.5018,8.5708,8.6225,8.6294,8.6294,8.6294,8.6294,8.6294,8.6294,8.5121,8.4235,8.3993,8.1373,7.9132,7.7615,7.6603,0.0,7.34,7.2088,6.9357,6.5163,6.2402,0.0,0.0,0.0,0.0,0.0,5.7955,6.028,6.2596,6.4645,6.6806,6.8972,6.9655,7.0697,7.1798,7.1674,7.2004,7.2349,7.1211,7.0513,7.0036,6.9729,6.9435,6.9302,6.9509,7.0,7.055,7.1123,7.1307,7.1417,7.1967,7.2312,7.2459,7.2202,7.1711,7.1087,7.0293,7.011,6.9706,6.8361,6.8251,6.8325,6.8104,6.732,6.6659,6.6512,0.0,0.0,0.0,0.0,0.0,0.0,0.0,5.5831,5.3765,0.0,0.0,0.0,0.0,0.0,0.0,0.0,0.0,0.0,0.0,0.0,0.0,7.9286,8.1342,8.1012,8.1819,8.2186,8.2186,8.2443,8.3287,8.4682,8.604,8.6775,8.7014,8.7619,8.7509,8.7051,8.7619,8.7509,8.7088,8.7912,8.8573,8.9143,7.0843,7.2671,7.5154,7.9718,8.1787,8.3362,8.4949,8.5811,8.6294,8.6294,8.6294,8.6294,8.6294,8.6294,8.6294,8.6294,8.5639,8.4846,8.4028,8.1856,7.9925,0.0,0.0,7.5737,7.4988,7.4185,7.2136,6.8837,0.0,0.0,5.9493,0.0,5.8929,5.9634,6.2051,6.4348,6.6536,6.8151,6.8848,6.9105,7.1505,7.1505,7.0293,7.1872,7.2496,7.2496,7.2496,7.1468,7.022,7.1013,7.072,7.022,7.1013,7.127,7.1307,7.1307,7.1307,7.1307,7.1307,7.1894,7.2312,7.1527,7.1307,7.1087,7.0293,7.011,6.9853,6.9045,6.9522,6.9816,6.9045,6.9522,6.9265,6.688,0.0,0.0,0.0,0.0,0.0,0.0,5.8205,5.7912,5.4693,0.0,0.0,0.0,0.0,0.0,0.0,0.0,0.0,6.2683,6.7504,0.0,7.4867,7.8185,8.0204,8.1012,8.1819,8.2186,8.2223,8.303,8.3821,8.4646,8.5453,8.6261,8.6978,8.7014,8.7014,8.6978,8.7014,8.7014,8.7088,8.7912,8.8206,8.8316,7.4257,7.5878,7.7879,8.0914,8.2673,8.4018,8.5052,8.5846,8.6294,8.6294,8.6294,8.6294,8.6294,8.6294,8.6558,0.0,8.6055,8.5425,0.0,8.417,8.2263,8.0185,8.0143,7.8823,7.5887,7.6122,7.4185,6.9986,0.0,0.0,0.0,6.1028,6.1243,6.1883,6.4333,6.6439,6.8201,6.9265,7.0367,7.1358,7.16,7.1711,7.1798,7.2312,7.2151,7.1674,7.1674,7.0646,6.9412,7.022,7.0293,7.022,7.105,7.1307,7.1417,7.1967,7.1711,7.1417,7.1967,7.2312,7.2459,7.2202,7.1711,7.1233,7.0977,7.0477,7.0036,6.9779,6.9486,6.9192,6.8958,6.8641,6.8214,6.7444,6.6402,0.0,0.0,0.0,0.0,0.0,0.0,5.6957,0.0,5.5218,0.0,0.0,0.0,0.0,0.0,0.0,0.0,0.0,6.8385,0.0,7.6518,7.925,8.1012,8.1819,8.2076,8.2186,8.226,8.3618,8.4352,8.4682,8.604,8.6775,8.7014,8.7582,8.7839,8.7839,8.7839,8.7839,8.7766,8.7509,8.7729,8.8243,7.6671,7.7959,7.9534,8.181,8.32,8.4269,8.5087,8.5846,8.6294,8.6294,8.6294,8.6294,8.6294,8.6294,0.0,8.7165,8.6345,8.5886,8.6239,8.5338,8.3789,8.1418,8.1777,8.0473,7.7146,0.0,0.0,7.2617,7.0597,6.7866,6.458,6.4289,6.4486,6.5178,6.7357,6.8848,6.9839,7.066,7.1394,7.2041,7.1821,7.1857,7.2078,7.2386,7.2188,7.1711,7.1417,7.0646,6.9876,7.0367,7.055,7.0697,7.149,7.1747,7.1857,7.2349,7.2151,7.1857,7.2349,7.2496,7.2496,7.2496,7.2129,7.1747,7.1747,7.1358,7.0917,7.0624,7.0403,7.0169,6.9839,6.9412,6.8935,6.8655,6.6733,6.4701,0.0,0.0,0.0,0.0,0.0,0.0,0.0,5.7152,0.0,0.0,0.0,0.0,0.0,0.0,0.0,6.4897,7.0,0.0,7.7766,7.991,8.1415,8.2186,8.2186,8.237,8.27,8.3691,8.4499,8.5123,8.6114,8.6738,8.7014,8.7545,8.7766,8.7766,8.7766,8.7766,8.7692,8.7215,8.7308,8.7766,7.8189,7.9063,0.0,0.0,8.35,0.0,8.5018,8.5777,8.6294,8.6294,8.6344,8.6394,8.6394,8.6469,8.6495,8.6507,0.0,0.0,0.0,8.557,8.4503,8.229,8.2147,8.1006,7.8628,7.8609,7.7768,7.6093,7.2275,7.0,6.9119,6.8311,6.8348,6.9142,7.0646,7.1344,7.1417,7.2202,7.2078,7.1454,7.2202,7.2041,7.1454,7.2202,7.2459,7.2349,7.1637,7.1307,7.1233,7.127,7.1307,7.1417,7.2202,7.2459,7.2496,7.2496,7.2496,7.2496,7.2496,7.2496,7.2496,7.2569,7.2642,7.2642,7.2606,7.2642,7.2445,7.1637,7.2004,7.2261,7.1454,7.1197,7.0866,7.0073,6.7283,6.4628,6.2939,0.0,0.0,0.0,0.0,0.0,0.0,5.9942,6.0456,0.0,0.0,0.0,0.0,0.0,6.4517,6.6843,7.2224,7.6261,7.8736,8.0241,8.1415,8.226,8.226,8.27,8.3491,8.3491,8.4352,8.58,8.5874,8.6297,8.6978,8.7051,8.7088,8.7088,8.7088,8.7088,8.7088,8.7014,8.6978,8.6978,0.0,0.0,8.0683,8.1879,8.3156,8.4062,8.4235,8.5432,8.6294,8.6294,8.6915,8.7385,8.7385,8.8027,8.7961,8.6843,8.668,8.6858,8.74,8.6353,8.5207,8.4057,8.3383,8.1936,7.9523,7.9487,7.8395,7.6093,7.4536,7.3032,7.1651,7.083,7.0536,7.0756,7.1123,7.1637,7.2239,7.2422,7.2386,7.2239,7.2422,7.2386,7.2239,7.2422,7.2129,7.1637,7.2041,7.1431,7.0477,7.1087,7.1307,7.1344,7.1527,7.2004,7.2496,7.2496,7.2496,7.2496,7.2496,7.2496,7.2642,7.3266,7.3891,7.4169,7.356,7.3891,7.4096,7.3303,7.2789,7.2261,7.1454,7.0279,6.9192,6.8398,6.6085,6.3796,6.2108,6.0713,0.0,0.0,6.1484,6.2597,6.2401,6.2475,6.2475,0.0,0.0,0.0,0.0,6.776,7.0477,7.1064,7.4757,7.7913,8.0424,8.0828,8.1709,8.3124,8.3124,8.3544,8.4315,8.4315,8.4866,8.5837,8.6444,8.6794,8.7051,8.7655,8.7912,8.7912,8.7912,8.7912,8.7839,8.7234,8.6978,8.6978,7.927,8.0097,8.0856,8.1672,8.3018,8.389,8.3569,8.5087,8.633,8.6439,8.7175,8.7865,8.8287,8.8459,8.8206,8.7392,8.6935,8.6643,8.6465,8.536,8.4352,8.3544,8.2737,8.1342,7.9302,7.9265,7.8405,7.6628,7.5821,7.4992,7.4111,7.2936,7.2422,7.2386,7.2004,7.2092,7.2496,7.2496,7.2496,7.2496,7.2496,7.2496,7.2496,7.2496,7.2239,7.1857,7.1931,7.1651,7.1211,7.127,7.1527,7.1857,7.1857,7.2165,7.2496,7.2496,7.2753,7.3046,7.3046,7.3303,7.3692,7.4147,7.4573,7.4793,7.4368,7.4588,7.4793,7.4331,7.3891,7.3325,7.2569,7.1087,6.9486,6.7958,6.5338,6.2915,6.1263,6.037,0.0,6.086,6.3135,6.4787,6.5154,6.6439,6.6659,6.5301,0.0,0.0,6.6856,7.1505,7.3634,7.2532,7.6702,7.9638,8.1012,8.1746,8.272,8.3948,8.3948,8.4389,8.5159,8.5159,8.56,8.6371,8.6811,8.7198,8.7582,8.8023,8.8206,8.8206,8.8206,8.7986,8.7619,8.7178,8.6978,8.6978,7.9707,8.0339,8.1028,8.1845,8.3018,8.3721,8.3313,8.4893,8.6297,8.6741,8.745,8.8281,8.9214,8.8711,8.8201,8.7986,8.7266,8.6246,8.4828,8.4028,8.3177,8.2223,8.1415,8.0241,7.8626,7.8479,7.8023,7.7289,7.6644,7.624,7.6056,7.4698,7.3927,7.3685,7.2973,7.2606,7.2496,7.2496,7.2496,7.2496,7.2496,7.2496,7.2496,7.2496,7.2496,7.2422,7.1711,7.1931,7.2422,7.1711,7.1931,7.2532,7.2642,7.2679,7.2679,7.2679,7.3266,7.3854,7.3722,7.4368,7.505,7.494,7.5087,7.5234,7.5124,7.516,7.5234,7.5124,7.5087,7.4845,7.4037,7.2445,7.0573,6.8435,6.5118,6.2279,6.0786,0.0,6.0334,6.1961,6.4677,6.6683,6.7504,7.0587,7.1174,6.8017,7.1211,7.2642,0.0,7.4478,7.5579,7.367,7.8405,8.1122,8.1379,8.2957,8.4115,8.4792,8.4792,8.5196,8.5967,8.5874,8.6224,8.7014,8.7124,8.7582,8.8206,8.8463,8.8426,8.8206,8.8316,8.7839,8.6978,8.6978,8.6978,8.6978,8.1155,8.1535,8.1845,8.2604,8.2914,8.3512,8.4716,8.5239,8.6003,8.7512,8.8479,8.9372,9.02,9.0213,8.9642,8.8271,8.7428,8.6536,8.5516,8.4781,8.3765,8.226,8.1415,8.0241,7.8626,7.7876,7.7436,7.7289,7.7179,7.6775,7.6093,7.5836,7.4992,7.367,7.356,7.312,7.2496,7.2496,7.2496,7.2496,7.2496,7.2496,7.2496,7.2496,7.2496,7.2496,7.2349,7.2386,7.2496,7.2349,7.2422,7.2606,7.3303,7.3487,7.3487,7.3487,7.4074,7.4588,7.3891,7.4771,7.5763,7.505,7.5931,7.6738,7.6056,7.6445,7.6738,7.6056,7.5909,7.5689,7.4867,7.2848,7.094,6.9889,6.5852,6.2462,6.152,0.0,6.2866,6.4517,6.8678,7.1688,7.2496,7.2532,7.2775,7.3546,7.2408,7.2701,7.5028,7.7084,7.8332,7.8678,8.0167,8.1672,8.3014,8.4609,8.549,8.56,8.56,8.604,8.6811,8.6114,8.6224,8.7014,8.7729,8.8096,8.8316,8.9674,8.9417,8.828,8.8959,8.8299,8.6978,8.6978,8.6978,8.6978,8.0948,8.1845,8.25,8.2845,8.3644,8.431,8.4663,8.5472,8.6375,8.7259,8.8061,8.8907,8.9802,8.9569,8.883,8.7655,8.7198,8.6271,8.4514,8.371,8.259,8.0991,8.0131,7.914,7.7913,7.7509,7.7289,7.7289,7.7289,7.7105,7.6738,7.6313,7.5689,7.4955,7.4074,7.3487,7.312,7.2679,7.2496,7.2496,7.2496,7.2496,7.2496,7.2496,7.2496,7.2496,7.2496,7.2496,7.2496,7.2496,7.2496,7.2642,7.345,7.3722,7.378,7.4221,7.461,7.4903,7.4992,7.5836,7.6665,7.6298,7.6738,7.7215,7.6812,7.7032,7.7179,7.6812,7.6738,7.6481,7.5689,7.3927,7.2202,7.0954,6.6659,0.0,0.0,6.3539,6.442,6.694,7.0734,7.3634,7.4882,7.505,7.5197,7.5542,7.4903,7.5197,7.6665,7.8332,7.9633,8.0424,8.1636,8.3067,8.4682,8.5416,8.6004,8.6444,8.6444,8.6628,8.6978,8.6628,8.6885,8.7655,8.7582,8.828,8.9528,8.984,8.9767,8.9491,8.9436,8.8666,8.7582,8.7178,8.6978,8.7051,8.0683,8.1821,8.2779,8.3155,8.4054,8.4818,8.4801,8.5762,8.6648,8.7131,8.7698,8.8377,8.9292,8.8849,8.8169,8.7344,8.7088,8.606,8.3821,8.2737,8.1505,7.989,7.8846,7.7986,7.7326,7.7289,7.7289,7.7289,7.7289,7.7289,7.7289,7.6665,7.6276,7.6056,7.4625,7.3891,7.367,7.3046,7.2679,7.2532,7.2716,7.2679,7.2496,7.2496,7.2496,7.2496,7.2496,7.2496,7.2496,7.2496,7.2496,7.2679,7.367,7.3964,7.4147,7.494,7.516,7.5307,7.5946,7.6665,7.7289,7.7289,7.7289,7.7289,7.7289,7.7289,7.7289,7.7289,7.7289,7.7105,7.6497,7.5065,7.345,7.1821,0.0,0.0,0.0,6.5632,6.6549,6.9412,7.2422,7.4808,7.624,7.6922,7.7142,7.6717,7.7252,7.7766,7.8133,7.9396,8.0608,8.1819,8.3014,8.4352,8.5783,8.5967,8.6407,8.6978,8.6978,8.6978,8.6978,8.6978,8.7435,8.8169,8.7545,8.8536,9.0555,8.9913,8.9913,9.0244,8.9657,8.8776,8.7839,8.7234,8.7124,8.7362,8.1431,8.181,8.2336,8.3851,8.3655,8.4009,8.626,8.6118,8.6334,8.792,8.8155,8.8503,8.9326,8.9363,8.8996,8.8169,8.7435,8.628,8.4609,8.3067,8.1505,7.989,7.8243,7.7362,7.7289,7.7289,7.7289,7.7289,7.7289,7.7289,7.7289,7.7252,7.6812,7.6056,7.5212,7.4404,7.3722,7.3648,7.3193,7.2569,7.3303,7.3156,7.2496,7.2496,7.2496,7.2496,7.2496,7.2496,7.2496,7.2496,7.2496,7.2789,7.4316,7.4793,7.4977,7.5799,7.6019,7.6019,7.6093,7.6665,7.7289,7.7289,7.7289,7.7289,7.7289,7.7289,7.7289,7.7289,7.7289,7.7289,7.7215,7.5894,7.428,7.2679,0.0,0.0,6.7627,6.8765,7.0293,7.2018,7.4404,7.6276,7.7142,7.7289,7.7619,7.8369,7.8479,7.914,8.0645,8.0828,8.1966,8.4278,8.4462,8.4939,8.5783,8.6554,8.6941,8.6978,8.6978,8.6978,8.6978,8.6978,8.7435,8.8206,8.8133,8.905,9.0592,9.0555,9.0097,8.9473,8.9436,8.8445,8.7088,8.7014,8.7472,8.8133,8.2312,8.2984,8.3664,8.4803,8.5205,8.569,8.668,8.6629,8.6538,8.6648,8.71,8.737,8.7122,8.7154,8.7031,8.6738,8.5967,8.4829,8.3214,8.2076,8.0755,7.914,7.7913,7.7289,7.7289,7.7289,7.7289,7.7289,7.7289,7.7289,7.7289,7.7289,7.7142,7.6812,7.6004,7.5212,7.4404,7.3891,7.323,7.2532,7.2826,7.2789,7.2569,7.3046,7.2936,7.2569,7.3083,7.2936,7.2569,7.3083,7.323,7.3523,7.5139,7.5652,7.5799,7.6592,7.6848,7.6848,7.6848,7.7069,7.7289,7.7289,7.7289,7.7289,7.7289,7.7289,7.7289,7.7289,7.7289,7.7289,7.7289,7.6371,7.5616,7.5491,0.0,7.0793,7.2018,7.1835,7.2202,7.3802,7.5674,7.6959,7.7289,7.7803,7.8259,7.8589,7.9507,8.0351,8.0975,8.1966,8.3361,8.527,8.5343,8.5747,8.6554,8.6831,8.6978,8.6978,8.6978,8.6978,8.6978,8.6978,8.7711,8.8923,8.8426,8.9417,9.1326,9.0812,9.0702,9.0812,8.9803,8.9326,8.9124,8.8133,8.8243,8.8923,8.3256,8.3929,8.4563,8.5407,8.6047,8.647,8.647,8.6538,8.6283,8.5425,8.6046,8.6374,8.5767,8.6226,8.6334,8.582,8.5306,8.4278,8.27,8.1342,7.991,7.8259,7.7619,7.7289,7.7289,7.7289,7.7289,7.7289,7.7289,7.7289,7.7289,7.7289,7.7289,7.7252,7.646,7.5799,7.5234,7.4698,7.4001,7.3303,7.3523,7.334,7.2973,7.378,7.3597,7.2973,7.378,7.3707,7.334,7.3891,7.4074,7.4294,7.5652,7.6276,7.6607,7.7142,7.7289,7.7289,7.7289,7.7289,7.7289,7.7289,7.7289,7.7289,7.7289,7.7289,7.7289,7.7289,7.7289,7.7289,7.7289,7.6848,7.6481,7.6555,7.4426,7.3289,7.4683,7.4169,7.4147,7.5491,7.6628,7.7289,7.7289,7.8332,7.8993,7.8993,8.0461,8.1489,8.1729,8.3014,8.4499,8.6114,8.593,8.6444,8.7748,8.7234,8.6978,8.6978,8.7234,8.7234,8.7014,8.7528,8.8372,8.9363,8.8812,8.9784,9.173,9.0922,9.0776,9.0959,8.984,8.9436,8.9381,8.85,8.872,8.9436,8.4253,8.4396,8.468,8.5559,8.5711,8.5711,8.5692,8.5711,8.537,8.4498,8.5156,8.5711,8.5692,8.7176,8.7545,8.5947,8.58,8.5086,8.3491,8.1122,7.9029,7.7399,7.7289,7.7289,7.7289,7.7289,7.7289,7.7289,7.7289,7.7289,7.7289,7.7289,7.7289,7.7289,7.646,7.6093,7.6093,7.6093,7.5652,7.4977,7.5763,7.5139,7.378,7.461,7.4404,7.3817,7.4625,7.4903,7.4903,7.4903,7.4903,7.505,7.5873,7.6665,7.7289,7.7289,7.7289,7.7289,7.7289,7.7289,7.7289,7.7289,7.7289,7.7289,7.7289,7.7326,7.7326,7.7326,7.7326,7.7326,7.7326,7.7326,7.6812,7.516,7.5579,7.5836,7.5014,7.5616,7.6423,7.7215,7.7326,7.7326,7.7326,7.8846,7.9816,7.9816,8.1321,8.2553,8.3381,8.4168,8.5343,8.6941,8.6224,8.6995,8.9363,8.7785,8.6978,8.7014,8.7802,8.7766,8.7051,8.8666,8.94,8.94,8.94,9.0317,9.173,9.0922,9.0134,8.94,8.94,8.8445,8.7124,8.7912,8.8702,8.9546,8.514,8.486,8.4927,8.6373,8.615,8.5753,8.5713,8.6211,8.6064,8.4579,8.5673,8.6155,8.4987,8.5369,8.571,8.5783,8.4242,8.281,8.1782,7.9984,7.8736,7.8222,7.7619,7.7289,7.7289,7.7289,7.7289,7.7289,7.7289,7.7289,7.7289,7.7289,7.7289,7.7289,7.7069,7.6628,7.6093,7.6093,7.5652,7.4903,7.516,7.4992,7.4625,7.5432,7.5249,7.4661,7.5469,7.538,7.4977,7.5542,7.5726,7.5873,7.6702,7.7105,7.7289,7.7289,7.7289,7.7289,7.7289,7.7289,7.7289,7.7289,7.7289,7.7289,7.7289,7.7766,7.8222,7.8222,7.8662,7.8883,7.8332,7.8222,7.7839,7.6775,7.6775,7.6848,7.6628,7.7341,7.7928,7.8185,7.8699,7.9286,7.9821,8.0865,8.1505,8.1505,8.2443,8.3381,8.4205,8.5563,8.6775,8.7802,8.8169,8.8666,8.94,8.7785,8.7288,8.7839,8.7509,8.7234,8.7014,8.8096,8.8849,8.9436,8.9987,9.0849,9.173,9.0922,9.0482,9.017,8.962,8.9436,8.9473,8.9143,8.9931,9.0959,8.5673,8.5572,8.57,8.6373,8.6364,8.6165,8.5751,8.6138,8.599,8.4579,8.5616,8.6119,8.5077,8.5332,8.5637,8.5783,8.3875,8.2186,8.1085,7.98,7.8919,7.8589,7.7766,7.7289,7.7289,7.7289,7.7289,7.7289,7.7289,7.7289,7.7289,7.7289,7.7289,7.7289,7.7289,7.7032,7.6555,7.6555,7.6298,7.5858,7.5858,7.5674,7.5454,7.6261,7.6093,7.5491,7.6313,7.6261,7.5931,7.6408,7.6555,7.6665,7.7142,7.7289,7.7289,7.7289,7.7289,7.7289,7.7289,7.7289,7.7399,7.7729,7.7546,7.7399,7.7729,7.8222,7.8699,7.8993,7.9449,7.9669,7.914,7.9066,7.8883,7.8369,7.8023,7.7913,7.8259,7.8479,7.8699,7.9029,7.9522,8.011,8.0938,8.2039,8.2957,8.3581,8.4058,8.4719,8.5527,8.7088,8.8299,8.9124,8.929,8.9693,9.0317,8.8739,8.8005,8.8206,8.8005,8.7601,8.7014,8.8152,8.8776,8.8996,9.0097,9.0886,9.1289,9.0812,9.0391,9.006,8.9583,8.951,8.9674,8.9803,9.0482,9.1179,8.5861,8.6265,8.6498,8.573,8.6247,8.6517,8.5711,8.5711,8.5521,8.462,8.5218,8.5696,8.5696,8.6281,8.6407,8.5747,8.4278,8.2757,8.1232,8.0351,7.9559,7.8736,7.7876,7.7399,7.7289,7.7289,7.7289,7.7289,7.7289,7.7289,7.7289,7.7289,7.7289,7.7289,7.7289,7.7289,7.7289,7.7289,7.7289,7.7289,7.7289,7.6848,7.6276,7.7032,7.6848,7.6313,7.7032,7.7289,7.7289,7.7289,7.7289,7.7289,7.7289,7.7289,7.7289,7.7289,7.7289,7.7289,7.7289,7.7362,7.7619,7.8405,7.8075,7.7729,7.8516,7.8772,7.9029,7.9779,7.9963,8.0,7.9926,7.9926,7.989,7.9816,7.9176,7.8956,7.9706,7.9213,7.9103,7.9816,8.0036,8.044,8.1232,8.2757,8.4335,8.5783,8.5967,8.6334,8.7051,8.8629,8.984,9.0592,8.995,9.0317,9.1803,9.0354,8.9179,8.8316,8.9033,8.8556,8.7051,8.8666,8.8959,8.828,8.9821,9.0482,9.0482,9.0408,8.9987,8.94,8.94,8.8996,8.861,9.0078,9.0665,9.0702,8.5752,8.5352,8.4968,8.4713,8.49,8.4949,8.4729,8.586,8.641,8.554,8.5628,8.5762,8.5762,8.4838,8.4372,8.4829,8.3968,8.2977,8.2003,8.1195,8.0388,7.9559,7.8772,7.8002,7.7326,7.7289,7.7289,7.7289,7.7289,7.7289,7.7289,7.7289,7.7289,7.7289,7.7289,7.7289,7.7289,7.7289,7.7289,7.7289,7.7289,7.7215,7.7069,7.7252,7.7179,7.7069,7.7252,7.7289,7.7289,7.7289,7.7289,7.7289,7.7289,7.7289,7.7289,7.7289,7.7289,7.7289,7.7289,7.7803,7.8369,7.8552,7.8919,7.9302,7.9522,8.0021,8.0534,8.0718,8.1232,8.1489,8.0865,8.0755,8.0534,7.989,7.9669,7.9596,7.9779,8.0204,8.0534,8.0718,8.1856,8.2957,8.3728,8.527,8.6354,8.6701,8.7325,8.7766,8.7949,8.9491,9.0427,9.0592,9.1033,9.1436,9.1803,9.1436,9.0555,8.9143,8.9326,8.8556,8.7051,8.8666,8.8959,8.8243,8.9253,8.9657,8.962,8.8977,8.8996,8.94,8.94,8.9657,9.0115,9.0482,9.0996,9.1546,8.5162,8.4735,8.4434,8.4386,8.4774,8.5202,8.5563,8.641,8.6856,8.6374,8.6018,8.58,8.58,8.4719,8.3968,8.4005,8.3638,8.3051,8.226,8.1452,8.0645,7.9853,7.9045,7.8185,7.7326,7.7289,7.7289,7.7289,7.7289,7.7289,7.7289,7.7289,7.7289,7.7289,7.7289,7.7289,7.7289,7.7289,7.7289,7.7289,7.7289,7.7289,7.7289,7.7289,7.7289,7.7289,7.7289,7.7289,7.7289,7.7289,7.7289,7.7289,7.7289,7.7289,7.7289,7.7289,7.7289,7.7399,7.7803,7.8259,7.8772,7.9543,8.0057,8.0351,8.0351,8.0681,8.1122,8.1489,8.1893,8.2076,8.1636,8.1562,8.1415,8.1028,8.0608,8.0498,8.0881,8.0975,8.1158,8.1525,8.2647,8.4005,8.5583,8.6518,8.7308,8.8078,8.8519,8.894,8.9307,9.0519,9.1179,9.1179,9.1583,9.1803,9.1803,9.1803,9.1179,8.995,8.995,8.9106,8.7619,8.8445,8.8372,8.7692,8.85,8.8812,8.8812,8.8793,8.9033,8.9436,8.9803,9.0207,9.0665,9.1033,9.1216,9.1216,8.4564,8.4396,8.4334,8.419,8.49,8.5731,8.646,8.6835,8.6941,8.6811,8.6077,8.5637,8.58,8.4976,8.4022,8.3051,8.3124,8.292,8.2223,8.1562,8.0791,7.9853,7.914,7.8332,7.7326,7.7289,7.7289,7.7289,7.7289,7.7289,7.7289,7.7289,7.7289,7.7289,7.7289,7.7289,7.7289,7.7289,7.7289,7.7289,7.7289,7.7289,7.7289,7.7289,7.7289,7.7289,7.7289,7.7289,7.7289,7.7289,7.7289,7.7289,7.7289,7.7289,7.7289,7.7289,7.7399,7.7693,7.8405,7.8809,7.936,8.0828,8.1232,8.1269,8.1562,8.1415,8.1415,8.2223,8.2296,8.226,8.2553,8.248,8.2443,8.259,8.1929,8.1636,8.2296,8.1599,8.1305,8.2113,8.303,8.4482,8.6757,8.7234,8.7968,8.929,8.9657,9.0097,9.0776,9.1436,9.1803,9.1803,9.1803,9.1803,9.1803,9.1803,9.1473,9.0812,9.0812,8.9968,8.8426,8.8536,8.8169,8.7418,8.7986,8.828,8.8463,8.8959,8.9363,8.9657,9.0317,9.0702,9.0886,9.1546,9.1363,9.0812,8.445,8.4396,8.4148,8.3418,8.3981,8.4645,8.4805,8.6061,8.6775,8.604,8.527,8.5013,8.5727,8.4462,8.2941,8.1452,8.1966,8.2333,8.2186,8.2113,8.1395,7.9853,7.9706,7.8883,7.7326,7.7289,7.7289,7.7289,7.7289,7.7289,7.7289,7.7289,7.7289,7.7289,7.7289,7.7289,7.7289,7.7289,7.7289,7.7289,7.7289,7.7289,7.7289,7.7289,7.7289,7.7289,7.7289,7.7289,7.7289,7.7289,7.7289,7.7289,7.7289,7.7289,7.7289,7.7289,7.7839,7.8442,7.8552,7.9617,8.0901,8.1819,8.2039,8.2406,8.3801,8.303,8.226,8.3051,8.27,8.2627,8.4022,8.3728,8.3454,8.4168,8.3618,8.3124,8.3234,8.1966,8.1305,8.2113,8.3508,8.5123,8.6831,8.8262,8.9179,8.9363,9.0702,9.151,9.162,9.173,9.1803,9.1803,9.1803,9.1803,9.1803,9.1803,9.173,9.1657,9.1657,9.0812,8.9253,8.9968,8.984,8.9033,8.8463,8.861,8.9179,8.861,8.9197,9.0427,9.0537,9.1033,9.1657,9.1767,9.173,9.1657,8.3032,8.338,8.3578,8.3203,8.3895,8.4467,8.4534,8.5157,8.5527,8.5196,8.4425,8.4058,8.4425,8.3434,8.2443,8.1746,8.2003,8.2186,8.2186,8.2186,8.1505,7.989,7.9816,7.9029,7.7362,7.7289,7.7289,7.7289,7.7289,7.7289,7.7289,7.7289,7.7289,7.7289,7.7289,7.7289,7.7289,7.7289,7.7289,7.7289,7.7289,7.7289,7.7289,7.7289,7.7289,7.7289,7.7289,7.7289,7.7289,7.7289,7.7289,7.7289,7.7289,7.7289,7.7289,7.7289,7.7913,7.8699,7.9155,8.0424,8.1856,8.2663,8.3214,8.3618,8.3875,8.3398,8.2994,8.3344,8.2774,8.2406,8.3141,8.3361,8.3381,8.3287,8.3344,8.3234,8.281,8.2113,8.215,8.3398,8.4168,8.5416,8.7472,8.8316,8.9106,8.9987,9.0739,9.1326,9.1767,9.1803,9.1803,9.1803,9.1803,9.1803,9.1803,9.1803,9.1803,9.1803,9.1803,9.1179,9.006,9.0427,9.017,8.9363,8.9033,8.9069,8.94,8.9491,8.9968,9.0629,9.1106,9.1473,9.1803,9.1803,9.1803,9.1803]}]]